<?xml version="1.0" encoding="utf-8"?>
<gpx xmlns:xsi="http://www.w3.org/2001/XMLSchema-instance" xmlns:xsd="http://www.w3.org/2001/XMLSchema" version="1.1" creator="Shapelink.com" xmlns="http://www.topografix.com/GPX/1/1" xmlns:gpxtpx="http://www.garmin.com/xmlschemas/TrackPointExtension/v1">
  <metadata>
    <name>Löpning 6.40 km, 2018-03-05</name>
    <desc></desc>
    <author><name>Bengt-Åke Forslund</name></author> 
    <time>2018-03-05T18:07:43Z</time>
  </metadata>
  <trk>
    <name>Löpning 6.40 km, 2018-03-05</name>
    <trkseg>
      <trkpt lat="62.63734945243" lon="17.966336692313">
        <ele>62.2</ele>
        <time>2018-03-05T18:07:43Z</time>
      </trkpt>
      <trkpt lat="62.637326569843" lon="17.966298806125">
        <ele>62.2</ele>
        <time>2018-03-05T18:07:44Z</time>
      </trkpt>
      <trkpt lat="62.637308884034" lon="17.966241976843">
        <ele>62.2</ele>
        <time>2018-03-05T18:07:45Z</time>
      </trkpt>
      <trkpt lat="62.637295975908" lon="17.9661919369">
        <ele>62.2</ele>
        <time>2018-03-05T18:07:46Z</time>
      </trkpt>
      <trkpt lat="62.637286755818" lon="17.966148434839">
        <ele>62.2</ele>
        <time>2018-03-05T18:07:47Z</time>
      </trkpt>
      <trkpt lat="62.637275021158" lon="17.966083642752">
        <ele>62.2</ele>
        <time>2018-03-05T18:07:48Z</time>
      </trkpt>
      <trkpt lat="62.637262532127" lon="17.966022119606">
        <ele>62</ele>
        <time>2018-03-05T18:07:49Z</time>
      </trkpt>
      <trkpt lat="62.637250378372" lon="17.965963446306">
        <ele>62</ele>
        <time>2018-03-05T18:07:50Z</time>
      </trkpt>
      <trkpt lat="62.637240571549" lon="17.965913490182">
        <ele>61.8</ele>
        <time>2018-03-05T18:07:51Z</time>
      </trkpt>
      <trkpt lat="62.637227998699" lon="17.96586671918">
        <ele>61.8</ele>
        <time>2018-03-05T18:07:52Z</time>
      </trkpt>
      <trkpt lat="62.637215425849" lon="17.965814667581">
        <ele>61.8</ele>
        <time>2018-03-05T18:07:53Z</time>
      </trkpt>
      <trkpt lat="62.637197488583" lon="17.965767058389">
        <ele>61.8</ele>
        <time>2018-03-05T18:07:54Z</time>
      </trkpt>
      <trkpt lat="62.637183071715" lon="17.965723975423">
        <ele>61.8</ele>
        <time>2018-03-05T18:07:55Z</time>
      </trkpt>
      <trkpt lat="62.637168654847" lon="17.965671672367">
        <ele>61.8</ele>
        <time>2018-03-05T18:07:56Z</time>
      </trkpt>
      <trkpt lat="62.637148705925" lon="17.965631103971">
        <ele>61.8</ele>
        <time>2018-03-05T18:07:57Z</time>
      </trkpt>
      <trkpt lat="62.637134372876" lon="17.965580309657">
        <ele>62</ele>
        <time>2018-03-05T18:07:58Z</time>
      </trkpt>
      <trkpt lat="62.637117525257" lon="17.965527587506">
        <ele>62</ele>
        <time>2018-03-05T18:07:59Z</time>
      </trkpt>
      <trkpt lat="62.637102437837" lon="17.965478721029">
        <ele>62</ele>
        <time>2018-03-05T18:08:00Z</time>
      </trkpt>
      <trkpt lat="62.637087350417" lon="17.965426585611">
        <ele>61.8</ele>
        <time>2018-03-05T18:08:01Z</time>
      </trkpt>
      <trkpt lat="62.637075029024" lon="17.9653872745">
        <ele>61.8</ele>
        <time>2018-03-05T18:08:02Z</time>
      </trkpt>
      <trkpt lat="62.637059019595" lon="17.965331870141">
        <ele>61.6</ele>
        <time>2018-03-05T18:08:03Z</time>
      </trkpt>
      <trkpt lat="62.637048877496" lon="17.965288954813">
        <ele>61.6</ele>
        <time>2018-03-05T18:08:04Z</time>
      </trkpt>
      <trkpt lat="62.637033790076" lon="17.96523723849">
        <ele>61.4</ele>
        <time>2018-03-05T18:08:05Z</time>
      </trkpt>
      <trkpt lat="62.637022306873" lon="17.965182839959">
        <ele>61.6</ele>
        <time>2018-03-05T18:08:06Z</time>
      </trkpt>
      <trkpt lat="62.637010069299" lon="17.965137577699">
        <ele>61.6</ele>
        <time>2018-03-05T18:08:07Z</time>
      </trkpt>
      <trkpt lat="62.63699573625" lon="17.965086112833">
        <ele>61.6</ele>
        <time>2018-03-05T18:08:08Z</time>
      </trkpt>
      <trkpt lat="62.636982073753" lon="17.965043281324">
        <ele>61.6</ele>
        <time>2018-03-05T18:08:09Z</time>
      </trkpt>
      <trkpt lat="62.636969668541" lon="17.964990307716">
        <ele>61.6</ele>
        <time>2018-03-05T18:08:10Z</time>
      </trkpt>
      <trkpt lat="62.636957263329" lon="17.964950074596">
        <ele>61.4</ele>
        <time>2018-03-05T18:08:11Z</time>
      </trkpt>
      <trkpt lat="62.636944858117" lon="17.964901543395">
        <ele>61.4</ele>
        <time>2018-03-05T18:08:12Z</time>
      </trkpt>
      <trkpt lat="62.63692868105" lon="17.964855359126">
        <ele>61.4</ele>
        <time>2018-03-05T18:08:13Z</time>
      </trkpt>
      <trkpt lat="62.636915018553" lon="17.964809174857">
        <ele>61.6</ele>
        <time>2018-03-05T18:08:14Z</time>
      </trkpt>
      <trkpt lat="62.636898422391" lon="17.964765840434">
        <ele>61.6</ele>
        <time>2018-03-05T18:08:15Z</time>
      </trkpt>
      <trkpt lat="62.636882915876" lon="17.964722925106">
        <ele>61.6</ele>
        <time>2018-03-05T18:08:16Z</time>
      </trkpt>
      <trkpt lat="62.636870678302" lon="17.96467900395">
        <ele>61.6</ele>
        <time>2018-03-05T18:08:17Z</time>
      </trkpt>
      <trkpt lat="62.636851819027" lon="17.964641369219">
        <ele>61.6</ele>
        <time>2018-03-05T18:08:18Z</time>
      </trkpt>
      <trkpt lat="62.636833797942" lon="17.964604824135">
        <ele>61.4</ele>
        <time>2018-03-05T18:08:19Z</time>
      </trkpt>
      <trkpt lat="62.636815022486" lon="17.964564674834">
        <ele>61.2</ele>
        <time>2018-03-05T18:08:20Z</time>
      </trkpt>
      <trkpt lat="62.636798342505" lon="17.964526118094">
        <ele>61.2</ele>
        <time>2018-03-05T18:08:21Z</time>
      </trkpt>
      <trkpt lat="62.636782500714" lon="17.96448873482">
        <ele>61.2</ele>
        <time>2018-03-05T18:08:22Z</time>
      </trkpt>
      <trkpt lat="62.636767078018" lon="17.964455291039">
        <ele>61.2</ele>
        <time>2018-03-05T18:08:23Z</time>
      </trkpt>
      <trkpt lat="62.636747883467" lon="17.964414638824">
        <ele>61.2</ele>
        <time>2018-03-05T18:08:24Z</time>
      </trkpt>
      <trkpt lat="62.636733718056" lon="17.964377339369">
        <ele>61.2</ele>
        <time>2018-03-05T18:08:25Z</time>
      </trkpt>
      <trkpt lat="62.636719804102" lon="17.964330819824">
        <ele>61.4</ele>
        <time>2018-03-05T18:08:26Z</time>
      </trkpt>
      <trkpt lat="62.636704381406" lon="17.964297376043">
        <ele>61.4</ele>
        <time>2018-03-05T18:08:27Z</time>
      </trkpt>
      <trkpt lat="62.636687869063" lon="17.964252197602">
        <ele>61.4</ele>
        <time>2018-03-05T18:08:28Z</time>
      </trkpt>
      <trkpt lat="62.636675463851" lon="17.964217328898">
        <ele>61.4</ele>
        <time>2018-03-05T18:08:29Z</time>
      </trkpt>
      <trkpt lat="62.636664567381" lon="17.96417441357">
        <ele>61.4</ele>
        <time>2018-03-05T18:08:30Z</time>
      </trkpt>
      <trkpt lat="62.636647635943" lon="17.964125127998">
        <ele>61.2</ele>
        <time>2018-03-05T18:08:31Z</time>
      </trkpt>
      <trkpt lat="62.63663866731" lon="17.964079781919">
        <ele>61.2</ele>
        <time>2018-03-05T18:08:32Z</time>
      </trkpt>
      <trkpt lat="62.636623496071" lon="17.964029993433">
        <ele>61.2</ele>
        <time>2018-03-05T18:08:33Z</time>
      </trkpt>
      <trkpt lat="62.636613186334" lon="17.963990598503">
        <ele>61.2</ele>
        <time>2018-03-05T18:08:34Z</time>
      </trkpt>
      <trkpt lat="62.636599020923" lon="17.963942570216">
        <ele>61.4</ele>
        <time>2018-03-05T18:08:35Z</time>
      </trkpt>
      <trkpt lat="62.636586531892" lon="17.963891859721">
        <ele>61.2</ele>
        <time>2018-03-05T18:08:36Z</time>
      </trkpt>
      <trkpt lat="62.636569432816" lon="17.963855398456">
        <ele>61.2</ele>
        <time>2018-03-05T18:08:37Z</time>
      </trkpt>
      <trkpt lat="62.636548058971" lon="17.963808292178">
        <ele>61.2</ele>
        <time>2018-03-05T18:08:38Z</time>
      </trkpt>
      <trkpt lat="62.636533139189" lon="17.963769148705">
        <ele>61.2</ele>
        <time>2018-03-05T18:08:39Z</time>
      </trkpt>
      <trkpt lat="62.636518219407" lon="17.963733944725">
        <ele>61</ele>
        <time>2018-03-05T18:08:40Z</time>
      </trkpt>
      <trkpt lat="62.636497180838" lon="17.963710307767">
        <ele>61</ele>
        <time>2018-03-05T18:08:41Z</time>
      </trkpt>
      <trkpt lat="62.636477567192" lon="17.963699076021">
        <ele>61</ele>
        <time>2018-03-05T18:08:42Z</time>
      </trkpt>
      <trkpt lat="62.636454181691" lon="17.963703434609">
        <ele>61</ele>
        <time>2018-03-05T18:08:43Z</time>
      </trkpt>
      <trkpt lat="62.636433394579" lon="17.963717851477">
        <ele>61</ele>
        <time>2018-03-05T18:08:44Z</time>
      </trkpt>
      <trkpt lat="62.636407997422" lon="17.963732603621">
        <ele>61</ele>
        <time>2018-03-05T18:08:45Z</time>
      </trkpt>
      <trkpt lat="62.636386623577" lon="17.963745679385">
        <ele>61</ele>
        <time>2018-03-05T18:08:46Z</time>
      </trkpt>
      <trkpt lat="62.636367345207" lon="17.963759174244">
        <ele>61</ele>
        <time>2018-03-05T18:08:47Z</time>
      </trkpt>
      <trkpt lat="62.636339098204" lon="17.963771411818">
        <ele>61.2</ele>
        <time>2018-03-05T18:08:48Z</time>
      </trkpt>
      <trkpt lat="62.636317472902" lon="17.963781553917">
        <ele>61.2</ele>
        <time>2018-03-05T18:08:49Z</time>
      </trkpt>
      <trkpt lat="62.636294338858" lon="17.963806029065">
        <ele>61.4</ele>
        <time>2018-03-05T18:08:50Z</time>
      </trkpt>
      <trkpt lat="62.636270869538" lon="17.963834695163">
        <ele>61.4</ele>
        <time>2018-03-05T18:08:51Z</time>
      </trkpt>
      <trkpt lat="62.636249328055" lon="17.96386093051">
        <ele>61.6</ele>
        <time>2018-03-05T18:08:52Z</time>
      </trkpt>
      <trkpt lat="62.636227199839" lon="17.963886243848">
        <ele>61.6</ele>
        <time>2018-03-05T18:08:53Z</time>
      </trkpt>
      <trkpt lat="62.636203814338" lon="17.96390870734">
        <ele>61.6</ele>
        <time>2018-03-05T18:08:54Z</time>
      </trkpt>
      <trkpt lat="62.63618604471" lon="17.963932092841">
        <ele>61.4</ele>
        <time>2018-03-05T18:08:55Z</time>
      </trkpt>
      <trkpt lat="62.636163078304" lon="17.963961848586">
        <ele>61.6</ele>
        <time>2018-03-05T18:08:56Z</time>
      </trkpt>
      <trkpt lat="62.636142877925" lon="17.963987245743">
        <ele>61.6</ele>
        <time>2018-03-05T18:08:57Z</time>
      </trkpt>
      <trkpt lat="62.636120246795" lon="17.964016666212">
        <ele>61.4</ele>
        <time>2018-03-05T18:08:58Z</time>
      </trkpt>
      <trkpt lat="62.636099292045" lon="17.964040554627">
        <ele>61.6</ele>
        <time>2018-03-05T18:08:59Z</time>
      </trkpt>
      <trkpt lat="62.636078672571" lon="17.964065951784">
        <ele>61.6</ele>
        <time>2018-03-05T18:09:00Z</time>
      </trkpt>
      <trkpt lat="62.636055538527" lon="17.964094617882">
        <ele>61.8</ele>
        <time>2018-03-05T18:09:01Z</time>
      </trkpt>
      <trkpt lat="62.636035338148" lon="17.96412076941">
        <ele>61.8</ele>
        <time>2018-03-05T18:09:02Z</time>
      </trkpt>
      <trkpt lat="62.636010779181" lon="17.96414088597">
        <ele>62</ele>
        <time>2018-03-05T18:09:03Z</time>
      </trkpt>
      <trkpt lat="62.635990997897" lon="17.964168378602">
        <ele>62</ele>
        <time>2018-03-05T18:09:04Z</time>
      </trkpt>
      <trkpt lat="62.635967863853" lon="17.964196374148">
        <ele>62</ele>
        <time>2018-03-05T18:09:05Z</time>
      </trkpt>
      <trkpt lat="62.635946741465" lon="17.964218083269">
        <ele>62</ele>
        <time>2018-03-05T18:09:06Z</time>
      </trkpt>
      <trkpt lat="62.635927211638" lon="17.964243815702">
        <ele>62.2</ele>
        <time>2018-03-05T18:09:07Z</time>
      </trkpt>
      <trkpt lat="62.635902987947" lon="17.964271308334">
        <ele>62.2</ele>
        <time>2018-03-05T18:09:08Z</time>
      </trkpt>
      <trkpt lat="62.635882368473" lon="17.964288742686">
        <ele>62.4</ele>
        <time>2018-03-05T18:09:09Z</time>
      </trkpt>
      <trkpt lat="62.635857725687" lon="17.964310032712">
        <ele>62.4</ele>
        <time>2018-03-05T18:09:10Z</time>
      </trkpt>
      <trkpt lat="62.635835094557" lon="17.964330568367">
        <ele>62.6</ele>
        <time>2018-03-05T18:09:11Z</time>
      </trkpt>
      <trkpt lat="62.635807099011" lon="17.964350265832">
        <ele>62.6</ele>
        <time>2018-03-05T18:09:12Z</time>
      </trkpt>
      <trkpt lat="62.635782204768" lon="17.964367784003">
        <ele>62.6</ele>
        <time>2018-03-05T18:09:13Z</time>
      </trkpt>
      <trkpt lat="62.635761501475" lon="17.964384547803">
        <ele>62.6</ele>
        <time>2018-03-05T18:09:14Z</time>
      </trkpt>
      <trkpt lat="62.635733589748" lon="17.96440491582">
        <ele>62.6</ele>
        <time>2018-03-05T18:09:15Z</time>
      </trkpt>
      <trkpt lat="62.635712551179" lon="17.964423858914">
        <ele>62.6</ele>
        <time>2018-03-05T18:09:16Z</time>
      </trkpt>
      <trkpt lat="62.63568983623" lon="17.964427295493">
        <ele>62.6</ele>
        <time>2018-03-05T18:09:17Z</time>
      </trkpt>
      <trkpt lat="62.635661589227" lon="17.964432743728">
        <ele>62.8</ele>
        <time>2018-03-05T18:09:18Z</time>
      </trkpt>
      <trkpt lat="62.635637365536" lon="17.964441377085">
        <ele>63</ele>
        <time>2018-03-05T18:09:19Z</time>
      </trkpt>
      <trkpt lat="62.635613896216" lon="17.964459649627">
        <ele>63</ele>
        <time>2018-03-05T18:09:20Z</time>
      </trkpt>
      <trkpt lat="62.635587996145" lon="17.964478425083">
        <ele>63</ele>
        <time>2018-03-05T18:09:21Z</time>
      </trkpt>
      <trkpt lat="62.635565113558" lon="17.964496194711">
        <ele>63</ele>
        <time>2018-03-05T18:09:22Z</time>
      </trkpt>
      <trkpt lat="62.635540806048" lon="17.964512287959">
        <ele>63</ele>
        <time>2018-03-05T18:09:23Z</time>
      </trkpt>
      <trkpt lat="62.635512056131" lon="17.964531650148">
        <ele>63</ele>
        <time>2018-03-05T18:09:24Z</time>
      </trkpt>
      <trkpt lat="62.635489089725" lon="17.964549838871">
        <ele>63</ele>
        <time>2018-03-05T18:09:25Z</time>
      </trkpt>
      <trkpt lat="62.635462519102" lon="17.964571296535">
        <ele>63</ele>
        <time>2018-03-05T18:09:26Z</time>
      </trkpt>
      <trkpt lat="62.635440139429" lon="17.964587222145">
        <ele>63</ele>
        <time>2018-03-05T18:09:27Z</time>
      </trkpt>
      <trkpt lat="62.635413987901" lon="17.964597867158">
        <ele>63.2</ele>
        <time>2018-03-05T18:09:28Z</time>
      </trkpt>
      <trkpt lat="62.635389009839" lon="17.964615552967">
        <ele>63.2</ele>
        <time>2018-03-05T18:09:29Z</time>
      </trkpt>
      <trkpt lat="62.635364199415" lon="17.964631059482">
        <ele>63.4</ele>
        <time>2018-03-05T18:09:30Z</time>
      </trkpt>
      <trkpt lat="62.635340143362" lon="17.964637597364">
        <ele>63.4</ele>
        <time>2018-03-05T18:09:31Z</time>
      </trkpt>
      <trkpt lat="62.635319691526" lon="17.964648745291">
        <ele>63.6</ele>
        <time>2018-03-05T18:09:32Z</time>
      </trkpt>
      <trkpt lat="62.635292953265" lon="17.964659055028">
        <ele>63.6</ele>
        <time>2018-03-05T18:09:33Z</time>
      </trkpt>
      <trkpt lat="62.635272501429" lon="17.964671544059">
        <ele>63.8</ele>
        <time>2018-03-05T18:09:34Z</time>
      </trkpt>
      <trkpt lat="62.635247188091" lon="17.964681937615">
        <ele>63.8</ele>
        <time>2018-03-05T18:09:35Z</time>
      </trkpt>
      <trkpt lat="62.635222293848" lon="17.964690570972">
        <ele>63.8</ele>
        <time>2018-03-05T18:09:36Z</time>
      </trkpt>
      <trkpt lat="62.635201842012" lon="17.964698198501">
        <ele>64</ele>
        <time>2018-03-05T18:09:37Z</time>
      </trkpt>
      <trkpt lat="62.635174517018" lon="17.964708424419">
        <ele>64</ele>
        <time>2018-03-05T18:09:38Z</time>
      </trkpt>
      <trkpt lat="62.635152640259" lon="17.964720410536">
        <ele>64</ele>
        <time>2018-03-05T18:09:39Z</time>
      </trkpt>
      <trkpt lat="62.635129003301" lon="17.964731558463">
        <ele>64.2</ele>
        <time>2018-03-05T18:09:40Z</time>
      </trkpt>
      <trkpt lat="62.635108467646" lon="17.964741281467">
        <ele>64.2</ele>
        <time>2018-03-05T18:09:41Z</time>
      </trkpt>
      <trkpt lat="62.635084160136" lon="17.964752680851">
        <ele>64.2</ele>
        <time>2018-03-05T18:09:42Z</time>
      </trkpt>
      <trkpt lat="62.635057589513" lon="17.96476114657">
        <ele>64.2</ele>
        <time>2018-03-05T18:09:43Z</time>
      </trkpt>
      <trkpt lat="62.635035377478" lon="17.964767684452">
        <ele>64.4</ele>
        <time>2018-03-05T18:09:44Z</time>
      </trkpt>
      <trkpt lat="62.63500838776" lon="17.964774976705">
        <ele>64.4</ele>
        <time>2018-03-05T18:09:45Z</time>
      </trkpt>
      <trkpt lat="62.634986930096" lon="17.964782268958">
        <ele>64.2</ele>
        <time>2018-03-05T18:09:46Z</time>
      </trkpt>
      <trkpt lat="62.634963628414" lon="17.964783358605">
        <ele>64.4</ele>
        <time>2018-03-05T18:09:47Z</time>
      </trkpt>
      <trkpt lat="62.634938315076" lon="17.964784029157">
        <ele>64.4</ele>
        <time>2018-03-05T18:09:48Z</time>
      </trkpt>
      <trkpt lat="62.634914845756" lon="17.964775731076">
        <ele>64.6</ele>
        <time>2018-03-05T18:09:49Z</time>
      </trkpt>
      <trkpt lat="62.634888191314" lon="17.964769360832">
        <ele>64.8</ele>
        <time>2018-03-05T18:09:50Z</time>
      </trkpt>
      <trkpt lat="62.634865979279" lon="17.964769612289">
        <ele>64.8</ele>
        <time>2018-03-05T18:09:51Z</time>
      </trkpt>
      <trkpt lat="62.634841755588" lon="17.964768941737">
        <ele>64.8</ele>
        <time>2018-03-05T18:09:52Z</time>
      </trkpt>
      <trkpt lat="62.634817448078" lon="17.96477455761">
        <ele>64.8</ele>
        <time>2018-03-05T18:09:53Z</time>
      </trkpt>
      <trkpt lat="62.634789368713" lon="17.964776904542">
        <ele>64.8</ele>
        <time>2018-03-05T18:09:54Z</time>
      </trkpt>
      <trkpt lat="62.634764390651" lon="17.964780341121">
        <ele>64.8</ele>
        <time>2018-03-05T18:09:55Z</time>
      </trkpt>
      <trkpt lat="62.634741759521" lon="17.96477455761">
        <ele>65</ele>
        <time>2018-03-05T18:09:56Z</time>
      </trkpt>
      <trkpt lat="62.63471921221" lon="17.964771037212">
        <ele>65</ele>
        <time>2018-03-05T18:09:57Z</time>
      </trkpt>
      <trkpt lat="62.634695156157" lon="17.964774222334">
        <ele>65</ele>
        <time>2018-03-05T18:09:58Z</time>
      </trkpt>
      <trkpt lat="62.634670094276" lon="17.964776904542">
        <ele>65.2</ele>
        <time>2018-03-05T18:09:59Z</time>
      </trkpt>
      <trkpt lat="62.634647295508" lon="17.964778832379">
        <ele>65.2</ele>
        <time>2018-03-05T18:10:00Z</time>
      </trkpt>
      <trkpt lat="62.634622233627" lon="17.964777826551">
        <ele>65</ele>
        <time>2018-03-05T18:10:01Z</time>
      </trkpt>
      <trkpt lat="62.634601697972" lon="17.964779922026">
        <ele>65</ele>
        <time>2018-03-05T18:10:02Z</time>
      </trkpt>
      <trkpt lat="62.634577222824" lon="17.964776485447">
        <ele>65.2</ele>
        <time>2018-03-05T18:10:03Z</time>
      </trkpt>
      <trkpt lat="62.634553585866" lon="17.964776569266">
        <ele>65.2</ele>
        <time>2018-03-05T18:10:04Z</time>
      </trkpt>
      <trkpt lat="62.634538749903" lon="17.964777658913">
        <ele>65.2</ele>
        <time>2018-03-05T18:10:05Z</time>
      </trkpt>
      <trkpt lat="62.634505222303" lon="17.964776653085">
        <ele>65.2</ele>
        <time>2018-03-05T18:10:06Z</time>
      </trkpt>
      <trkpt lat="62.634484351372" lon="17.964777491275">
        <ele>65.2</ele>
        <time>2018-03-05T18:10:07Z</time>
      </trkpt>
      <trkpt lat="62.634456942559" lon="17.964779000017">
        <ele>65.2</ele>
        <time>2018-03-05T18:10:08Z</time>
      </trkpt>
      <trkpt lat="62.634431796859" lon="17.964777575094">
        <ele>65.2</ele>
        <time>2018-03-05T18:10:09Z</time>
      </trkpt>
      <trkpt lat="62.634407070254" lon="17.964781933682">
        <ele>65.2</ele>
        <time>2018-03-05T18:10:10Z</time>
      </trkpt>
      <trkpt lat="62.634386618418" lon="17.964783190967">
        <ele>65.4</ele>
        <time>2018-03-05T18:10:11Z</time>
      </trkpt>
      <trkpt lat="62.634361975632" lon="17.964783274786">
        <ele>65.4</ele>
        <time>2018-03-05T18:10:12Z</time>
      </trkpt>
      <trkpt lat="62.634339176864" lon="17.964783610062">
        <ele>65.6</ele>
        <time>2018-03-05T18:10:13Z</time>
      </trkpt>
      <trkpt lat="62.634316126639" lon="17.964803307527">
        <ele>65.8</ele>
        <time>2018-03-05T18:10:14Z</time>
      </trkpt>
      <trkpt lat="62.634292405862" lon="17.96483239272">
        <ele>66</ele>
        <time>2018-03-05T18:10:15Z</time>
      </trkpt>
      <trkpt lat="62.634266673429" lon="17.964857706058">
        <ele>66</ele>
        <time>2018-03-05T18:10:16Z</time>
      </trkpt>
      <trkpt lat="62.634247562697" lon="17.964881343016">
        <ele>66</ele>
        <time>2018-03-05T18:10:17Z</time>
      </trkpt>
      <trkpt lat="62.634214286554" lon="17.964900705205">
        <ele>66</ele>
        <time>2018-03-05T18:10:18Z</time>
      </trkpt>
      <trkpt lat="62.634189643768" lon="17.964905734345">
        <ele>66</ele>
        <time>2018-03-05T18:10:19Z</time>
      </trkpt>
      <trkpt lat="62.634162402593" lon="17.964903052137">
        <ele>66</ele>
        <time>2018-03-05T18:10:20Z</time>
      </trkpt>
      <trkpt lat="62.634136502522" lon="17.964902884499">
        <ele>66.2</ele>
        <time>2018-03-05T18:10:21Z</time>
      </trkpt>
      <trkpt lat="62.634113619935" lon="17.964901040481">
        <ele>66.2</ele>
        <time>2018-03-05T18:10:22Z</time>
      </trkpt>
      <trkpt lat="62.634085792027" lon="17.964898358273">
        <ele>66.2</ele>
        <time>2018-03-05T18:10:23Z</time>
      </trkpt>
      <trkpt lat="62.634059975775" lon="17.964898693549">
        <ele>66.2</ele>
        <time>2018-03-05T18:10:24Z</time>
      </trkpt>
      <trkpt lat="62.634029800935" lon="17.964901375757">
        <ele>66.4</ele>
        <time>2018-03-05T18:10:25Z</time>
      </trkpt>
      <trkpt lat="62.634002475941" lon="17.964903135956">
        <ele>66.4</ele>
        <time>2018-03-05T18:10:26Z</time>
      </trkpt>
      <trkpt lat="62.633977916974" lon="17.964905231431">
        <ele>66.4</ele>
        <time>2018-03-05T18:10:27Z</time>
      </trkpt>
      <trkpt lat="62.633949167057" lon="17.964910428209">
        <ele>66.4</ele>
        <time>2018-03-05T18:10:28Z</time>
      </trkpt>
      <trkpt lat="62.633929050497" lon="17.964917636643">
        <ele>66.4</ele>
        <time>2018-03-05T18:10:29Z</time>
      </trkpt>
      <trkpt lat="62.633904407711" lon="17.964935741547">
        <ele>66.6</ele>
        <time>2018-03-05T18:10:30Z</time>
      </trkpt>
      <trkpt lat="62.633889907024" lon="17.964977902504">
        <ele>66.6</ele>
        <time>2018-03-05T18:10:31Z</time>
      </trkpt>
      <trkpt lat="62.633874651966" lon="17.965020566375">
        <ele>66.6</ele>
        <time>2018-03-05T18:10:32Z</time>
      </trkpt>
      <trkpt lat="62.633863923134" lon="17.96507546782">
        <ele>66.8</ele>
        <time>2018-03-05T18:10:33Z</time>
      </trkpt>
      <trkpt lat="62.633858474899" lon="17.965120478623">
        <ele>67.2</ele>
        <time>2018-03-05T18:10:34Z</time>
      </trkpt>
      <trkpt lat="62.63385503832" lon="17.965173116955">
        <ele>67.2</ele>
        <time>2018-03-05T18:10:35Z</time>
      </trkpt>
      <trkpt lat="62.633854870682" lon="17.965219971776">
        <ele>67.4</ele>
        <time>2018-03-05T18:10:36Z</time>
      </trkpt>
      <trkpt lat="62.633854619225" lon="17.965270346995">
        <ele>67.6</ele>
        <time>2018-03-05T18:10:37Z</time>
      </trkpt>
      <trkpt lat="62.633856044148" lon="17.96531938111">
        <ele>67.8</ele>
        <time>2018-03-05T18:10:38Z</time>
      </trkpt>
      <trkpt lat="62.633857888166" lon="17.965371851804">
        <ele>68</ele>
        <time>2018-03-05T18:10:39Z</time>
      </trkpt>
      <trkpt lat="62.633860821831" lon="17.9654208021">
        <ele>68.2</ele>
        <time>2018-03-05T18:10:40Z</time>
      </trkpt>
      <trkpt lat="62.633863252582" lon="17.965466399636">
        <ele>68.4</ele>
        <time>2018-03-05T18:10:41Z</time>
      </trkpt>
      <trkpt lat="62.633856295605" lon="17.965519289425">
        <ele>68.6</ele>
        <time>2018-03-05T18:10:42Z</time>
      </trkpt>
      <trkpt lat="62.633851853198" lon="17.965570502834">
        <ele>68.8</ele>
        <time>2018-03-05T18:10:43Z</time>
      </trkpt>
      <trkpt lat="62.633842716927" lon="17.965624398451">
        <ele>69</ele>
        <time>2018-03-05T18:10:44Z</time>
      </trkpt>
      <trkpt lat="62.633837268692" lon="17.96566974453">
        <ele>69</ele>
        <time>2018-03-05T18:10:45Z</time>
      </trkpt>
      <trkpt lat="62.633831569" lon="17.96571835955">
        <ele>69.2</ele>
        <time>2018-03-05T18:10:46Z</time>
      </trkpt>
      <trkpt lat="62.633830395534" lon="17.965762029249">
        <ele>69.2</ele>
        <time>2018-03-05T18:10:47Z</time>
      </trkpt>
      <trkpt lat="62.633826875136" lon="17.965816930694">
        <ele>69.4</ele>
        <time>2018-03-05T18:10:48Z</time>
      </trkpt>
      <trkpt lat="62.633825114937" lon="17.965861438583">
        <ele>69.6</ele>
        <time>2018-03-05T18:10:49Z</time>
      </trkpt>
      <trkpt lat="62.633823606195" lon="17.965919944245">
        <ele>69.8</ele>
        <time>2018-03-05T18:10:50Z</time>
      </trkpt>
      <trkpt lat="62.633820588711" lon="17.965976186794">
        <ele>69.8</ele>
        <time>2018-03-05T18:10:51Z</time>
      </trkpt>
      <trkpt lat="62.63381731977" lon="17.966020778502">
        <ele>70.2</ele>
        <time>2018-03-05T18:10:52Z</time>
      </trkpt>
      <trkpt lat="62.633811536259" lon="17.966074506481">
        <ele>70.4</ele>
        <time>2018-03-05T18:10:53Z</time>
      </trkpt>
      <trkpt lat="62.633803321997" lon="17.966127899184">
        <ele>70.6</ele>
        <time>2018-03-05T18:10:54Z</time>
      </trkpt>
      <trkpt lat="62.633795359192" lon="17.966177352394">
        <ele>70.8</ele>
        <time>2018-03-05T18:10:55Z</time>
      </trkpt>
      <trkpt lat="62.633781109962" lon="17.966220602998">
        <ele>71</ele>
        <time>2018-03-05T18:10:56Z</time>
      </trkpt>
      <trkpt lat="62.63376870475" lon="17.966254130598">
        <ele>71.2</ele>
        <time>2018-03-05T18:10:57Z</time>
      </trkpt>
      <trkpt lat="62.633748085276" lon="17.966281874687">
        <ele>71.4</ele>
        <time>2018-03-05T18:10:58Z</time>
      </trkpt>
      <trkpt lat="62.633725537965" lon="17.966299728134">
        <ele>71.6</ele>
        <time>2018-03-05T18:10:59Z</time>
      </trkpt>
      <trkpt lat="62.633701565731" lon="17.966321772531">
        <ele>71.6</ele>
        <time>2018-03-05T18:11:00Z</time>
      </trkpt>
      <trkpt lat="62.633674156918" lon="17.966339039245">
        <ele>71.8</ele>
        <time>2018-03-05T18:11:01Z</time>
      </trkpt>
      <trkpt lat="62.6336471672" lon="17.966350270991">
        <ele>72</ele>
        <time>2018-03-05T18:11:02Z</time>
      </trkpt>
      <trkpt lat="62.633617579093" lon="17.966352785561">
        <ele>72</ele>
        <time>2018-03-05T18:11:03Z</time>
      </trkpt>
      <trkpt lat="62.63359184666" lon="17.966349768077">
        <ele>72</ele>
        <time>2018-03-05T18:11:04Z</time>
      </trkpt>
      <trkpt lat="62.633565778951" lon="17.966350270991">
        <ele>72.2</ele>
        <time>2018-03-05T18:11:05Z</time>
      </trkpt>
      <trkpt lat="62.63353568793" lon="17.966352785561">
        <ele>72.2</ele>
        <time>2018-03-05T18:11:06Z</time>
      </trkpt>
      <trkpt lat="62.633510877506" lon="17.966355970683">
        <ele>72.4</ele>
        <time>2018-03-05T18:11:07Z</time>
      </trkpt>
      <trkpt lat="62.633485899444" lon="17.96636460404">
        <ele>72.2</ele>
        <time>2018-03-05T18:11:08Z</time>
      </trkpt>
      <trkpt lat="62.633459328821" lon="17.966365023135">
        <ele>72.2</ele>
        <time>2018-03-05T18:11:09Z</time>
      </trkpt>
      <trkpt lat="62.633435356587" lon="17.966364184945">
        <ele>72.2</ele>
        <time>2018-03-05T18:11:10Z</time>
      </trkpt>
      <trkpt lat="62.633412222543" lon="17.966362676203">
        <ele>72.2</ele>
        <time>2018-03-05T18:11:11Z</time>
      </trkpt>
      <trkpt lat="62.63338649011" lon="17.966361083642">
        <ele>72</ele>
        <time>2018-03-05T18:11:12Z</time>
      </trkpt>
      <trkpt lat="62.633358326926" lon="17.966365190773">
        <ele>72</ele>
        <time>2018-03-05T18:11:13Z</time>
      </trkpt>
      <trkpt lat="62.633330247561" lon="17.966365777506">
        <ele>72</ele>
        <time>2018-03-05T18:11:14Z</time>
      </trkpt>
      <trkpt lat="62.633302754929" lon="17.966365693687">
        <ele>71.8</ele>
        <time>2018-03-05T18:11:15Z</time>
      </trkpt>
      <trkpt lat="62.633276016668" lon="17.966369884637">
        <ele>71.8</ele>
        <time>2018-03-05T18:11:16Z</time>
      </trkpt>
      <trkpt lat="62.633250032778" lon="17.966370219913">
        <ele>71.8</ele>
        <time>2018-03-05T18:11:17Z</time>
      </trkpt>
      <trkpt lat="62.633222372508" lon="17.966373488854">
        <ele>71.6</ele>
        <time>2018-03-05T18:11:18Z</time>
      </trkpt>
      <trkpt lat="62.633197226808" lon="17.966373321216">
        <ele>71.8</ele>
        <time>2018-03-05T18:11:19Z</time>
      </trkpt>
      <trkpt lat="62.633170153271" lon="17.96636879499">
        <ele>71.6</ele>
        <time>2018-03-05T18:11:20Z</time>
      </trkpt>
      <trkpt lat="62.633145510485" lon="17.966372063931">
        <ele>71.4</ele>
        <time>2018-03-05T18:11:21Z</time>
      </trkpt>
      <trkpt lat="62.633117514939" lon="17.966375332872">
        <ele>71.6</ele>
        <time>2018-03-05T18:11:22Z</time>
      </trkpt>
      <trkpt lat="62.633091111954" lon="17.966377093071">
        <ele>71.6</ele>
        <time>2018-03-05T18:11:23Z</time>
      </trkpt>
      <trkpt lat="62.633065295702" lon="17.966373907949">
        <ele>71.2</ele>
        <time>2018-03-05T18:11:24Z</time>
      </trkpt>
      <trkpt lat="62.633038892717" lon="17.966371477198">
        <ele>71.2</ele>
        <time>2018-03-05T18:11:25Z</time>
      </trkpt>
      <trkpt lat="62.633012992646" lon="17.966372231569">
        <ele>71.4</ele>
        <time>2018-03-05T18:11:26Z</time>
      </trkpt>
      <trkpt lat="62.632987260213" lon="17.966370387551">
        <ele>71.2</ele>
        <time>2018-03-05T18:11:27Z</time>
      </trkpt>
      <trkpt lat="62.632958258839" lon="17.966371812474">
        <ele>71</ele>
        <time>2018-03-05T18:11:28Z</time>
      </trkpt>
      <trkpt lat="62.632933951329" lon="17.966373656492">
        <ele>71</ele>
        <time>2018-03-05T18:11:29Z</time>
      </trkpt>
      <trkpt lat="62.632904949955" lon="17.966373740311">
        <ele>71</ele>
        <time>2018-03-05T18:11:30Z</time>
      </trkpt>
      <trkpt lat="62.632881983549" lon="17.966374578501">
        <ele>71</ele>
        <time>2018-03-05T18:11:31Z</time>
      </trkpt>
      <trkpt lat="62.632856837849" lon="17.966378685632">
        <ele>70.8</ele>
        <time>2018-03-05T18:11:32Z</time>
      </trkpt>
      <trkpt lat="62.632828171751" lon="17.966378601813">
        <ele>70.6</ele>
        <time>2018-03-05T18:11:33Z</time>
      </trkpt>
      <trkpt lat="62.632804870069" lon="17.966377847442">
        <ele>70.6</ele>
        <time>2018-03-05T18:11:34Z</time>
      </trkpt>
      <trkpt lat="62.6327754496" lon="17.966372483026">
        <ele>70.6</ele>
        <time>2018-03-05T18:11:35Z</time>
      </trkpt>
      <trkpt lat="62.632749884805" lon="17.966370387551">
        <ele>70.4</ele>
        <time>2018-03-05T18:11:36Z</time>
      </trkpt>
      <trkpt lat="62.632725242019" lon="17.966370303732">
        <ele>70.6</ele>
        <time>2018-03-05T18:11:37Z</time>
      </trkpt>
      <trkpt lat="62.632692887885" lon="17.966366028963">
        <ele>70.4</ele>
        <time>2018-03-05T18:11:38Z</time>
      </trkpt>
      <trkpt lat="62.632669250927" lon="17.966362173289">
        <ele>70.2</ele>
        <time>2018-03-05T18:11:39Z</time>
      </trkpt>
      <trkpt lat="62.632643518494" lon="17.966356725054">
        <ele>70.2</ele>
        <time>2018-03-05T18:11:40Z</time>
      </trkpt>
      <trkpt lat="62.632617702242" lon="17.966349348982">
        <ele>70</ele>
        <time>2018-03-05T18:11:41Z</time>
      </trkpt>
      <trkpt lat="62.632592221266" lon="17.966346750593">
        <ele>69.8</ele>
        <time>2018-03-05T18:11:42Z</time>
      </trkpt>
      <trkpt lat="62.632565231548" lon="17.966338368693">
        <ele>69.8</ele>
        <time>2018-03-05T18:11:43Z</time>
      </trkpt>
      <trkpt lat="62.63253824183" lon="17.966332836639">
        <ele>69.8</ele>
        <time>2018-03-05T18:11:44Z</time>
      </trkpt>
      <trkpt lat="62.632511838845" lon="17.966328813327">
        <ele>69.6</ele>
        <time>2018-03-05T18:11:45Z</time>
      </trkpt>
      <trkpt lat="62.632486693145" lon="17.966323281273">
        <ele>69.4</ele>
        <time>2018-03-05T18:11:46Z</time>
      </trkpt>
      <trkpt lat="62.632463559101" lon="17.966314480278">
        <ele>69.4</ele>
        <time>2018-03-05T18:11:47Z</time>
      </trkpt>
      <trkpt lat="62.632432797528" lon="17.966306517473">
        <ele>69.2</ele>
        <time>2018-03-05T18:11:48Z</time>
      </trkpt>
      <trkpt lat="62.632407065095" lon="17.966295369546">
        <ele>69.2</ele>
        <time>2018-03-05T18:11:49Z</time>
      </trkpt>
      <trkpt lat="62.632379572463" lon="17.96629168151">
        <ele>69.2</ele>
        <time>2018-03-05T18:11:50Z</time>
      </trkpt>
      <trkpt lat="62.632353504754" lon="17.966288496388">
        <ele>69.2</ele>
        <time>2018-03-05T18:11:51Z</time>
      </trkpt>
      <trkpt lat="62.632329364882" lon="17.966289669854">
        <ele>69.2</ele>
        <time>2018-03-05T18:11:52Z</time>
      </trkpt>
      <trkpt lat="62.632305476467" lon="17.966294698994">
        <ele>69</ele>
        <time>2018-03-05T18:11:53Z</time>
      </trkpt>
      <trkpt lat="62.63228007931" lon="17.96631431264">
        <ele>69.2</ele>
        <time>2018-03-05T18:11:54Z</time>
      </trkpt>
      <trkpt lat="62.632255855619" lon="17.966347085869">
        <ele>69</ele>
        <time>2018-03-05T18:11:55Z</time>
      </trkpt>
      <trkpt lat="62.63224236076" lon="17.966395700889">
        <ele>69</ele>
        <time>2018-03-05T18:11:56Z</time>
      </trkpt>
      <trkpt lat="62.632231380471" lon="17.966442890986">
        <ele>69</ele>
        <time>2018-03-05T18:11:57Z</time>
      </trkpt>
      <trkpt lat="62.632223250028" lon="17.966491254549">
        <ele>69</ele>
        <time>2018-03-05T18:11:58Z</time>
      </trkpt>
      <trkpt lat="62.632218639983" lon="17.966538696103">
        <ele>68.8</ele>
        <time>2018-03-05T18:11:59Z</time>
      </trkpt>
      <trkpt lat="62.63221218592" lon="17.96658253344">
        <ele>68.8</ele>
        <time>2018-03-05T18:12:00Z</time>
      </trkpt>
      <trkpt lat="62.632210090445" lon="17.966624610578">
        <ele>68.8</ele>
        <time>2018-03-05T18:12:01Z</time>
      </trkpt>
      <trkpt lat="62.632204223115" lon="17.966665681888">
        <ele>69</ele>
        <time>2018-03-05T18:12:02Z</time>
      </trkpt>
      <trkpt lat="62.632199110156" lon="17.966714799822">
        <ele>69.2</ele>
        <time>2018-03-05T18:12:03Z</time>
      </trkpt>
      <trkpt lat="62.632195673577" lon="17.96675687696">
        <ele>69.4</ele>
        <time>2018-03-05T18:12:04Z</time>
      </trkpt>
      <trkpt lat="62.632189387152" lon="17.966805743437">
        <ele>69.6</ele>
        <time>2018-03-05T18:12:05Z</time>
      </trkpt>
      <trkpt lat="62.632186118211" lon="17.966848574946">
        <ele>70</ele>
        <time>2018-03-05T18:12:06Z</time>
      </trkpt>
      <trkpt lat="62.632182094899" lon="17.966890065351">
        <ele>70</ele>
        <time>2018-03-05T18:12:07Z</time>
      </trkpt>
      <trkpt lat="62.63217698194" lon="17.966934489421">
        <ele>70</ele>
        <time>2018-03-05T18:12:08Z</time>
      </trkpt>
      <trkpt lat="62.632175054103" lon="17.966974135808">
        <ele>70.2</ele>
        <time>2018-03-05T18:12:09Z</time>
      </trkpt>
      <trkpt lat="62.632170527877" lon="17.967020152439">
        <ele>70.4</ele>
        <time>2018-03-05T18:12:10Z</time>
      </trkpt>
      <trkpt lat="62.632164325271" lon="17.967061559025">
        <ele>70.4</ele>
        <time>2018-03-05T18:12:11Z</time>
      </trkpt>
      <trkpt lat="62.632159799045" lon="17.967097601195">
        <ele>70.4</ele>
        <time>2018-03-05T18:12:12Z</time>
      </trkpt>
      <trkpt lat="62.632153261163" lon="17.967141857627">
        <ele>70.6</ele>
        <time>2018-03-05T18:12:13Z</time>
      </trkpt>
      <trkpt lat="62.632145549815" lon="17.967182426023">
        <ele>70.8</ele>
        <time>2018-03-05T18:12:14Z</time>
      </trkpt>
      <trkpt lat="62.63214093977" lon="17.967220228392">
        <ele>71</ele>
        <time>2018-03-05T18:12:15Z</time>
      </trkpt>
      <trkpt lat="62.632129540386" lon="17.967267083213">
        <ele>71.2</ele>
        <time>2018-03-05T18:12:16Z</time>
      </trkpt>
      <trkpt lat="62.632121158486" lon="17.967299604985">
        <ele>71.4</ele>
        <time>2018-03-05T18:12:17Z</time>
      </trkpt>
      <trkpt lat="62.632110932568" lon="17.96734360996">
        <ele>71.8</ele>
        <time>2018-03-05T18:12:18Z</time>
      </trkpt>
      <trkpt lat="62.632097772985" lon="17.967381496148">
        <ele>71.8</ele>
        <time>2018-03-05T18:12:19Z</time>
      </trkpt>
      <trkpt lat="62.632087211791" lon="17.967421226354">
        <ele>72.2</ele>
        <time>2018-03-05T18:12:20Z</time>
      </trkpt>
      <trkpt lat="62.632075058036" lon="17.967462046207">
        <ele>72.4</ele>
        <time>2018-03-05T18:12:21Z</time>
      </trkpt>
      <trkpt lat="62.632062485186" lon="17.967496831092">
        <ele>72.6</ele>
        <time>2018-03-05T18:12:22Z</time>
      </trkpt>
      <trkpt lat="62.632052175449" lon="17.967534465823">
        <ele>72.8</ele>
        <time>2018-03-05T18:12:23Z</time>
      </trkpt>
      <trkpt lat="62.632039267323" lon="17.967578722255">
        <ele>73</ele>
        <time>2018-03-05T18:12:24Z</time>
      </trkpt>
      <trkpt lat="62.63202778412" lon="17.967612333674">
        <ele>73.2</ele>
        <time>2018-03-05T18:12:25Z</time>
      </trkpt>
      <trkpt lat="62.632016720012" lon="17.967650219862">
        <ele>73.4</ele>
        <time>2018-03-05T18:12:26Z</time>
      </trkpt>
      <trkpt lat="62.6320043148" lon="17.967692548457">
        <ele>73.4</ele>
        <time>2018-03-05T18:12:27Z</time>
      </trkpt>
      <trkpt lat="62.631992915416" lon="17.967737726898">
        <ele>73.8</ele>
        <time>2018-03-05T18:12:28Z</time>
      </trkpt>
      <trkpt lat="62.631981851308" lon="17.967774942534">
        <ele>73.8</ele>
        <time>2018-03-05T18:12:29Z</time>
      </trkpt>
      <trkpt lat="62.631966847707" lon="17.967816768215">
        <ele>74</ele>
        <time>2018-03-05T18:12:30Z</time>
      </trkpt>
      <trkpt lat="62.631956454151" lon="17.967852558928">
        <ele>74.2</ele>
        <time>2018-03-05T18:12:31Z</time>
      </trkpt>
      <trkpt lat="62.631942624016" lon="17.967890361297">
        <ele>74.4</ele>
        <time>2018-03-05T18:12:32Z</time>
      </trkpt>
      <trkpt lat="62.631931140813" lon="17.967927493114">
        <ele>74.6</ele>
        <time>2018-03-05T18:12:33Z</time>
      </trkpt>
      <trkpt lat="62.631919825248" lon="17.967960685438">
        <ele>74.6</ele>
        <time>2018-03-05T18:12:34Z</time>
      </trkpt>
      <trkpt lat="62.631905995113" lon="17.967998571626">
        <ele>74.8</ele>
        <time>2018-03-05T18:12:35Z</time>
      </trkpt>
      <trkpt lat="62.631896355928" lon="17.968035284348">
        <ele>75</ele>
        <time>2018-03-05T18:12:36Z</time>
      </trkpt>
      <trkpt lat="62.631886381467" lon="17.968071829432">
        <ele>75.2</ele>
        <time>2018-03-05T18:12:37Z</time>
      </trkpt>
      <trkpt lat="62.631871629323" lon="17.968110302353">
        <ele>75.2</ele>
        <time>2018-03-05T18:12:38Z</time>
      </trkpt>
      <trkpt lat="62.631861151948" lon="17.968142991763">
        <ele>75.4</ele>
        <time>2018-03-05T18:12:39Z</time>
      </trkpt>
      <trkpt lat="62.631848914374" lon="17.968182051417">
        <ele>75.6</ele>
        <time>2018-03-05T18:12:40Z</time>
      </trkpt>
      <trkpt lat="62.631837934085" lon="17.968217171578">
        <ele>76</ele>
        <time>2018-03-05T18:12:41Z</time>
      </trkpt>
      <trkpt lat="62.631825612692" lon="17.968250363902">
        <ele>76.2</ele>
        <time>2018-03-05T18:12:42Z</time>
      </trkpt>
      <trkpt lat="62.631809687082" lon="17.968285819339">
        <ele>76.4</ele>
        <time>2018-03-05T18:12:43Z</time>
      </trkpt>
      <trkpt lat="62.631797449508" lon="17.968320520405">
        <ele>76.6</ele>
        <time>2018-03-05T18:12:44Z</time>
      </trkpt>
      <trkpt lat="62.631783200278" lon="17.968361759353">
        <ele>77</ele>
        <time>2018-03-05T18:12:45Z</time>
      </trkpt>
      <trkpt lat="62.631770375971" lon="17.968399310265">
        <ele>77</ele>
        <time>2018-03-05T18:12:46Z</time>
      </trkpt>
      <trkpt lat="62.631762748442" lon="17.968432586408">
        <ele>77</ele>
        <time>2018-03-05T18:12:47Z</time>
      </trkpt>
      <trkpt lat="62.631749421221" lon="17.968480027962">
        <ele>77.4</ele>
        <time>2018-03-05T18:12:48Z</time>
      </trkpt>
      <trkpt lat="62.631741039321" lon="17.968514812847">
        <ele>77.6</ele>
        <time>2018-03-05T18:12:49Z</time>
      </trkpt>
      <trkpt lat="62.631726790091" lon="17.968558398727">
        <ele>77.8</ele>
        <time>2018-03-05T18:12:50Z</time>
      </trkpt>
      <trkpt lat="62.631715474526" lon="17.968597123105">
        <ele>78</ele>
        <time>2018-03-05T18:12:51Z</time>
      </trkpt>
      <trkpt lat="62.631706505893" lon="17.968632410904">
        <ele>78</ele>
        <time>2018-03-05T18:12:52Z</time>
      </trkpt>
      <trkpt lat="62.631693681586" lon="17.968676918793">
        <ele>78.2</ele>
        <time>2018-03-05T18:12:53Z</time>
      </trkpt>
      <trkpt lat="62.631685132048" lon="17.968716648999">
        <ele>78.4</ele>
        <time>2018-03-05T18:12:54Z</time>
      </trkpt>
      <trkpt lat="62.631681192555" lon="17.96875847468">
        <ele>78.4</ele>
        <time>2018-03-05T18:12:55Z</time>
      </trkpt>
      <trkpt lat="62.631674151759" lon="17.968806083872">
        <ele>78.4</ele>
        <time>2018-03-05T18:12:56Z</time>
      </trkpt>
      <trkpt lat="62.631670128447" lon="17.968844640612">
        <ele>78.8</ele>
        <time>2018-03-05T18:12:57Z</time>
      </trkpt>
      <trkpt lat="62.631669457895" lon="17.968900212609">
        <ele>79</ele>
        <time>2018-03-05T18:12:58Z</time>
      </trkpt>
      <trkpt lat="62.631670966637" lon="17.96894706743">
        <ele>79.4</ele>
        <time>2018-03-05T18:12:59Z</time>
      </trkpt>
      <trkpt lat="62.631675828139" lon="17.969001717418">
        <ele>79.6</ele>
        <time>2018-03-05T18:13:00Z</time>
      </trkpt>
      <trkpt lat="62.631680857279" lon="17.969047231135">
        <ele>79.8</ele>
        <time>2018-03-05T18:13:01Z</time>
      </trkpt>
      <trkpt lat="62.63168664079" lon="17.969088218626">
        <ele>80</ele>
        <time>2018-03-05T18:13:02Z</time>
      </trkpt>
      <trkpt lat="62.631697118165" lon="17.969129122298">
        <ele>80.4</ele>
        <time>2018-03-05T18:13:03Z</time>
      </trkpt>
      <trkpt lat="62.631705500065" lon="17.969165751201">
        <ele>80.6</ele>
        <time>2018-03-05T18:13:04Z</time>
      </trkpt>
      <trkpt lat="62.631715893621" lon="17.96920439176">
        <ele>80.8</ele>
        <time>2018-03-05T18:13:05Z</time>
      </trkpt>
      <trkpt lat="62.631723102055" lon="17.969240853025">
        <ele>80.8</ele>
        <time>2018-03-05T18:13:06Z</time>
      </trkpt>
      <trkpt lat="62.631732573602" lon="17.969292485529">
        <ele>81</ele>
        <time>2018-03-05T18:13:07Z</time>
      </trkpt>
      <trkpt lat="62.631738943846" lon="17.96933598759">
        <ele>81.2</ele>
        <time>2018-03-05T18:13:08Z</time>
      </trkpt>
      <trkpt lat="62.631748499212" lon="17.96937622071">
        <ele>81.4</ele>
        <time>2018-03-05T18:13:09Z</time>
      </trkpt>
      <trkpt lat="62.631760652967" lon="17.969416789106">
        <ele>81.4</ele>
        <time>2018-03-05T18:13:10Z</time>
      </trkpt>
      <trkpt lat="62.631770375971" lon="17.969446209575">
        <ele>81.6</ele>
        <time>2018-03-05T18:13:11Z</time>
      </trkpt>
      <trkpt lat="62.631785798667" lon="17.96947512713">
        <ele>81.8</ele>
        <time>2018-03-05T18:13:12Z</time>
      </trkpt>
      <trkpt lat="62.631804657942" lon="17.969507900359">
        <ele>82</ele>
        <time>2018-03-05T18:13:13Z</time>
      </trkpt>
      <trkpt lat="62.631820499733" lon="17.969530531489">
        <ele>82</ele>
        <time>2018-03-05T18:13:14Z</time>
      </trkpt>
      <trkpt lat="62.631838185542" lon="17.969549893678">
        <ele>82.2</ele>
        <time>2018-03-05T18:13:15Z</time>
      </trkpt>
      <trkpt lat="62.631856877179" lon="17.969567579487">
        <ele>82.4</ele>
        <time>2018-03-05T18:13:16Z</time>
      </trkpt>
      <trkpt lat="62.631873221884" lon="17.969576967215">
        <ele>82.6</ele>
        <time>2018-03-05T18:13:17Z</time>
      </trkpt>
      <trkpt lat="62.631898870498" lon="17.969590042979">
        <ele>82.8</ele>
        <time>2018-03-05T18:13:18Z</time>
      </trkpt>
      <trkpt lat="62.631920831076" lon="17.969596329404">
        <ele>83</ele>
        <time>2018-03-05T18:13:19Z</time>
      </trkpt>
      <trkpt lat="62.631942372559" lon="17.96960001744">
        <ele>83.2</ele>
        <time>2018-03-05T18:13:20Z</time>
      </trkpt>
      <trkpt lat="62.631964752232" lon="17.969604459847">
        <ele>83.4</ele>
        <time>2018-03-05T18:13:21Z</time>
      </trkpt>
      <trkpt lat="62.631984282059" lon="17.969607393512">
        <ele>83.4</ele>
        <time>2018-03-05T18:13:22Z</time>
      </trkpt>
      <trkpt lat="62.632003895705" lon="17.969601777639">
        <ele>83.6</ele>
        <time>2018-03-05T18:13:23Z</time>
      </trkpt>
      <trkpt lat="62.632025688645" lon="17.969598173422">
        <ele>83.6</ele>
        <time>2018-03-05T18:13:24Z</time>
      </trkpt>
      <trkpt lat="62.632047146309" lon="17.969592892825">
        <ele>83.6</ele>
        <time>2018-03-05T18:13:25Z</time>
      </trkpt>
      <trkpt lat="62.632066592317" lon="17.969587863685">
        <ele>83.8</ele>
        <time>2018-03-05T18:13:26Z</time>
      </trkpt>
      <trkpt lat="62.632091151284" lon="17.969577134853">
        <ele>83.8</ele>
        <time>2018-03-05T18:13:27Z</time>
      </trkpt>
      <trkpt lat="62.632115710251" lon="17.969571267523">
        <ele>83.8</ele>
        <time>2018-03-05T18:13:28Z</time>
      </trkpt>
      <trkpt lat="62.632134904802" lon="17.969563220899">
        <ele>84</ele>
        <time>2018-03-05T18:13:29Z</time>
      </trkpt>
      <trkpt lat="62.632161140149" lon="17.96955643156">
        <ele>84</ele>
        <time>2018-03-05T18:13:30Z</time>
      </trkpt>
      <trkpt lat="62.632186453487" lon="17.969552827343">
        <ele>84</ele>
        <time>2018-03-05T18:13:31Z</time>
      </trkpt>
      <trkpt lat="62.632208246427" lon="17.969549223126">
        <ele>84</ele>
        <time>2018-03-05T18:13:32Z</time>
      </trkpt>
      <trkpt lat="62.632232889213" lon="17.969538745751">
        <ele>84</ele>
        <time>2018-03-05T18:13:33Z</time>
      </trkpt>
      <trkpt lat="62.632253508687" lon="17.969531537317">
        <ele>84</ele>
        <time>2018-03-05T18:13:34Z</time>
      </trkpt>
      <trkpt lat="62.632275804541" lon="17.969521562856">
        <ele>84</ele>
        <time>2018-03-05T18:13:35Z</time>
      </trkpt>
      <trkpt lat="62.632300614965" lon="17.969518545372">
        <ele>84</ele>
        <time>2018-03-05T18:13:36Z</time>
      </trkpt>
      <trkpt lat="62.632317546403" lon="17.969518545372">
        <ele>84</ele>
        <time>2018-03-05T18:13:37Z</time>
      </trkpt>
      <trkpt lat="62.632340512809" lon="17.969515444069">
        <ele>84</ele>
        <time>2018-03-05T18:13:38Z</time>
      </trkpt>
      <trkpt lat="62.632362054292" lon="17.969519635019">
        <ele>84</ele>
        <time>2018-03-05T18:13:39Z</time>
      </trkpt>
      <trkpt lat="62.632385775069" lon="17.969517707182">
        <ele>83.8</ele>
        <time>2018-03-05T18:13:40Z</time>
      </trkpt>
      <trkpt lat="62.632406310724" lon="17.969516449897">
        <ele>84</ele>
        <time>2018-03-05T18:13:41Z</time>
      </trkpt>
      <trkpt lat="62.632430618234" lon="17.969521981951">
        <ele>84</ele>
        <time>2018-03-05T18:13:42Z</time>
      </trkpt>
      <trkpt lat="62.632457440314" lon="17.969522233408">
        <ele>84</ele>
        <time>2018-03-05T18:13:43Z</time>
      </trkpt>
      <trkpt lat="62.632481161091" lon="17.969524077426">
        <ele>84.2</ele>
        <time>2018-03-05T18:13:44Z</time>
      </trkpt>
      <trkpt lat="62.632504127497" lon="17.969533213697">
        <ele>84.2</ele>
        <time>2018-03-05T18:13:45Z</time>
      </trkpt>
      <trkpt lat="62.632528518826" lon="17.969538913389">
        <ele>84</ele>
        <time>2018-03-05T18:13:46Z</time>
      </trkpt>
      <trkpt lat="62.632554251259" lon="17.969536650276">
        <ele>84.2</ele>
        <time>2018-03-05T18:13:47Z</time>
      </trkpt>
      <trkpt lat="62.632588114135" lon="17.969536231181">
        <ele>84.2</ele>
        <time>2018-03-05T18:13:48Z</time>
      </trkpt>
      <trkpt lat="62.632613930387" lon="17.969535560629">
        <ele>84</ele>
        <time>2018-03-05T18:13:49Z</time>
      </trkpt>
      <trkpt lat="62.632641674476" lon="17.969535141534">
        <ele>84.2</ele>
        <time>2018-03-05T18:13:50Z</time>
      </trkpt>
      <trkpt lat="62.632667658366" lon="17.969537572285">
        <ele>84.4</ele>
        <time>2018-03-05T18:13:51Z</time>
      </trkpt>
      <trkpt lat="62.632690457134" lon="17.969539500122">
        <ele>84.2</ele>
        <time>2018-03-05T18:13:52Z</time>
      </trkpt>
      <trkpt lat="62.632716105748" lon="17.969545702728">
        <ele>84.2</ele>
        <time>2018-03-05T18:13:53Z</time>
      </trkpt>
      <trkpt lat="62.632741838181" lon="17.96954804966">
        <ele>84.4</ele>
        <time>2018-03-05T18:13:54Z</time>
      </trkpt>
      <trkpt lat="62.632765810415" lon="17.969548720212">
        <ele>84.4</ele>
        <time>2018-03-05T18:13:55Z</time>
      </trkpt>
      <trkpt lat="62.632788441545" lon="17.969549893678">
        <ele>84.2</ele>
        <time>2018-03-05T18:13:56Z</time>
      </trkpt>
      <trkpt lat="62.632809647752" lon="17.969548468755">
        <ele>84.2</ele>
        <time>2018-03-05T18:13:57Z</time>
      </trkpt>
      <trkpt lat="62.632837643298" lon="17.969556683017">
        <ele>84.4</ele>
        <time>2018-03-05T18:13:58Z</time>
      </trkpt>
      <trkpt lat="62.6328592686" lon="17.969557605026">
        <ele>84.4</ele>
        <time>2018-03-05T18:13:59Z</time>
      </trkpt>
      <trkpt lat="62.632882821739" lon="17.969558694673">
        <ele>84.4</ele>
        <time>2018-03-05T18:14:00Z</time>
      </trkpt>
      <trkpt lat="62.632909811457" lon="17.96956229889">
        <ele>84.6</ele>
        <time>2018-03-05T18:14:01Z</time>
      </trkpt>
      <trkpt lat="62.632932526406" lon="17.969564226727">
        <ele>84.8</ele>
        <time>2018-03-05T18:14:02Z</time>
      </trkpt>
      <trkpt lat="62.632958426477" lon="17.969568417677">
        <ele>84.8</ele>
        <time>2018-03-05T18:14:03Z</time>
      </trkpt>
      <trkpt lat="62.632982314892" lon="17.969572189532">
        <ele>85</ele>
        <time>2018-03-05T18:14:04Z</time>
      </trkpt>
      <trkpt lat="62.633006119488" lon="17.969578811233">
        <ele>84.8</ele>
        <time>2018-03-05T18:14:05Z</time>
      </trkpt>
      <trkpt lat="62.633029924084" lon="17.969585852029">
        <ele>85</ele>
        <time>2018-03-05T18:14:06Z</time>
      </trkpt>
      <trkpt lat="62.633052974309" lon="17.969593898653">
        <ele>85.2</ele>
        <time>2018-03-05T18:14:07Z</time>
      </trkpt>
      <trkpt lat="62.633084322615" lon="17.969604711304">
        <ele>85.2</ele>
        <time>2018-03-05T18:14:08Z</time>
      </trkpt>
      <trkpt lat="62.63310653465" lon="17.969611165367">
        <ele>85.2</ele>
        <time>2018-03-05T18:14:09Z</time>
      </trkpt>
      <trkpt lat="62.633136625671" lon="17.969621307466">
        <ele>85.4</ele>
        <time>2018-03-05T18:14:10Z</time>
      </trkpt>
      <trkpt lat="62.633157328964" lon="17.969625246959">
        <ele>85.2</ele>
        <time>2018-03-05T18:14:11Z</time>
      </trkpt>
      <trkpt lat="62.633183312854" lon="17.969634215592">
        <ele>85.2</ele>
        <time>2018-03-05T18:14:12Z</time>
      </trkpt>
      <trkpt lat="62.633208458554" lon="17.96964863246">
        <ele>85.4</ele>
        <time>2018-03-05T18:14:13Z</time>
      </trkpt>
      <trkpt lat="62.633230335313" lon="17.969659277473">
        <ele>85.4</ele>
        <time>2018-03-05T18:14:14Z</time>
      </trkpt>
      <trkpt lat="62.633251876796" lon="17.969682327698">
        <ele>85.4</ele>
        <time>2018-03-05T18:14:15Z</time>
      </trkpt>
      <trkpt lat="62.633276268125" lon="17.969702192801">
        <ele>85.6</ele>
        <time>2018-03-05T18:14:16Z</time>
      </trkpt>
      <trkpt lat="62.633292529011" lon="17.969723734284">
        <ele>85.6</ele>
        <time>2018-03-05T18:14:17Z</time>
      </trkpt>
      <trkpt lat="62.633308286983" lon="17.969772936037">
        <ele>85.6</ele>
        <time>2018-03-05T18:14:18Z</time>
      </trkpt>
      <trkpt lat="62.633319099634" lon="17.969817443926">
        <ele>85.8</ele>
        <time>2018-03-05T18:14:19Z</time>
      </trkpt>
      <trkpt lat="62.633333600321" lon="17.969852899363">
        <ele>85.6</ele>
        <time>2018-03-05T18:14:20Z</time>
      </trkpt>
      <trkpt lat="62.633341814583" lon="17.969900760012">
        <ele>85.6</ele>
        <time>2018-03-05T18:14:21Z</time>
      </trkpt>
      <trkpt lat="62.633344496791" lon="17.969942920969">
        <ele>85.6</ele>
        <time>2018-03-05T18:14:22Z</time>
      </trkpt>
      <trkpt lat="62.633343071868" lon="17.969993715283">
        <ele>85.6</ele>
        <time>2018-03-05T18:14:23Z</time>
      </trkpt>
      <trkpt lat="62.633341730764" lon="17.970052891497">
        <ele>85.6</ele>
        <time>2018-03-05T18:14:24Z</time>
      </trkpt>
      <trkpt lat="62.633344329153" lon="17.970098991947">
        <ele>85.8</ele>
        <time>2018-03-05T18:14:25Z</time>
      </trkpt>
      <trkpt lat="62.633347849551" lon="17.970157162333">
        <ele>85.8</ele>
        <time>2018-03-05T18:14:26Z</time>
      </trkpt>
      <trkpt lat="62.633350950854" lon="17.970205022982">
        <ele>86</ele>
        <time>2018-03-05T18:14:27Z</time>
      </trkpt>
      <trkpt lat="62.633355979994" lon="17.970256236391">
        <ele>86.2</ele>
        <time>2018-03-05T18:14:28Z</time>
      </trkpt>
      <trkpt lat="62.633362266419" lon="17.970315244967">
        <ele>86.4</ele>
        <time>2018-03-05T18:14:29Z</time>
      </trkpt>
      <trkpt lat="62.633368804301" lon="17.970366039281">
        <ele>86.4</ele>
        <time>2018-03-05T18:14:30Z</time>
      </trkpt>
      <trkpt lat="62.633374503993" lon="17.970417587966">
        <ele>86.6</ele>
        <time>2018-03-05T18:14:31Z</time>
      </trkpt>
      <trkpt lat="62.63338062278" lon="17.970472740868">
        <ele>87</ele>
        <time>2018-03-05T18:14:32Z</time>
      </trkpt>
      <trkpt lat="62.633387076843" lon="17.970523619001">
        <ele>87</ele>
        <time>2018-03-05T18:14:33Z</time>
      </trkpt>
      <trkpt lat="62.633390178146" lon="17.970580783559">
        <ele>87</ele>
        <time>2018-03-05T18:14:34Z</time>
      </trkpt>
      <trkpt lat="62.63339235744" lon="17.970626967828">
        <ele>87.4</ele>
        <time>2018-03-05T18:14:35Z</time>
      </trkpt>
      <trkpt lat="62.633395374924" lon="17.970677175409">
        <ele>87.4</ele>
        <time>2018-03-05T18:14:36Z</time>
      </trkpt>
      <trkpt lat="62.633391686888" lon="17.97073073575">
        <ele>87.4</ele>
        <time>2018-03-05T18:14:37Z</time>
      </trkpt>
      <trkpt lat="62.633391603069" lon="17.970785134281">
        <ele>87.6</ele>
        <time>2018-03-05T18:14:38Z</time>
      </trkpt>
      <trkpt lat="62.633395458743" lon="17.970830396541">
        <ele>87.6</ele>
        <time>2018-03-05T18:14:39Z</time>
      </trkpt>
      <trkpt lat="62.633394620553" lon="17.970879263018">
        <ele>87.8</ele>
        <time>2018-03-05T18:14:40Z</time>
      </trkpt>
      <trkpt lat="62.633395291105" lon="17.970926536934">
        <ele>87.8</ele>
        <time>2018-03-05T18:14:41Z</time>
      </trkpt>
      <trkpt lat="62.633391938345" lon="17.970976660696">
        <ele>88</ele>
        <time>2018-03-05T18:14:42Z</time>
      </trkpt>
      <trkpt lat="62.633392776535" lon="17.97103835148">
        <ele>88</ele>
        <time>2018-03-05T18:14:43Z</time>
      </trkpt>
      <trkpt lat="62.633393447087" lon="17.971080344799">
        <ele>88.2</ele>
        <time>2018-03-05T18:14:44Z</time>
      </trkpt>
      <trkpt lat="62.633395458743" lon="17.971132144941">
        <ele>88.2</ele>
        <time>2018-03-05T18:14:45Z</time>
      </trkpt>
      <trkpt lat="62.63339654839" lon="17.971184867092">
        <ele>88.2</ele>
        <time>2018-03-05T18:14:46Z</time>
      </trkpt>
      <trkpt lat="62.633396632209" lon="17.971225016393">
        <ele>88.4</ele>
        <time>2018-03-05T18:14:47Z</time>
      </trkpt>
      <trkpt lat="62.633393866182" lon="17.971282935322">
        <ele>88.4</ele>
        <time>2018-03-05T18:14:48Z</time>
      </trkpt>
      <trkpt lat="62.633391267793" lon="17.971331550342">
        <ele>88.4</ele>
        <time>2018-03-05T18:14:49Z</time>
      </trkpt>
      <trkpt lat="62.633393614725" lon="17.971376812602">
        <ele>88.6</ele>
        <time>2018-03-05T18:14:50Z</time>
      </trkpt>
      <trkpt lat="62.633392860354" lon="17.971430875857">
        <ele>88.8</ele>
        <time>2018-03-05T18:14:51Z</time>
      </trkpt>
      <trkpt lat="62.633388334128" lon="17.971473036814">
        <ele>88.8</ele>
        <time>2018-03-05T18:14:52Z</time>
      </trkpt>
      <trkpt lat="62.633386741567" lon="17.971520143092">
        <ele>89</ele>
        <time>2018-03-05T18:14:53Z</time>
      </trkpt>
      <trkpt lat="62.633382969712" lon="17.971575798908">
        <ele>89</ele>
        <time>2018-03-05T18:14:54Z</time>
      </trkpt>
      <trkpt lat="62.633378359667" lon="17.971621983177">
        <ele>89.2</ele>
        <time>2018-03-05T18:14:55Z</time>
      </trkpt>
      <trkpt lat="62.633375006907" lon="17.971662551573">
        <ele>89.2</ele>
        <time>2018-03-05T18:14:56Z</time>
      </trkpt>
      <trkpt lat="62.633372324699" lon="17.971715106086">
        <ele>89.2</ele>
        <time>2018-03-05T18:14:57Z</time>
      </trkpt>
      <trkpt lat="62.6333705645" lon="17.971767995875">
        <ele>89.2</ele>
        <time>2018-03-05T18:14:58Z</time>
      </trkpt>
      <trkpt lat="62.633366876464" lon="17.971813928687">
        <ele>89.2</ele>
        <time>2018-03-05T18:14:59Z</time>
      </trkpt>
      <trkpt lat="62.633364361894" lon="17.971870757969">
        <ele>89.2</ele>
        <time>2018-03-05T18:15:00Z</time>
      </trkpt>
      <trkpt lat="62.633364948627" lon="17.971918953894">
        <ele>89.4</ele>
        <time>2018-03-05T18:15:01Z</time>
      </trkpt>
      <trkpt lat="62.633360170944" lon="17.971973352425">
        <ele>89.6</ele>
        <time>2018-03-05T18:15:02Z</time>
      </trkpt>
      <trkpt lat="62.633353381605" lon="17.972026326033">
        <ele>89.6</ele>
        <time>2018-03-05T18:15:03Z</time>
      </trkpt>
      <trkpt lat="62.633346424628" lon="17.972073432311">
        <ele>89.6</ele>
        <time>2018-03-05T18:15:04Z</time>
      </trkpt>
      <trkpt lat="62.633340976393" lon="17.972121544417">
        <ele>89.8</ele>
        <time>2018-03-05T18:15:05Z</time>
      </trkpt>
      <trkpt lat="62.633335611977" lon="17.972170075618">
        <ele>90</ele>
        <time>2018-03-05T18:15:06Z</time>
      </trkpt>
      <trkpt lat="62.633329660828" lon="17.972212404213">
        <ele>89.8</ele>
        <time>2018-03-05T18:15:07Z</time>
      </trkpt>
      <trkpt lat="62.633319770186" lon="17.972256073912">
        <ele>90</ele>
        <time>2018-03-05T18:15:08Z</time>
      </trkpt>
      <trkpt lat="62.633315998331" lon="17.972298570145">
        <ele>90</ele>
        <time>2018-03-05T18:15:09Z</time>
      </trkpt>
      <trkpt lat="62.633306610603" lon="17.972341904568">
        <ele>90.2</ele>
        <time>2018-03-05T18:15:10Z</time>
      </trkpt>
      <trkpt lat="62.633298228703" lon="17.972381634774">
        <ele>90.2</ele>
        <time>2018-03-05T18:15:11Z</time>
      </trkpt>
      <trkpt lat="62.633290517355" lon="17.972427064672">
        <ele>90.2</ele>
        <time>2018-03-05T18:15:12Z</time>
      </trkpt>
      <trkpt lat="62.633281883998" lon="17.972479283909">
        <ele>90.4</ele>
        <time>2018-03-05T18:15:13Z</time>
      </trkpt>
      <trkpt lat="62.633270400795" lon="17.972523959436">
        <ele>90.4</ele>
        <time>2018-03-05T18:15:14Z</time>
      </trkpt>
      <trkpt lat="62.633262354171" lon="17.972565952755">
        <ele>90.6</ele>
        <time>2018-03-05T18:15:15Z</time>
      </trkpt>
      <trkpt lat="62.633254223728" lon="17.972614483956">
        <ele>90.6</ele>
        <time>2018-03-05T18:15:16Z</time>
      </trkpt>
      <trkpt lat="62.633249278407" lon="17.972649939393">
        <ele>90.8</ele>
        <time>2018-03-05T18:15:17Z</time>
      </trkpt>
      <trkpt lat="62.633239136308" lon="17.97270215863">
        <ele>91</ele>
        <time>2018-03-05T18:15:18Z</time>
      </trkpt>
      <trkpt lat="62.6332280722" lon="17.972750103098">
        <ele>90.8</ele>
        <time>2018-03-05T18:15:19Z</time>
      </trkpt>
      <trkpt lat="62.633223378336" lon="17.972796287367">
        <ele>91</ele>
        <time>2018-03-05T18:15:20Z</time>
      </trkpt>
      <trkpt lat="62.63321466116" lon="17.972848255147">
        <ele>91.2</ele>
        <time>2018-03-05T18:15:21Z</time>
      </trkpt>
      <trkpt lat="62.633206782174" lon="17.972893768864">
        <ele>91.2</ele>
        <time>2018-03-05T18:15:22Z</time>
      </trkpt>
      <trkpt lat="62.633198316455" lon="17.972930816862">
        <ele>91.2</ele>
        <time>2018-03-05T18:15:23Z</time>
      </trkpt>
      <trkpt lat="62.633185995062" lon="17.972981527357">
        <ele>91.4</ele>
        <time>2018-03-05T18:15:24Z</time>
      </trkpt>
      <trkpt lat="62.633178199895" lon="17.973025197056">
        <ele>91.4</ele>
        <time>2018-03-05T18:15:25Z</time>
      </trkpt>
      <trkpt lat="62.633169734176" lon="17.973064089072">
        <ele>91.4</ele>
        <time>2018-03-05T18:15:26Z</time>
      </trkpt>
      <trkpt lat="62.63315766424" lon="17.973110189522">
        <ele>91.4</ele>
        <time>2018-03-05T18:15:27Z</time>
      </trkpt>
      <trkpt lat="62.633149617616" lon="17.973156289972">
        <ele>91.6</ele>
        <time>2018-03-05T18:15:28Z</time>
      </trkpt>
      <trkpt lat="62.633139810793" lon="17.973193086513">
        <ele>91.6</ele>
        <time>2018-03-05T18:15:29Z</time>
      </trkpt>
      <trkpt lat="62.633126902667" lon="17.973243545551">
        <ele>91.6</ele>
        <time>2018-03-05T18:15:30Z</time>
      </trkpt>
      <trkpt lat="62.633118185491" lon="17.973283275757">
        <ele>91.8</ele>
        <time>2018-03-05T18:15:31Z</time>
      </trkpt>
      <trkpt lat="62.633110055048" lon="17.973322083954">
        <ele>91.8</ele>
        <time>2018-03-05T18:15:32Z</time>
      </trkpt>
      <trkpt lat="62.633099410035" lon="17.973373213544">
        <ele>92</ele>
        <time>2018-03-05T18:15:33Z</time>
      </trkpt>
      <trkpt lat="62.633091531049" lon="17.973413446664">
        <ele>92</ele>
        <time>2018-03-05T18:15:34Z</time>
      </trkpt>
      <trkpt lat="62.633082981511" lon="17.973456948725">
        <ele>92.2</ele>
        <time>2018-03-05T18:15:35Z</time>
      </trkpt>
      <trkpt lat="62.633070324842" lon="17.973501708071">
        <ele>92.2</ele>
        <time>2018-03-05T18:15:36Z</time>
      </trkpt>
      <trkpt lat="62.633062529675" lon="17.973541019182">
        <ele>92.2</ele>
        <time>2018-03-05T18:15:37Z</time>
      </trkpt>
      <trkpt lat="62.633050795015" lon="17.973590472392">
        <ele>92.2</ele>
        <time>2018-03-05T18:15:38Z</time>
      </trkpt>
      <trkpt lat="62.633040988192" lon="17.973632717168">
        <ele>92.4</ele>
        <time>2018-03-05T18:15:39Z</time>
      </trkpt>
      <trkpt lat="62.633033360663" lon="17.973670603356">
        <ele>92.2</ele>
        <time>2018-03-05T18:15:40Z</time>
      </trkpt>
      <trkpt lat="62.633024140573" lon="17.973708657182">
        <ele>92.2</ele>
        <time>2018-03-05T18:15:41Z</time>
      </trkpt>
      <trkpt lat="62.633011986818" lon="17.973753332709">
        <ele>92.4</ele>
        <time>2018-03-05T18:15:42Z</time>
      </trkpt>
      <trkpt lat="62.633004191651" lon="17.973799097883">
        <ele>92.4</ele>
        <time>2018-03-05T18:15:43Z</time>
      </trkpt>
      <trkpt lat="62.632994468647" lon="17.973845198333">
        <ele>92.6</ele>
        <time>2018-03-05T18:15:44Z</time>
      </trkpt>
      <trkpt lat="62.632986170566" lon="17.973895238276">
        <ele>92.8</ele>
        <time>2018-03-05T18:15:45Z</time>
      </trkpt>
      <trkpt lat="62.632976112286" lon="17.973931364265">
        <ele>92.8</ele>
        <time>2018-03-05T18:15:46Z</time>
      </trkpt>
      <trkpt lat="62.632965634911" lon="17.973966065331">
        <ele>93</ele>
        <time>2018-03-05T18:15:47Z</time>
      </trkpt>
      <trkpt lat="62.6329514695" lon="17.974018536025">
        <ele>93</ele>
        <time>2018-03-05T18:15:48Z</time>
      </trkpt>
      <trkpt lat="62.632942333229" lon="17.974057176584">
        <ele>93.2</ele>
        <time>2018-03-05T18:15:49Z</time>
      </trkpt>
      <trkpt lat="62.63292716199" lon="17.974123561232">
        <ele>93.2</ele>
        <time>2018-03-05T18:15:50Z</time>
      </trkpt>
      <trkpt lat="62.632919450642" lon="17.974158010841">
        <ele>93.2</ele>
        <time>2018-03-05T18:15:51Z</time>
      </trkpt>
      <trkpt lat="62.632908218896" lon="17.97420168054">
        <ele>93.2</ele>
        <time>2018-03-05T18:15:52Z</time>
      </trkpt>
      <trkpt lat="62.632896232779" lon="17.974249541189">
        <ele>93.2</ele>
        <time>2018-03-05T18:15:53Z</time>
      </trkpt>
      <trkpt lat="62.632886761232" lon="17.974294468173">
        <ele>93.4</ele>
        <time>2018-03-05T18:15:54Z</time>
      </trkpt>
      <trkpt lat="62.632876786771" lon="17.974337048225">
        <ele>93.4</ele>
        <time>2018-03-05T18:15:55Z</time>
      </trkpt>
      <trkpt lat="62.632863962464" lon="17.974379879734">
        <ele>93.6</ele>
        <time>2018-03-05T18:15:56Z</time>
      </trkpt>
      <trkpt lat="62.632848539768" lon="17.974420531949">
        <ele>93.6</ele>
        <time>2018-03-05T18:15:57Z</time>
      </trkpt>
      <trkpt lat="62.632833368529" lon="17.974458418137">
        <ele>93.4</ele>
        <time>2018-03-05T18:15:58Z</time>
      </trkpt>
      <trkpt lat="62.632816017996" lon="17.974495214678">
        <ele>93.4</ele>
        <time>2018-03-05T18:15:59Z</time>
      </trkpt>
      <trkpt lat="62.632797745454" lon="17.974524886604">
        <ele>93.2</ele>
        <time>2018-03-05T18:16:00Z</time>
      </trkpt>
      <trkpt lat="62.632777880351" lon="17.974549697028">
        <ele>93.2</ele>
        <time>2018-03-05T18:16:01Z</time>
      </trkpt>
      <trkpt lat="62.632753824298" lon="17.974566963742">
        <ele>93.2</ele>
        <time>2018-03-05T18:16:02Z</time>
      </trkpt>
      <trkpt lat="62.632732031358" lon="17.974570316502">
        <ele>93.4</ele>
        <time>2018-03-05T18:16:03Z</time>
      </trkpt>
      <trkpt lat="62.632710992789" lon="17.974564365353">
        <ele>93.6</ele>
        <time>2018-03-05T18:16:04Z</time>
      </trkpt>
      <trkpt lat="62.632688445478" lon="17.974553049788">
        <ele>93.6</ele>
        <time>2018-03-05T18:16:05Z</time>
      </trkpt>
      <trkpt lat="62.632668831832" lon="17.974541734223">
        <ele>93.6</ele>
        <time>2018-03-05T18:16:06Z</time>
      </trkpt>
      <trkpt lat="62.632647374168" lon="17.974525138061">
        <ele>93.8</ele>
        <time>2018-03-05T18:16:07Z</time>
      </trkpt>
      <trkpt lat="62.632627760522" lon="17.974499154171">
        <ele>93.8</ele>
        <time>2018-03-05T18:16:08Z</time>
      </trkpt>
      <trkpt lat="62.632611499636" lon="17.974474427566">
        <ele>93.8</ele>
        <time>2018-03-05T18:16:09Z</time>
      </trkpt>
      <trkpt lat="62.632597166587" lon="17.974452886083">
        <ele>93.8</ele>
        <time>2018-03-05T18:16:10Z</time>
      </trkpt>
      <trkpt lat="62.632575289828" lon="17.974430171134">
        <ele>93.8</ele>
        <time>2018-03-05T18:16:11Z</time>
      </trkpt>
      <trkpt lat="62.632555927639" lon="17.974404271063">
        <ele>94</ele>
        <time>2018-03-05T18:16:12Z</time>
      </trkpt>
      <trkpt lat="62.632539582934" lon="17.974384657417">
        <ele>94</ele>
        <time>2018-03-05T18:16:13Z</time>
      </trkpt>
      <trkpt lat="62.63252147803" lon="17.974360014631">
        <ele>94.2</ele>
        <time>2018-03-05T18:16:14Z</time>
      </trkpt>
      <trkpt lat="62.632501948203" lon="17.974337048225">
        <ele>94.2</ele>
        <time>2018-03-05T18:16:15Z</time>
      </trkpt>
      <trkpt lat="62.632483256566" lon="17.974315339104">
        <ele>94.2</ele>
        <time>2018-03-05T18:16:16Z</time>
      </trkpt>
      <trkpt lat="62.63246364292" lon="17.974295054906">
        <ele>94.2</ele>
        <time>2018-03-05T18:16:17Z</time>
      </trkpt>
      <trkpt lat="62.63244771731" lon="17.974270160663">
        <ele>94</ele>
        <time>2018-03-05T18:16:18Z</time>
      </trkpt>
      <trkpt lat="62.632434557727" lon="17.974248451542">
        <ele>94</ele>
        <time>2018-03-05T18:16:19Z</time>
      </trkpt>
      <trkpt lat="62.632418632117" lon="17.974225820412">
        <ele>94.2</ele>
        <time>2018-03-05T18:16:20Z</time>
      </trkpt>
      <trkpt lat="62.632401700679" lon="17.974201429083">
        <ele>94</ele>
        <time>2018-03-05T18:16:21Z</time>
      </trkpt>
      <trkpt lat="62.632383009042" lon="17.974177875944">
        <ele>94</ele>
        <time>2018-03-05T18:16:22Z</time>
      </trkpt>
      <trkpt lat="62.632361970473" lon="17.97415809466">
        <ele>94</ele>
        <time>2018-03-05T18:16:23Z</time>
      </trkpt>
      <trkpt lat="62.632341099542" lon="17.974141666136">
        <ele>94</ele>
        <time>2018-03-05T18:16:24Z</time>
      </trkpt>
      <trkpt lat="62.632323916647" lon="17.974125153793">
        <ele>94</ele>
        <time>2018-03-05T18:16:25Z</time>
      </trkpt>
      <trkpt lat="62.632306314657" lon="17.974105204871">
        <ele>94</ele>
        <time>2018-03-05T18:16:26Z</time>
      </trkpt>
      <trkpt lat="62.632287036287" lon="17.974082406103">
        <ele>94.2</ele>
        <time>2018-03-05T18:16:27Z</time>
      </trkpt>
      <trkpt lat="62.632269099021" lon="17.97406337919">
        <ele>94</ele>
        <time>2018-03-05T18:16:28Z</time>
      </trkpt>
      <trkpt lat="62.632248144271" lon="17.974045106648">
        <ele>94.2</ele>
        <time>2018-03-05T18:16:29Z</time>
      </trkpt>
      <trkpt lat="62.632228530625" lon="17.974026750287">
        <ele>94.2</ele>
        <time>2018-03-05T18:16:30Z</time>
      </trkpt>
      <trkpt lat="62.632211096273" lon="17.974008226288">
        <ele>94.2</ele>
        <time>2018-03-05T18:16:31Z</time>
      </trkpt>
      <trkpt lat="62.632189973885" lon="17.973988277366">
        <ele>94.2</ele>
        <time>2018-03-05T18:16:32Z</time>
      </trkpt>
      <trkpt lat="62.632169689687" lon="17.973967741711">
        <ele>94</ele>
        <time>2018-03-05T18:16:33Z</time>
      </trkpt>
      <trkpt lat="62.632150830412" lon="17.973944942943">
        <ele>94.2</ele>
        <time>2018-03-05T18:16:34Z</time>
      </trkpt>
      <trkpt lat="62.632129372748" lon="17.973919629605">
        <ele>94</ele>
        <time>2018-03-05T18:16:35Z</time>
      </trkpt>
      <trkpt lat="62.63210908855" lon="17.973896914656">
        <ele>94.2</ele>
        <time>2018-03-05T18:16:36Z</time>
      </trkpt>
      <trkpt lat="62.632087379429" lon="17.973872355689">
        <ele>94.2</ele>
        <time>2018-03-05T18:16:37Z</time>
      </trkpt>
      <trkpt lat="62.632066843774" lon="17.973849305464">
        <ele>94.2</ele>
        <time>2018-03-05T18:16:38Z</time>
      </trkpt>
      <trkpt lat="62.632045302291" lon="17.973824830316">
        <ele>94.2</ele>
        <time>2018-03-05T18:16:39Z</time>
      </trkpt>
      <trkpt lat="62.632024934274" lon="17.973799852254">
        <ele>94.2</ele>
        <time>2018-03-05T18:16:40Z</time>
      </trkpt>
      <trkpt lat="62.632006326456" lon="17.973779819513">
        <ele>94</ele>
        <time>2018-03-05T18:16:41Z</time>
      </trkpt>
      <trkpt lat="62.631983192412" lon="17.973755260546">
        <ele>94</ele>
        <time>2018-03-05T18:16:42Z</time>
      </trkpt>
      <trkpt lat="62.631960561282" lon="17.973731958864">
        <ele>94.2</ele>
        <time>2018-03-05T18:16:43Z</time>
      </trkpt>
      <trkpt lat="62.631939690351" lon="17.973709411553">
        <ele>94</ele>
        <time>2018-03-05T18:16:44Z</time>
      </trkpt>
      <trkpt lat="62.631916723945" lon="17.97368451731">
        <ele>94</ele>
        <time>2018-03-05T18:16:45Z</time>
      </trkpt>
      <trkpt lat="62.631894092815" lon="17.973658868696">
        <ele>94.2</ele>
        <time>2018-03-05T18:16:46Z</time>
      </trkpt>
      <trkpt lat="62.63187355716" lon="17.973633806815">
        <ele>94.2</ele>
        <time>2018-03-05T18:16:47Z</time>
      </trkpt>
      <trkpt lat="62.631851261306" lon="17.973605811269">
        <ele>94</ele>
        <time>2018-03-05T18:16:48Z</time>
      </trkpt>
      <trkpt lat="62.631828881633" lon="17.973577061352">
        <ele>94</ele>
        <time>2018-03-05T18:16:49Z</time>
      </trkpt>
      <trkpt lat="62.631807507788" lon="17.973552250928">
        <ele>94</ele>
        <time>2018-03-05T18:16:50Z</time>
      </trkpt>
      <trkpt lat="62.631787810323" lon="17.973527356685">
        <ele>94</ele>
        <time>2018-03-05T18:16:51Z</time>
      </trkpt>
      <trkpt lat="62.631766185021" lon="17.973499444958">
        <ele>94</ele>
        <time>2018-03-05T18:16:52Z</time>
      </trkpt>
      <trkpt lat="62.631742464244" lon="17.973471030317">
        <ele>94</ele>
        <time>2018-03-05T18:16:53Z</time>
      </trkpt>
      <trkpt lat="62.631718575829" lon="17.973441274572">
        <ele>94</ele>
        <time>2018-03-05T18:16:54Z</time>
      </trkpt>
      <trkpt lat="62.631696112337" lon="17.973411183551">
        <ele>93.8</ele>
        <time>2018-03-05T18:16:55Z</time>
      </trkpt>
      <trkpt lat="62.631675911958" lon="17.973383271824">
        <ele>94</ele>
        <time>2018-03-05T18:16:56Z</time>
      </trkpt>
      <trkpt lat="62.631655795398" lon="17.973342871066">
        <ele>93.8</ele>
        <time>2018-03-05T18:16:57Z</time>
      </trkpt>
      <trkpt lat="62.631638528684" lon="17.973305906887">
        <ele>93.8</ele>
        <time>2018-03-05T18:16:58Z</time>
      </trkpt>
      <trkpt lat="62.631617573934" lon="17.973269194165">
        <ele>93.8</ele>
        <time>2018-03-05T18:16:59Z</time>
      </trkpt>
      <trkpt lat="62.63159611627" lon="17.973231140339">
        <ele>93.8</ele>
        <time>2018-03-05T18:17:00Z</time>
      </trkpt>
      <trkpt lat="62.631578681918" lon="17.973194092341">
        <ele>93.6</ele>
        <time>2018-03-05T18:17:01Z</time>
      </trkpt>
      <trkpt lat="62.631563594498" lon="17.973151344651">
        <ele>93.6</ele>
        <time>2018-03-05T18:17:02Z</time>
      </trkpt>
      <trkpt lat="62.631549932001" lon="17.973109351332">
        <ele>93.4</ele>
        <time>2018-03-05T18:17:03Z</time>
      </trkpt>
      <trkpt lat="62.631532246192" lon="17.97307096223">
        <ele>93.4</ele>
        <time>2018-03-05T18:17:04Z</time>
      </trkpt>
      <trkpt lat="62.631514225107" lon="17.973031315843">
        <ele>93.2</ele>
        <time>2018-03-05T18:17:05Z</time>
      </trkpt>
      <trkpt lat="62.631499472963" lon="17.972992759103">
        <ele>93.2</ele>
        <time>2018-03-05T18:17:06Z</time>
      </trkpt>
      <trkpt lat="62.631482541525" lon="17.972947832119">
        <ele>93</ele>
        <time>2018-03-05T18:17:07Z</time>
      </trkpt>
      <trkpt lat="62.631465526268" lon="17.972903743325">
        <ele>92.8</ele>
        <time>2018-03-05T18:17:08Z</time>
      </trkpt>
      <trkpt lat="62.631448762468" lon="17.972862420558">
        <ele>92.6</ele>
        <time>2018-03-05T18:17:09Z</time>
      </trkpt>
      <trkpt lat="62.631433423591" lon="17.972822522714">
        <ele>92.6</ele>
        <time>2018-03-05T18:17:10Z</time>
      </trkpt>
      <trkpt lat="62.631414564316" lon="17.972780026481">
        <ele>92.4</ele>
        <time>2018-03-05T18:17:11Z</time>
      </trkpt>
      <trkpt lat="62.631397549059" lon="17.972734931859">
        <ele>92.4</ele>
        <time>2018-03-05T18:17:12Z</time>
      </trkpt>
      <trkpt lat="62.631382210182" lon="17.972691681255">
        <ele>92.2</ele>
        <time>2018-03-05T18:17:13Z</time>
      </trkpt>
      <trkpt lat="62.631367122762" lon="17.972649185022">
        <ele>92.2</ele>
        <time>2018-03-05T18:17:14Z</time>
      </trkpt>
      <trkpt lat="62.631350861876" lon="17.972608029893">
        <ele>92.2</ele>
        <time>2018-03-05T18:17:15Z</time>
      </trkpt>
      <trkpt lat="62.631335606818" lon="17.97256972461">
        <ele>92</ele>
        <time>2018-03-05T18:17:16Z</time>
      </trkpt>
      <trkpt lat="62.631318004828" lon="17.972525719635">
        <ele>91.8</ele>
        <time>2018-03-05T18:17:17Z</time>
      </trkpt>
      <trkpt lat="62.631303504141" lon="17.972483055764">
        <ele>91.6</ele>
        <time>2018-03-05T18:17:18Z</time>
      </trkpt>
      <trkpt lat="62.631287829988" lon="17.972437625866">
        <ele>91.4</ele>
        <time>2018-03-05T18:17:19Z</time>
      </trkpt>
      <trkpt lat="62.631271401464" lon="17.972397560384">
        <ele>91.4</ele>
        <time>2018-03-05T18:17:20Z</time>
      </trkpt>
      <trkpt lat="62.631256314044" lon="17.972358752187">
        <ele>91.2</ele>
        <time>2018-03-05T18:17:21Z</time>
      </trkpt>
      <trkpt lat="62.631242567728" lon="17.972318686705">
        <ele>91</ele>
        <time>2018-03-05T18:17:22Z</time>
      </trkpt>
      <trkpt lat="62.631229491964" lon="17.972276525748">
        <ele>90.8</ele>
        <time>2018-03-05T18:17:23Z</time>
      </trkpt>
      <trkpt lat="62.631216248562" lon="17.972233023687">
        <ele>90.6</ele>
        <time>2018-03-05T18:17:24Z</time>
      </trkpt>
      <trkpt lat="62.631201831694" lon="17.972189353988">
        <ele>90.4</ele>
        <time>2018-03-05T18:17:25Z</time>
      </trkpt>
      <trkpt lat="62.631190013215" lon="17.972149623782">
        <ele>90.4</ele>
        <time>2018-03-05T18:17:26Z</time>
      </trkpt>
      <trkpt lat="62.631175847804" lon="17.972104948255">
        <ele>90.2</ele>
        <time>2018-03-05T18:17:27Z</time>
      </trkpt>
      <trkpt lat="62.631163861687" lon="17.972064631316">
        <ele>90.2</ele>
        <time>2018-03-05T18:17:28Z</time>
      </trkpt>
      <trkpt lat="62.631150702104" lon="17.972019620513">
        <ele>90</ele>
        <time>2018-03-05T18:17:29Z</time>
      </trkpt>
      <trkpt lat="62.631138213073" lon="17.97197125695">
        <ele>90</ele>
        <time>2018-03-05T18:17:30Z</time>
      </trkpt>
      <trkpt lat="62.631127400422" lon="17.971925827052">
        <ele>90</ele>
        <time>2018-03-05T18:17:31Z</time>
      </trkpt>
      <trkpt lat="62.631113989382" lon="17.971876960575">
        <ele>90</ele>
        <time>2018-03-05T18:17:32Z</time>
      </trkpt>
      <trkpt lat="62.631100159247" lon="17.971828345555">
        <ele>89.8</ele>
        <time>2018-03-05T18:17:33Z</time>
      </trkpt>
      <trkpt lat="62.631088592225" lon="17.971785597865">
        <ele>89.6</ele>
        <time>2018-03-05T18:17:34Z</time>
      </trkpt>
      <trkpt lat="62.631077528117" lon="17.971734803551">
        <ele>89.6</ele>
        <time>2018-03-05T18:17:35Z</time>
      </trkpt>
      <trkpt lat="62.631069481493" lon="17.971684093056">
        <ele>89.6</ele>
        <time>2018-03-05T18:17:36Z</time>
      </trkpt>
      <trkpt lat="62.631060429041" lon="17.971631203267">
        <ele>89.2</ele>
        <time>2018-03-05T18:17:37Z</time>
      </trkpt>
      <trkpt lat="62.631051208951" lon="17.971582588247">
        <ele>89.2</ele>
        <time>2018-03-05T18:17:38Z</time>
      </trkpt>
      <trkpt lat="62.631041569766" lon="17.971529614639">
        <ele>89</ele>
        <time>2018-03-05T18:17:39Z</time>
      </trkpt>
      <trkpt lat="62.631031511486" lon="17.971476641031">
        <ele>89</ele>
        <time>2018-03-05T18:17:40Z</time>
      </trkpt>
      <trkpt lat="62.63102447069" lon="17.971427690735">
        <ele>89</ele>
        <time>2018-03-05T18:17:41Z</time>
      </trkpt>
      <trkpt lat="62.631015837333" lon="17.971369771806">
        <ele>88.8</ele>
        <time>2018-03-05T18:17:42Z</time>
      </trkpt>
      <trkpt lat="62.631008377442" lon="17.971318977492">
        <ele>88.8</ele>
        <time>2018-03-05T18:17:43Z</time>
      </trkpt>
      <trkpt lat="62.63100100137" lon="17.971265668608">
        <ele>88.6</ele>
        <time>2018-03-05T18:17:44Z</time>
      </trkpt>
      <trkpt lat="62.630993792936" lon="17.971210934801">
        <ele>88.6</ele>
        <time>2018-03-05T18:17:45Z</time>
      </trkpt>
      <trkpt lat="62.63098675214" lon="17.971158128831">
        <ele>88.6</ele>
        <time>2018-03-05T18:17:46Z</time>
      </trkpt>
      <trkpt lat="62.630976190946" lon="17.971103059748">
        <ele>88.2</ele>
        <time>2018-03-05T18:17:47Z</time>
      </trkpt>
      <trkpt lat="62.630968982512" lon="17.971048242122">
        <ele>88.4</ele>
        <time>2018-03-05T18:17:48Z</time>
      </trkpt>
      <trkpt lat="62.630962528449" lon="17.970995855247">
        <ele>88.2</ele>
        <time>2018-03-05T18:17:49Z</time>
      </trkpt>
      <trkpt lat="62.630956074386" lon="17.970943468372">
        <ele>88</ele>
        <time>2018-03-05T18:17:50Z</time>
      </trkpt>
      <trkpt lat="62.630949452685" lon="17.970892925515">
        <ele>88</ele>
        <time>2018-03-05T18:17:51Z</time>
      </trkpt>
      <trkpt lat="62.630943082441" lon="17.970843388486">
        <ele>88</ele>
        <time>2018-03-05T18:17:52Z</time>
      </trkpt>
      <trkpt lat="62.630935203455" lon="17.97078773267">
        <ele>88</ele>
        <time>2018-03-05T18:17:53Z</time>
      </trkpt>
      <trkpt lat="62.630928162659" lon="17.970732831225">
        <ele>87.8</ele>
        <time>2018-03-05T18:17:54Z</time>
      </trkpt>
      <trkpt lat="62.630920367492" lon="17.970684802938">
        <ele>87.8</ele>
        <time>2018-03-05T18:17:55Z</time>
      </trkpt>
      <trkpt lat="62.630912656144" lon="17.970632583701">
        <ele>87.6</ele>
        <time>2018-03-05T18:17:56Z</time>
      </trkpt>
      <trkpt lat="62.630905280072" lon="17.970576089695">
        <ele>87.4</ele>
        <time>2018-03-05T18:17:57Z</time>
      </trkpt>
      <trkpt lat="62.630899077466" lon="17.970525211562">
        <ele>87.4</ele>
        <time>2018-03-05T18:17:58Z</time>
      </trkpt>
      <trkpt lat="62.630892539584" lon="17.970477099456">
        <ele>87.2</ele>
        <time>2018-03-05T18:17:59Z</time>
      </trkpt>
      <trkpt lat="62.630884576779" lon="17.970425466952">
        <ele>87.2</ele>
        <time>2018-03-05T18:18:00Z</time>
      </trkpt>
      <trkpt lat="62.630877955078" lon="17.970382300167">
        <ele>87.2</ele>
        <time>2018-03-05T18:18:01Z</time>
      </trkpt>
      <trkpt lat="62.630869824635" lon="17.970336367355">
        <ele>87</ele>
        <time>2018-03-05T18:18:02Z</time>
      </trkpt>
      <trkpt lat="62.630863119115" lon="17.970290518362">
        <ele>87</ele>
        <time>2018-03-05T18:18:03Z</time>
      </trkpt>
      <trkpt lat="62.630858089975" lon="17.970244166455">
        <ele>86.8</ele>
        <time>2018-03-05T18:18:04Z</time>
      </trkpt>
      <trkpt lat="62.630859766355" lon="17.970199407109">
        <ele>86.8</ele>
        <time>2018-03-05T18:18:05Z</time>
      </trkpt>
      <trkpt lat="62.630863622029" lon="17.970159006351">
        <ele>86.6</ele>
        <time>2018-03-05T18:18:06Z</time>
      </trkpt>
      <trkpt lat="62.630868483531" lon="17.970127574226">
        <ele>86.6</ele>
        <time>2018-03-05T18:18:07Z</time>
      </trkpt>
      <trkpt lat="62.630875691965" lon="17.970111564797">
        <ele>86.4</ele>
        <time>2018-03-05T18:18:08Z</time>
      </trkpt>
      <trkpt lat="62.630882984218" lon="17.970104356363">
        <ele>86.2</ele>
        <time>2018-03-05T18:18:09Z</time>
      </trkpt>
      <trkpt lat="62.630889857376" lon="17.970099494861">
        <ele>86.2</ele>
        <time>2018-03-05T18:18:10Z</time>
      </trkpt>
      <trkpt lat="62.630894970335" lon="17.970087508744">
        <ele>86</ele>
        <time>2018-03-05T18:18:11Z</time>
      </trkpt>
      <trkpt lat="62.630902597864" lon="17.970090693866">
        <ele>86</ele>
        <time>2018-03-05T18:18:12Z</time>
      </trkpt>
      <trkpt lat="62.630906034443" lon="17.970100668327">
        <ele>86</ele>
        <time>2018-03-05T18:18:13Z</time>
      </trkpt>
      <trkpt lat="62.630907627004" lon="17.970098405214">
        <ele>86</ele>
        <time>2018-03-05T18:18:14Z</time>
      </trkpt>
      <trkpt lat="62.630909890117" lon="17.970102009431">
        <ele>85.8</ele>
        <time>2018-03-05T18:18:15Z</time>
      </trkpt>
      <trkpt lat="62.631211722336" lon="17.969945603177">
        <ele>86.6</ele>
        <time>2018-03-05T18:20:30Z</time>
      </trkpt>
      <trkpt lat="62.631240136977" lon="17.969930767214">
        <ele>86.6</ele>
        <time>2018-03-05T18:20:31Z</time>
      </trkpt>
      <trkpt lat="62.63127341312" lon="17.969913835776">
        <ele>86.4</ele>
        <time>2018-03-05T18:20:32Z</time>
      </trkpt>
      <trkpt lat="62.63130274977" lon="17.969901011469">
        <ele>86.2</ele>
        <time>2018-03-05T18:20:33Z</time>
      </trkpt>
      <trkpt lat="62.63132957185" lon="17.969883912393">
        <ele>85.8</ele>
        <time>2018-03-05T18:20:34Z</time>
      </trkpt>
      <trkpt lat="62.631361255432" lon="17.969863125281">
        <ele>85.4</ele>
        <time>2018-03-05T18:20:35Z</time>
      </trkpt>
      <trkpt lat="62.631387658417" lon="17.969845523291">
        <ele>85.4</ele>
        <time>2018-03-05T18:20:36Z</time>
      </trkpt>
      <trkpt lat="62.631419090542" lon="17.96982800512">
        <ele>85.2</ele>
        <time>2018-03-05T18:20:37Z</time>
      </trkpt>
      <trkpt lat="62.631448846287" lon="17.96981207951">
        <ele>85.4</ele>
        <time>2018-03-05T18:20:38Z</time>
      </trkpt>
      <trkpt lat="62.63147960786" lon="17.969797243547">
        <ele>85.4</ele>
        <time>2018-03-05T18:20:39Z</time>
      </trkpt>
      <trkpt lat="62.631503328637" lon="17.969787185267">
        <ele>85.6</ele>
        <time>2018-03-05T18:20:40Z</time>
      </trkpt>
      <trkpt lat="62.631533587296" lon="17.969770589105">
        <ele>85.6</ele>
        <time>2018-03-05T18:20:41Z</time>
      </trkpt>
      <trkpt lat="62.63156426505" lon="17.969750556364">
        <ele>85.6</ele>
        <time>2018-03-05T18:20:42Z</time>
      </trkpt>
      <trkpt lat="62.631593853157" lon="17.969727673777">
        <ele>85.6</ele>
        <time>2018-03-05T18:20:43Z</time>
      </trkpt>
      <trkpt lat="62.631622519255" lon="17.969708479226">
        <ele>85.4</ele>
        <time>2018-03-05T18:20:44Z</time>
      </trkpt>
      <trkpt lat="62.631651017715" lon="17.969685680458">
        <ele>85.2</ele>
        <time>2018-03-05T18:20:45Z</time>
      </trkpt>
      <trkpt lat="62.631677169243" lon="17.969662211138">
        <ele>85.2</ele>
        <time>2018-03-05T18:20:46Z</time>
      </trkpt>
      <trkpt lat="62.631707427902" lon="17.969628432081">
        <ele>85.2</ele>
        <time>2018-03-05T18:20:47Z</time>
      </trkpt>
      <trkpt lat="62.631735674905" lon="17.969594485386">
        <ele>85.2</ele>
        <time>2018-03-05T18:20:48Z</time>
      </trkpt>
      <trkpt lat="62.63176207789" lon="17.969562550347">
        <ele>85</ele>
        <time>2018-03-05T18:20:49Z</time>
      </trkpt>
      <trkpt lat="62.631792168911" lon="17.969535728267">
        <ele>84.8</ele>
        <time>2018-03-05T18:20:50Z</time>
      </trkpt>
      <trkpt lat="62.631819158629" lon="17.969513767689">
        <ele>84.6</ele>
        <time>2018-03-05T18:20:51Z</time>
      </trkpt>
      <trkpt lat="62.631849501107" lon="17.969512258947">
        <ele>84.4</ele>
        <time>2018-03-05T18:20:52Z</time>
      </trkpt>
      <trkpt lat="62.631879927404" lon="17.96952541853">
        <ele>84</ele>
        <time>2018-03-05T18:20:53Z</time>
      </trkpt>
      <trkpt lat="62.631908928778" lon="17.969538494294">
        <ele>84</ele>
        <time>2018-03-05T18:20:54Z</time>
      </trkpt>
      <trkpt lat="62.631936169953" lon="17.969540925045">
        <ele>84.2</ele>
        <time>2018-03-05T18:20:55Z</time>
      </trkpt>
      <trkpt lat="62.631965338965" lon="17.969536482638">
        <ele>84.4</ele>
        <time>2018-03-05T18:20:56Z</time>
      </trkpt>
      <trkpt lat="62.631997106366" lon="17.969535057715">
        <ele>84.6</ele>
        <time>2018-03-05T18:20:57Z</time>
      </trkpt>
      <trkpt lat="62.63202191679" lon="17.969532207869">
        <ele>84.8</ele>
        <time>2018-03-05T18:20:58Z</time>
      </trkpt>
      <trkpt lat="62.632052510725" lon="17.969522736322">
        <ele>85</ele>
        <time>2018-03-05T18:20:59Z</time>
      </trkpt>
      <trkpt lat="62.632078662253" lon="17.969514689698">
        <ele>85.2</ele>
        <time>2018-03-05T18:21:00Z</time>
      </trkpt>
      <trkpt lat="62.63210657398" lon="17.969504296142">
        <ele>85</ele>
        <time>2018-03-05T18:21:01Z</time>
      </trkpt>
      <trkpt lat="62.632139514847" lon="17.969505804884">
        <ele>85</ele>
        <time>2018-03-05T18:21:02Z</time>
      </trkpt>
      <trkpt lat="62.632168264764" lon="17.969509157644">
        <ele>85</ele>
        <time>2018-03-05T18:21:03Z</time>
      </trkpt>
      <trkpt lat="62.632198607242" lon="17.969504212323">
        <ele>85</ele>
        <time>2018-03-05T18:21:04Z</time>
      </trkpt>
      <trkpt lat="62.63223146429" lon="17.969493315853">
        <ele>85</ele>
        <time>2018-03-05T18:21:05Z</time>
      </trkpt>
      <trkpt lat="62.632259208379" lon="17.969492812939">
        <ele>85</ele>
        <time>2018-03-05T18:21:06Z</time>
      </trkpt>
      <trkpt lat="62.632293238893" lon="17.969492058568">
        <ele>85</ele>
        <time>2018-03-05T18:21:07Z</time>
      </trkpt>
      <trkpt lat="62.632322994638" lon="17.969488119075">
        <ele>85</ele>
        <time>2018-03-05T18:21:08Z</time>
      </trkpt>
      <trkpt lat="62.632355767867" lon="17.969486442695">
        <ele>85</ele>
        <time>2018-03-05T18:21:09Z</time>
      </trkpt>
      <trkpt lat="62.632382589947" lon="17.969485520686">
        <ele>85</ele>
        <time>2018-03-05T18:21:10Z</time>
      </trkpt>
      <trkpt lat="62.63241418971" lon="17.969488789627">
        <ele>85</ele>
        <time>2018-03-05T18:21:11Z</time>
      </trkpt>
      <trkpt lat="62.632445538016" lon="17.969491388016">
        <ele>85</ele>
        <time>2018-03-05T18:21:12Z</time>
      </trkpt>
      <trkpt lat="62.63247537758" lon="17.969493399672">
        <ele>85</ele>
        <time>2018-03-05T18:21:13Z</time>
      </trkpt>
      <trkpt lat="62.632504295135" lon="17.969503290314">
        <ele>85</ele>
        <time>2018-03-05T18:21:14Z</time>
      </trkpt>
      <trkpt lat="62.632533128871" lon="17.969507313626">
        <ele>85</ele>
        <time>2018-03-05T18:21:15Z</time>
      </trkpt>
      <trkpt lat="62.632558693666" lon="17.969514438241">
        <ele>85.2</ele>
        <time>2018-03-05T18:21:16Z</time>
      </trkpt>
      <trkpt lat="62.632589958153" lon="17.969523071598">
        <ele>85.2</ele>
        <time>2018-03-05T18:21:17Z</time>
      </trkpt>
      <trkpt lat="62.632617618423" lon="17.969527765462">
        <ele>85.2</ele>
        <time>2018-03-05T18:21:18Z</time>
      </trkpt>
      <trkpt lat="62.632646535978" lon="17.969534554801">
        <ele>85.2</ele>
        <time>2018-03-05T18:21:19Z</time>
      </trkpt>
      <trkpt lat="62.632674363886" lon="17.969537656104">
        <ele>85.2</ele>
        <time>2018-03-05T18:21:20Z</time>
      </trkpt>
      <trkpt lat="62.632701772699" lon="17.969538578113">
        <ele>85.2</ele>
        <time>2018-03-05T18:21:21Z</time>
      </trkpt>
      <trkpt lat="62.632723817096" lon="17.969541427959">
        <ele>85.2</ele>
        <time>2018-03-05T18:21:22Z</time>
      </trkpt>
      <trkpt lat="62.632757512334" lon="17.969546792375">
        <ele>85.4</ele>
        <time>2018-03-05T18:21:23Z</time>
      </trkpt>
      <trkpt lat="62.632786429889" lon="17.969551067144">
        <ele>85.2</ele>
        <time>2018-03-05T18:21:24Z</time>
      </trkpt>
      <trkpt lat="62.632812497598" lon="17.969551989153">
        <ele>85.4</ele>
        <time>2018-03-05T18:21:25Z</time>
      </trkpt>
      <trkpt lat="62.632840241687" lon="17.969555090456">
        <ele>85.4</ele>
        <time>2018-03-05T18:21:26Z</time>
      </trkpt>
      <trkpt lat="62.632868740147" lon="17.969557688845">
        <ele>85.6</ele>
        <time>2018-03-05T18:21:27Z</time>
      </trkpt>
      <trkpt lat="62.632897490064" lon="17.969562047433">
        <ele>85.6</ele>
        <time>2018-03-05T18:21:28Z</time>
      </trkpt>
      <trkpt lat="62.632927078171" lon="17.969571016066">
        <ele>85.6</ele>
        <time>2018-03-05T18:21:29Z</time>
      </trkpt>
      <trkpt lat="62.632955325174" lon="17.969575626111">
        <ele>85.8</ele>
        <time>2018-03-05T18:21:30Z</time>
      </trkpt>
      <trkpt lat="62.632982398711" lon="17.969582499269">
        <ele>85.8</ele>
        <time>2018-03-05T18:21:31Z</time>
      </trkpt>
      <trkpt lat="62.633010310438" lon="17.969587276952">
        <ele>86</ele>
        <time>2018-03-05T18:21:32Z</time>
      </trkpt>
      <trkpt lat="62.633039982364" lon="17.969592389911">
        <ele>86</ele>
        <time>2018-03-05T18:21:33Z</time>
      </trkpt>
      <trkpt lat="62.633066972082" lon="17.969601358544">
        <ele>86</ele>
        <time>2018-03-05T18:21:34Z</time>
      </trkpt>
      <trkpt lat="62.63309228542" lon="17.969616278326">
        <ele>86.2</ele>
        <time>2018-03-05T18:21:35Z</time>
      </trkpt>
      <trkpt lat="62.633120197147" lon="17.969630527556">
        <ele>86.4</ele>
        <time>2018-03-05T18:21:36Z</time>
      </trkpt>
      <trkpt lat="62.633147438322" lon="17.969640334379">
        <ele>86.2</ele>
        <time>2018-03-05T18:21:37Z</time>
      </trkpt>
      <trkpt lat="62.633174930954" lon="17.969657349636">
        <ele>86.4</ele>
        <time>2018-03-05T18:21:38Z</time>
      </trkpt>
      <trkpt lat="62.633201501577" lon="17.969671766504">
        <ele>86.4</ele>
        <time>2018-03-05T18:21:39Z</time>
      </trkpt>
      <trkpt lat="62.633225976725" lon="17.969688195028">
        <ele>86.4</ele>
        <time>2018-03-05T18:21:40Z</time>
      </trkpt>
      <trkpt lat="62.63325405609" lon="17.96971401128">
        <ele>86.4</ele>
        <time>2018-03-05T18:21:41Z</time>
      </trkpt>
      <trkpt lat="62.633281045808" lon="17.969740414265">
        <ele>86.4</ele>
        <time>2018-03-05T18:21:42Z</time>
      </trkpt>
      <trkpt lat="62.633302922567" lon="17.969773941865">
        <ele>86.4</ele>
        <time>2018-03-05T18:21:43Z</time>
      </trkpt>
      <trkpt lat="62.6333202731" lon="17.969816438098">
        <ele>86.4</ele>
        <time>2018-03-05T18:21:44Z</time>
      </trkpt>
      <trkpt lat="62.633331504846" lon="17.969873518837">
        <ele>86.4</ele>
        <time>2018-03-05T18:21:45Z</time>
      </trkpt>
      <trkpt lat="62.633338545642" lon="17.96991517688">
        <ele>86.4</ele>
        <time>2018-03-05T18:21:46Z</time>
      </trkpt>
      <trkpt lat="62.633346005533" lon="17.969987847953">
        <ele>86.4</ele>
        <time>2018-03-05T18:21:47Z</time>
      </trkpt>
      <trkpt lat="62.633349861207" lon="17.970048029995">
        <ele>86.6</ele>
        <time>2018-03-05T18:21:48Z</time>
      </trkpt>
      <trkpt lat="62.633355644718" lon="17.970109301684">
        <ele>86.6</ele>
        <time>2018-03-05T18:21:49Z</time>
      </trkpt>
      <trkpt lat="62.633357907831" lon="17.970176356884">
        <ele>86.6</ele>
        <time>2018-03-05T18:21:50Z</time>
      </trkpt>
      <trkpt lat="62.633362434057" lon="17.970235952193">
        <ele>86.8</ele>
        <time>2018-03-05T18:21:51Z</time>
      </trkpt>
      <trkpt lat="62.633366038274" lon="17.970301247194">
        <ele>86.8</ele>
        <time>2018-03-05T18:21:52Z</time>
      </trkpt>
      <trkpt lat="62.633369558672" lon="17.970361596874">
        <ele>87.2</ele>
        <time>2018-03-05T18:21:53Z</time>
      </trkpt>
      <trkpt lat="62.633373414346" lon="17.970424544943">
        <ele>87.2</ele>
        <time>2018-03-05T18:21:54Z</time>
      </trkpt>
      <trkpt lat="62.633376934744" lon="17.970480200759">
        <ele>87.2</ele>
        <time>2018-03-05T18:21:55Z</time>
      </trkpt>
      <trkpt lat="62.633381963884" lon="17.970541891543">
        <ele>87.4</ele>
        <time>2018-03-05T18:21:56Z</time>
      </trkpt>
      <trkpt lat="62.633385316644" lon="17.970609784933">
        <ele>87.6</ele>
        <time>2018-03-05T18:21:57Z</time>
      </trkpt>
      <trkpt lat="62.633390261965" lon="17.970665776025">
        <ele>87.6</ele>
        <time>2018-03-05T18:21:58Z</time>
      </trkpt>
      <trkpt lat="62.633394620553" lon="17.97073157394">
        <ele>87.8</ele>
        <time>2018-03-05T18:21:59Z</time>
      </trkpt>
      <trkpt lat="62.633398392408" lon="17.970790582516">
        <ele>88</ele>
        <time>2018-03-05T18:22:00Z</time>
      </trkpt>
      <trkpt lat="62.633400236426" lon="17.970849088178">
        <ele>88.2</ele>
        <time>2018-03-05T18:22:01Z</time>
      </trkpt>
      <trkpt lat="62.633401493711" lon="17.970915053731">
        <ele>88.2</ele>
        <time>2018-03-05T18:22:02Z</time>
      </trkpt>
      <trkpt lat="62.6334040921" lon="17.970971463918">
        <ele>88.4</ele>
        <time>2018-03-05T18:22:03Z</time>
      </trkpt>
      <trkpt lat="62.633404511195" lon="17.971031478322">
        <ele>88.6</ele>
        <time>2018-03-05T18:22:04Z</time>
      </trkpt>
      <trkpt lat="62.633407612498" lon="17.971093085287">
        <ele>88.6</ele>
        <time>2018-03-05T18:22:05Z</time>
      </trkpt>
      <trkpt lat="62.63340995943" lon="17.971149327836">
        <ele>88.8</ele>
        <time>2018-03-05T18:22:06Z</time>
      </trkpt>
      <trkpt lat="62.633412976914" lon="17.971213449371">
        <ele>88.8</ele>
        <time>2018-03-05T18:22:07Z</time>
      </trkpt>
      <trkpt lat="62.633413144552" lon="17.971271116843">
        <ele>88.8</ele>
        <time>2018-03-05T18:22:08Z</time>
      </trkpt>
      <trkpt lat="62.633411049077" lon="17.971334651645">
        <ele>89</ele>
        <time>2018-03-05T18:22:09Z</time>
      </trkpt>
      <trkpt lat="62.633408702145" lon="17.971390558918">
        <ele>89</ele>
        <time>2018-03-05T18:22:10Z</time>
      </trkpt>
      <trkpt lat="62.633406941946" lon="17.971457195023">
        <ele>89.2</ele>
        <time>2018-03-05T18:22:11Z</time>
      </trkpt>
      <trkpt lat="62.633403840643" lon="17.971521735653">
        <ele>89.2</ele>
        <time>2018-03-05T18:22:12Z</time>
      </trkpt>
      <trkpt lat="62.633400320245" lon="17.971580576591">
        <ele>89.4</ele>
        <time>2018-03-05T18:22:13Z</time>
      </trkpt>
      <trkpt lat="62.633395877838" lon="17.971641764461">
        <ele>89.4</ele>
        <time>2018-03-05T18:22:14Z</time>
      </trkpt>
      <trkpt lat="62.633392022164" lon="17.971699767209">
        <ele>89.6</ele>
        <time>2018-03-05T18:22:15Z</time>
      </trkpt>
      <trkpt lat="62.633388920861" lon="17.971752740817">
        <ele>89.8</ele>
        <time>2018-03-05T18:22:16Z</time>
      </trkpt>
      <trkpt lat="62.633384226997" lon="17.971815102153">
        <ele>89.8</ele>
        <time>2018-03-05T18:22:17Z</time>
      </trkpt>
      <trkpt lat="62.633380371323" lon="17.97187318872">
        <ele>90</ele>
        <time>2018-03-05T18:22:18Z</time>
      </trkpt>
      <trkpt lat="62.633375342183" lon="17.97193521478">
        <ele>90.2</ele>
        <time>2018-03-05T18:22:19Z</time>
      </trkpt>
      <trkpt lat="62.633368971939" lon="17.971991876424">
        <ele>90.2</ele>
        <time>2018-03-05T18:22:20Z</time>
      </trkpt>
      <trkpt lat="62.633362936971" lon="17.972049543896">
        <ele>90.2</ele>
        <time>2018-03-05T18:22:21Z</time>
      </trkpt>
      <trkpt lat="62.633356818184" lon="17.972101427857">
        <ele>90.4</ele>
        <time>2018-03-05T18:22:22Z</time>
      </trkpt>
      <trkpt lat="62.633349023017" lon="17.972162951003">
        <ele>90.4</ele>
        <time>2018-03-05T18:22:23Z</time>
      </trkpt>
      <trkpt lat="62.633339970565" lon="17.97222187576">
        <ele>90.6</ele>
        <time>2018-03-05T18:22:24Z</time>
      </trkpt>
      <trkpt lat="62.633333265045" lon="17.972276190472">
        <ele>90.6</ele>
        <time>2018-03-05T18:22:25Z</time>
      </trkpt>
      <trkpt lat="62.633324128774" lon="17.972335785781">
        <ele>90.8</ele>
        <time>2018-03-05T18:22:26Z</time>
      </trkpt>
      <trkpt lat="62.633314908684" lon="17.972396638375">
        <ele>90.8</ele>
        <time>2018-03-05T18:22:27Z</time>
      </trkpt>
      <trkpt lat="62.633305940051" lon="17.972449360526">
        <ele>91</ele>
        <time>2018-03-05T18:22:28Z</time>
      </trkpt>
      <trkpt lat="62.63329596559" lon="17.972504094333">
        <ele>91</ele>
        <time>2018-03-05T18:22:29Z</time>
      </trkpt>
      <trkpt lat="62.633285991129" lon="17.972556481208">
        <ele>91</ele>
        <time>2018-03-05T18:22:30Z</time>
      </trkpt>
      <trkpt lat="62.633274759383" lon="17.972612975214">
        <ele>91.2</ele>
        <time>2018-03-05T18:22:31Z</time>
      </trkpt>
      <trkpt lat="62.633264868741" lon="17.972674749817">
        <ele>91.4</ele>
        <time>2018-03-05T18:22:32Z</time>
      </trkpt>
      <trkpt lat="62.633253553176" lon="17.972730237995">
        <ele>91.4</ele>
        <time>2018-03-05T18:22:33Z</time>
      </trkpt>
      <trkpt lat="62.633245087457" lon="17.972781535223">
        <ele>91.4</ele>
        <time>2018-03-05T18:22:34Z</time>
      </trkpt>
      <trkpt lat="62.633235867367" lon="17.972840879075">
        <ele>91.4</ele>
        <time>2018-03-05T18:22:35Z</time>
      </trkpt>
      <trkpt lat="62.633224887078" lon="17.972895696701">
        <ele>91.4</ele>
        <time>2018-03-05T18:22:36Z</time>
      </trkpt>
      <trkpt lat="62.633214325884" lon="17.9729561302">
        <ele>91.6</ele>
        <time>2018-03-05T18:22:37Z</time>
      </trkpt>
      <trkpt lat="62.6332029265" lon="17.973015222595">
        <ele>91.8</ele>
        <time>2018-03-05T18:22:38Z</time>
      </trkpt>
      <trkpt lat="62.633191443297" lon="17.973067525651">
        <ele>91.8</ele>
        <time>2018-03-05T18:22:39Z</time>
      </trkpt>
      <trkpt lat="62.633182642302" lon="17.973116811223">
        <ele>92</ele>
        <time>2018-03-05T18:22:40Z</time>
      </trkpt>
      <trkpt lat="62.633170907642" lon="17.973174730152">
        <ele>92</ele>
        <time>2018-03-05T18:22:41Z</time>
      </trkpt>
      <trkpt lat="62.633160597905" lon="17.973228458131">
        <ele>92</ele>
        <time>2018-03-05T18:22:42Z</time>
      </trkpt>
      <trkpt lat="62.633146935408" lon="17.973284365404">
        <ele>91.8</ele>
        <time>2018-03-05T18:22:43Z</time>
      </trkpt>
      <trkpt lat="62.633137296223" lon="17.973335662632">
        <ele>92</ele>
        <time>2018-03-05T18:22:44Z</time>
      </trkpt>
      <trkpt lat="62.633126735029" lon="17.973387462774">
        <ele>92</ele>
        <time>2018-03-05T18:22:45Z</time>
      </trkpt>
      <trkpt lat="62.633114748912" lon="17.973434317595">
        <ele>91.8</ele>
        <time>2018-03-05T18:22:46Z</time>
      </trkpt>
      <trkpt lat="62.63310066732" lon="17.973492404162">
        <ele>92</ele>
        <time>2018-03-05T18:22:47Z</time>
      </trkpt>
      <trkpt lat="62.63308809447" lon="17.973546048322">
        <ele>92</ele>
        <time>2018-03-05T18:22:48Z</time>
      </trkpt>
      <trkpt lat="62.633077617095" lon="17.973597932283">
        <ele>92.2</ele>
        <time>2018-03-05T18:22:49Z</time>
      </trkpt>
      <trkpt lat="62.633064876607" lon="17.973659623067">
        <ele>92.2</ele>
        <time>2018-03-05T18:22:50Z</time>
      </trkpt>
      <trkpt lat="62.63305289049" lon="17.973717290539">
        <ele>92.2</ele>
        <time>2018-03-05T18:22:51Z</time>
      </trkpt>
      <trkpt lat="62.633041826382" lon="17.973776382934">
        <ele>92.4</ele>
        <time>2018-03-05T18:22:52Z</time>
      </trkpt>
      <trkpt lat="62.633029672627" lon="17.973839917736">
        <ele>92.4</ele>
        <time>2018-03-05T18:22:53Z</time>
      </trkpt>
      <trkpt lat="62.633016596863" lon="17.97389825576">
        <ele>92.6</ele>
        <time>2018-03-05T18:22:54Z</time>
      </trkpt>
      <trkpt lat="62.633001257986" lon="17.973954582128">
        <ele>92.6</ele>
        <time>2018-03-05T18:22:55Z</time>
      </trkpt>
      <trkpt lat="62.632986338204" lon="17.974013590704">
        <ele>92.8</ele>
        <time>2018-03-05T18:22:56Z</time>
      </trkpt>
      <trkpt lat="62.632968484757" lon="17.974077796058">
        <ele>93</ele>
        <time>2018-03-05T18:22:57Z</time>
      </trkpt>
      <trkpt lat="62.632955828088" lon="17.974130769666">
        <ele>92.8</ele>
        <time>2018-03-05T18:22:58Z</time>
      </trkpt>
      <trkpt lat="62.632941327401" lon="17.974196316124">
        <ele>92.8</ele>
        <time>2018-03-05T18:22:59Z</time>
      </trkpt>
      <trkpt lat="62.632926156162" lon="17.974257923089">
        <ele>93</ele>
        <time>2018-03-05T18:23:00Z</time>
      </trkpt>
      <trkpt lat="62.632912326027" lon="17.974313746543">
        <ele>93</ele>
        <time>2018-03-05T18:23:01Z</time>
      </trkpt>
      <trkpt lat="62.632892880019" lon="17.974379125363">
        <ele>93.2</ele>
        <time>2018-03-05T18:23:02Z</time>
      </trkpt>
      <trkpt lat="62.632873014916" lon="17.974432518066">
        <ele>93.2</ele>
        <time>2018-03-05T18:23:03Z</time>
      </trkpt>
      <trkpt lat="62.632846025198" lon="17.974474008471">
        <ele>93.4</ele>
        <time>2018-03-05T18:23:04Z</time>
      </trkpt>
      <trkpt lat="62.632815179806" lon="17.974493873574">
        <ele>93.6</ele>
        <time>2018-03-05T18:23:05Z</time>
      </trkpt>
      <trkpt lat="62.632785088785" lon="17.97449588523">
        <ele>93.6</ele>
        <time>2018-03-05T18:23:06Z</time>
      </trkpt>
      <trkpt lat="62.632753321384" lon="17.974486162226">
        <ele>93.6</ele>
        <time>2018-03-05T18:23:07Z</time>
      </trkpt>
      <trkpt lat="62.632723984734" lon="17.974476020127">
        <ele>93.4</ele>
        <time>2018-03-05T18:23:08Z</time>
      </trkpt>
      <trkpt lat="62.632694061351" lon="17.974465207476">
        <ele>93.4</ele>
        <time>2018-03-05T18:23:09Z</time>
      </trkpt>
      <trkpt lat="62.632666987814" lon="17.974454227187">
        <ele>93.4</ele>
        <time>2018-03-05T18:23:10Z</time>
      </trkpt>
      <trkpt lat="62.632635639508" lon="17.974437714844">
        <ele>93.4</ele>
        <time>2018-03-05T18:23:11Z</time>
      </trkpt>
      <trkpt lat="62.632603955926" lon="17.974419107026">
        <ele>93.4</ele>
        <time>2018-03-05T18:23:12Z</time>
      </trkpt>
      <trkpt lat="62.632575038371" lon="17.974401421217">
        <ele>93.6</ele>
        <time>2018-03-05T18:23:13Z</time>
      </trkpt>
      <trkpt lat="62.632547629558" lon="17.974376778431">
        <ele>93.8</ele>
        <time>2018-03-05T18:23:14Z</time>
      </trkpt>
      <trkpt lat="62.632523489686" lon="17.974345094849">
        <ele>93.8</ele>
        <time>2018-03-05T18:23:15Z</time>
      </trkpt>
      <trkpt lat="62.632503289307" lon="17.974318105131">
        <ele>93.8</ele>
        <time>2018-03-05T18:23:16Z</time>
      </trkpt>
      <trkpt lat="62.632473533562" lon="17.97428298497">
        <ele>94</ele>
        <time>2018-03-05T18:23:17Z</time>
      </trkpt>
      <trkpt lat="62.632448806957" lon="17.974257420175">
        <ele>94</ele>
        <time>2018-03-05T18:23:18Z</time>
      </trkpt>
      <trkpt lat="62.632425756732" lon="17.974240069642">
        <ele>94</ele>
        <time>2018-03-05T18:23:19Z</time>
      </trkpt>
      <trkpt lat="62.63240413143" lon="17.974211990277">
        <ele>94</ele>
        <time>2018-03-05T18:23:20Z</time>
      </trkpt>
      <trkpt lat="62.63238233849" lon="17.974185922568">
        <ele>94</ele>
        <time>2018-03-05T18:23:21Z</time>
      </trkpt>
      <trkpt lat="62.632354007668" lon="17.974159687221">
        <ele>94.2</ele>
        <time>2018-03-05T18:23:22Z</time>
      </trkpt>
      <trkpt lat="62.632320480068" lon="17.974131524037">
        <ele>94.2</ele>
        <time>2018-03-05T18:23:23Z</time>
      </trkpt>
      <trkpt lat="62.632294244721" lon="17.974107970898">
        <ele>94.2</ele>
        <time>2018-03-05T18:23:24Z</time>
      </trkpt>
      <trkpt lat="62.632264908071" lon="17.974081987008">
        <ele>94.2</ele>
        <time>2018-03-05T18:23:25Z</time>
      </trkpt>
      <trkpt lat="62.632235236145" lon="17.974049716693">
        <ele>94.2</ele>
        <time>2018-03-05T18:23:26Z</time>
      </trkpt>
      <trkpt lat="62.63220380402" lon="17.974011830505">
        <ele>94.2</ele>
        <time>2018-03-05T18:23:27Z</time>
      </trkpt>
      <trkpt lat="62.632174383551" lon="17.97398039838">
        <ele>94.2</ele>
        <time>2018-03-05T18:23:28Z</time>
      </trkpt>
      <trkpt lat="62.632141442684" lon="17.973949804445">
        <ele>94.2</ele>
        <time>2018-03-05T18:23:29Z</time>
      </trkpt>
      <trkpt lat="62.63210825036" lon="17.973920216338">
        <ele>94.2</ele>
        <time>2018-03-05T18:23:30Z</time>
      </trkpt>
      <trkpt lat="62.632080338633" lon="17.973888448937">
        <ele>94.2</ele>
        <time>2018-03-05T18:23:31Z</time>
      </trkpt>
      <trkpt lat="62.632051840173" lon="17.973854502242">
        <ele>94.2</ele>
        <time>2018-03-05T18:23:32Z</time>
      </trkpt>
      <trkpt lat="62.632022000609" lon="17.973814939674">
        <ele>94</ele>
        <time>2018-03-05T18:23:33Z</time>
      </trkpt>
      <trkpt lat="62.631991239036" lon="17.973784513377">
        <ele>94.2</ele>
        <time>2018-03-05T18:23:34Z</time>
      </trkpt>
      <trkpt lat="62.631952766115" lon="17.973750650501">
        <ele>94.4</ele>
        <time>2018-03-05T18:23:35Z</time>
      </trkpt>
      <trkpt lat="62.631925441121" lon="17.973717625815">
        <ele>94.2</ele>
        <time>2018-03-05T18:23:36Z</time>
      </trkpt>
      <trkpt lat="62.631896691204" lon="17.97368284093">
        <ele>94</ele>
        <time>2018-03-05T18:23:37Z</time>
      </trkpt>
      <trkpt lat="62.63186852802" lon="17.973644787104">
        <ele>94</ele>
        <time>2018-03-05T18:23:38Z</time>
      </trkpt>
      <trkpt lat="62.631839275189" lon="17.97361159478">
        <ele>94</ele>
        <time>2018-03-05T18:23:39Z</time>
      </trkpt>
      <trkpt lat="62.631814548584" lon="17.973581671397">
        <ele>93.8</ele>
        <time>2018-03-05T18:23:40Z</time>
      </trkpt>
      <trkpt lat="62.631788145599" lon="17.973542444105">
        <ele>93.8</ele>
        <time>2018-03-05T18:23:41Z</time>
      </trkpt>
      <trkpt lat="62.63175956332" lon="17.973510760523">
        <ele>94</ele>
        <time>2018-03-05T18:23:42Z</time>
      </trkpt>
      <trkpt lat="62.631730059032" lon="17.973478154932">
        <ele>94</ele>
        <time>2018-03-05T18:23:43Z</time>
      </trkpt>
      <trkpt lat="62.631701309115" lon="17.973450075567">
        <ele>93.8</ele>
        <time>2018-03-05T18:23:44Z</time>
      </trkpt>
      <trkpt lat="62.631670212266" lon="17.973426941523">
        <ele>93.8</ele>
        <time>2018-03-05T18:23:45Z</time>
      </trkpt>
      <trkpt lat="62.631641294711" lon="17.973417218519">
        <ele>93.8</ele>
        <time>2018-03-05T18:23:46Z</time>
      </trkpt>
      <trkpt lat="62.631609359672" lon="17.973422247659">
        <ele>93.8</ele>
        <time>2018-03-05T18:23:47Z</time>
      </trkpt>
      <trkpt lat="62.631578011366" lon="17.973443872961">
        <ele>93.6</ele>
        <time>2018-03-05T18:23:48Z</time>
      </trkpt>
      <trkpt lat="62.631550183458" lon="17.97347077886">
        <ele>93.4</ele>
        <time>2018-03-05T18:23:49Z</time>
      </trkpt>
      <trkpt lat="62.631521349722" lon="17.973497517121">
        <ele>93.4</ele>
        <time>2018-03-05T18:23:50Z</time>
      </trkpt>
      <trkpt lat="62.631494108547" lon="17.973524674477">
        <ele>93.4</ele>
        <time>2018-03-05T18:23:51Z</time>
      </trkpt>
      <trkpt lat="62.631468879028" lon="17.973555184593">
        <ele>93.2</ele>
        <time>2018-03-05T18:23:52Z</time>
      </trkpt>
      <trkpt lat="62.631442643681" lon="17.973596674998">
        <ele>93.4</ele>
        <time>2018-03-05T18:23:53Z</time>
      </trkpt>
      <trkpt lat="62.631415234868" lon="17.973632214254">
        <ele>93.6</ele>
        <time>2018-03-05T18:23:54Z</time>
      </trkpt>
      <trkpt lat="62.631386652589" lon="17.973658701058">
        <ele>93.4</ele>
        <time>2018-03-05T18:23:55Z</time>
      </trkpt>
      <trkpt lat="62.631353376446" lon="17.973695162323">
        <ele>93.2</ele>
        <time>2018-03-05T18:23:56Z</time>
      </trkpt>
      <trkpt lat="62.631323955977" lon="17.97373480871">
        <ele>93.4</ele>
        <time>2018-03-05T18:23:57Z</time>
      </trkpt>
      <trkpt lat="62.631297888268" lon="17.973766157016">
        <ele>93.4</ele>
        <time>2018-03-05T18:23:58Z</time>
      </trkpt>
      <trkpt lat="62.631270647093" lon="17.973799181702">
        <ele>93.2</ele>
        <time>2018-03-05T18:23:59Z</time>
      </trkpt>
      <trkpt lat="62.631246255764" lon="17.97383371513">
        <ele>93.2</ele>
        <time>2018-03-05T18:24:00Z</time>
      </trkpt>
      <trkpt lat="62.631218260218" lon="17.973861962133">
        <ele>93.2</ele>
        <time>2018-03-05T18:24:01Z</time>
      </trkpt>
      <trkpt lat="62.631189929396" lon="17.973890544412">
        <ele>93.4</ele>
        <time>2018-03-05T18:24:02Z</time>
      </trkpt>
      <trkpt lat="62.631160006013" lon="17.973913510818">
        <ele>93.2</ele>
        <time>2018-03-05T18:24:03Z</time>
      </trkpt>
      <trkpt lat="62.631132932476" lon="17.973930358437">
        <ele>93.2</ele>
        <time>2018-03-05T18:24:04Z</time>
      </trkpt>
      <trkpt lat="62.631103009093" lon="17.973944607667">
        <ele>93.2</ele>
        <time>2018-03-05T18:24:05Z</time>
      </trkpt>
      <trkpt lat="62.631074091538" lon="17.973949720626">
        <ele>93.2</ele>
        <time>2018-03-05T18:24:06Z</time>
      </trkpt>
      <trkpt lat="62.631044922526" lon="17.973952402834">
        <ele>93.2</ele>
        <time>2018-03-05T18:24:07Z</time>
      </trkpt>
      <trkpt lat="62.631010892012" lon="17.973942093097">
        <ele>93</ele>
        <time>2018-03-05T18:24:08Z</time>
      </trkpt>
      <trkpt lat="62.630980633353" lon="17.973920383976">
        <ele>93</ele>
        <time>2018-03-05T18:24:09Z</time>
      </trkpt>
      <trkpt lat="62.630950290875" lon="17.973894986819">
        <ele>92.8</ele>
        <time>2018-03-05T18:24:10Z</time>
      </trkpt>
      <trkpt lat="62.630917852922" lon="17.973846036523">
        <ele>92.8</ele>
        <time>2018-03-05T18:24:11Z</time>
      </trkpt>
      <trkpt lat="62.630894299783" lon="17.973794655476">
        <ele>92.6</ele>
        <time>2018-03-05T18:24:12Z</time>
      </trkpt>
      <trkpt lat="62.630871836291" lon="17.973741011316">
        <ele>92.6</ele>
        <time>2018-03-05T18:24:13Z</time>
      </trkpt>
      <trkpt lat="62.63085264174" lon="17.973683595301">
        <ele>92.4</ele>
        <time>2018-03-05T18:24:14Z</time>
      </trkpt>
      <trkpt lat="62.630834955931" lon="17.973627771847">
        <ele>92.4</ele>
        <time>2018-03-05T18:24:15Z</time>
      </trkpt>
      <trkpt lat="62.630821544891" lon="17.973575887886">
        <ele>92.6</ele>
        <time>2018-03-05T18:24:16Z</time>
      </trkpt>
      <trkpt lat="62.630801595969" lon="17.973504557917">
        <ele>92.4</ele>
        <time>2018-03-05T18:24:17Z</time>
      </trkpt>
      <trkpt lat="62.630785837997" lon="17.973444962608">
        <ele>92.4</ele>
        <time>2018-03-05T18:24:18Z</time>
      </trkpt>
      <trkpt lat="62.630765721437" lon="17.973380673435">
        <ele>92.4</ele>
        <time>2018-03-05T18:24:19Z</time>
      </trkpt>
      <trkpt lat="62.630745688696" lon="17.973321329583">
        <ele>92.2</ele>
        <time>2018-03-05T18:24:20Z</time>
      </trkpt>
      <trkpt lat="62.630727919068" lon="17.973273133658">
        <ele>92</ele>
        <time>2018-03-05T18:24:21Z</time>
      </trkpt>
      <trkpt lat="62.630711909639" lon="17.973224015724">
        <ele>92</ele>
        <time>2018-03-05T18:24:22Z</time>
      </trkpt>
      <trkpt lat="62.630690200518" lon="17.973147153701">
        <ele>92</ele>
        <time>2018-03-05T18:24:23Z</time>
      </trkpt>
      <trkpt lat="62.630671257424" lon="17.97309107879">
        <ele>91.8</ele>
        <time>2018-03-05T18:24:24Z</time>
      </trkpt>
      <trkpt lat="62.63065399071" lon="17.973035674431">
        <ele>91.8</ele>
        <time>2018-03-05T18:24:25Z</time>
      </trkpt>
      <trkpt lat="62.630636556358" lon="17.972978845149">
        <ele>91.8</ele>
        <time>2018-03-05T18:24:26Z</time>
      </trkpt>
      <trkpt lat="62.630616942712" lon="17.972919668935">
        <ele>91.8</ele>
        <time>2018-03-05T18:24:27Z</time>
      </trkpt>
      <trkpt lat="62.630600178912" lon="17.972860744178">
        <ele>91.6</ele>
        <time>2018-03-05T18:24:28Z</time>
      </trkpt>
      <trkpt lat="62.630581571094" lon="17.97280190324">
        <ele>91.6</ele>
        <time>2018-03-05T18:24:29Z</time>
      </trkpt>
      <trkpt lat="62.630563969104" lon="17.972739206628">
        <ele>91.6</ele>
        <time>2018-03-05T18:24:30Z</time>
      </trkpt>
      <trkpt lat="62.630549719874" lon="17.9726795275">
        <ele>91.4</ele>
        <time>2018-03-05T18:24:31Z</time>
      </trkpt>
      <trkpt lat="62.630532536979" lon="17.972613729585">
        <ele>91.4</ele>
        <time>2018-03-05T18:24:32Z</time>
      </trkpt>
      <trkpt lat="62.630518874482" lon="17.972547009661">
        <ele>91.2</ele>
        <time>2018-03-05T18:24:33Z</time>
      </trkpt>
      <trkpt lat="62.630506553089" lon="17.972485654153">
        <ele>91</ele>
        <time>2018-03-05T18:24:34Z</time>
      </trkpt>
      <trkpt lat="62.630494483153" lon="17.972419353324">
        <ele>91</ele>
        <time>2018-03-05T18:24:35Z</time>
      </trkpt>
      <trkpt lat="62.630482916131" lon="17.972354058323">
        <ele>91</ele>
        <time>2018-03-05T18:24:36Z</time>
      </trkpt>
      <trkpt lat="62.630473444584" lon="17.972284320915">
        <ele>90.8</ele>
        <time>2018-03-05T18:24:37Z</time>
      </trkpt>
      <trkpt lat="62.630462799571" lon="17.972221456665">
        <ele>91</ele>
        <time>2018-03-05T18:24:38Z</time>
      </trkpt>
      <trkpt lat="62.630448382703" lon="17.972160101157">
        <ele>91</ele>
        <time>2018-03-05T18:24:39Z</time>
      </trkpt>
      <trkpt lat="62.630435055482" lon="17.972103607151">
        <ele>90.8</ele>
        <time>2018-03-05T18:24:40Z</time>
      </trkpt>
      <trkpt lat="62.630421476804" lon="17.97203076844">
        <ele>90.8</ele>
        <time>2018-03-05T18:24:41Z</time>
      </trkpt>
      <trkpt lat="62.6304117538" lon="17.971960276661">
        <ele>90.8</ele>
        <time>2018-03-05T18:24:42Z</time>
      </trkpt>
      <trkpt lat="62.630400354416" lon="17.971892718547">
        <ele>90.8</ele>
        <time>2018-03-05T18:24:43Z</time>
      </trkpt>
      <trkpt lat="62.630391553421" lon="17.9718245737">
        <ele>90.8</ele>
        <time>2018-03-05T18:24:44Z</time>
      </trkpt>
      <trkpt lat="62.630380321675" lon="17.971764894572">
        <ele>90.6</ele>
        <time>2018-03-05T18:24:45Z</time>
      </trkpt>
      <trkpt lat="62.630373113241" lon="17.971708568204">
        <ele>90.6</ele>
        <time>2018-03-05T18:24:46Z</time>
      </trkpt>
      <trkpt lat="62.63036481516" lon="17.97163681914">
        <ele>90.6</ele>
        <time>2018-03-05T18:24:47Z</time>
      </trkpt>
      <trkpt lat="62.630352409948" lon="17.971566662637">
        <ele>90.4</ele>
        <time>2018-03-05T18:24:48Z</time>
      </trkpt>
      <trkpt lat="62.63034637498" lon="17.971492063727">
        <ele>90.4</ele>
        <time>2018-03-05T18:24:49Z</time>
      </trkpt>
      <trkpt lat="62.630342267849" lon="17.971423583604">
        <ele>90.2</ele>
        <time>2018-03-05T18:24:50Z</time>
      </trkpt>
      <trkpt lat="62.630341262021" lon="17.971355774033">
        <ele>90</ele>
        <time>2018-03-05T18:24:51Z</time>
      </trkpt>
      <trkpt lat="62.63033715489" lon="17.971284108788">
        <ele>90</ele>
        <time>2018-03-05T18:24:52Z</time>
      </trkpt>
      <trkpt lat="62.630332880121" lon="17.971210348068">
        <ele>90</ele>
        <time>2018-03-05T18:24:53Z</time>
      </trkpt>
      <trkpt lat="62.630332461026" lon="17.971137760814">
        <ele>89.8</ele>
        <time>2018-03-05T18:24:54Z</time>
      </trkpt>
      <trkpt lat="62.630333550673" lon="17.971071208528">
        <ele>89.8</ele>
        <time>2018-03-05T18:24:55Z</time>
      </trkpt>
      <trkpt lat="62.630335981424" lon="17.971000800568">
        <ele>89.8</ele>
        <time>2018-03-05T18:24:56Z</time>
      </trkpt>
      <trkpt lat="62.630337490166" lon="17.970926956029">
        <ele>89.8</ele>
        <time>2018-03-05T18:24:57Z</time>
      </trkpt>
      <trkpt lat="62.630339250365" lon="17.970858056811">
        <ele>89.8</ele>
        <time>2018-03-05T18:24:58Z</time>
      </trkpt>
      <trkpt lat="62.630344530962" lon="17.970792677991">
        <ele>89.8</ele>
        <time>2018-03-05T18:24:59Z</time>
      </trkpt>
      <trkpt lat="62.630352577586" lon="17.970713636674">
        <ele>89.8</ele>
        <time>2018-03-05T18:25:00Z</time>
      </trkpt>
      <trkpt lat="62.630362384409" lon="17.970650185691">
        <ele>89.8</ele>
        <time>2018-03-05T18:25:01Z</time>
      </trkpt>
      <trkpt lat="62.630381159865" lon="17.970578604265">
        <ele>89.8</ele>
        <time>2018-03-05T18:25:02Z</time>
      </trkpt>
      <trkpt lat="62.63040504828" lon="17.970518925137">
        <ele>89.6</ele>
        <time>2018-03-05T18:25:03Z</time>
      </trkpt>
      <trkpt lat="62.630430529256" lon="17.970464861882">
        <ele>89.6</ele>
        <time>2018-03-05T18:25:04Z</time>
      </trkpt>
      <trkpt lat="62.630459698268" lon="17.970411133903">
        <ele>89.6</ele>
        <time>2018-03-05T18:25:05Z</time>
      </trkpt>
      <trkpt lat="62.630487693814" lon="17.970371403697">
        <ele>89.4</ele>
        <time>2018-03-05T18:25:06Z</time>
      </trkpt>
      <trkpt lat="62.630519796491" lon="17.970338211373">
        <ele>89</ele>
        <time>2018-03-05T18:25:07Z</time>
      </trkpt>
      <trkpt lat="62.630549887512" lon="17.970311808388">
        <ele>88.8</ele>
        <time>2018-03-05T18:25:08Z</time>
      </trkpt>
      <trkpt lat="62.630577380144" lon="17.970289177258">
        <ele>88.4</ele>
        <time>2018-03-05T18:25:09Z</time>
      </trkpt>
      <trkpt lat="62.630604788957" lon="17.970268222508">
        <ele>88</ele>
        <time>2018-03-05T18:25:10Z</time>
      </trkpt>
      <trkpt lat="62.630637729824" lon="17.970242322437">
        <ele>87.6</ele>
        <time>2018-03-05T18:25:11Z</time>
      </trkpt>
      <trkpt lat="62.630673688175" lon="17.970220194221">
        <ele>87.2</ele>
        <time>2018-03-05T18:25:12Z</time>
      </trkpt>
      <trkpt lat="62.630706545223" lon="17.97020351424">
        <ele>87</ele>
        <time>2018-03-05T18:25:13Z</time>
      </trkpt>
      <trkpt lat="62.63073780971" lon="17.970190522295">
        <ele>87</ele>
        <time>2018-03-05T18:25:14Z</time>
      </trkpt>
      <trkpt lat="62.630771924043" lon="17.970183565318">
        <ele>86.8</ele>
        <time>2018-03-05T18:25:15Z</time>
      </trkpt>
      <trkpt lat="62.630798494666" lon="17.97017082483">
        <ele>86.6</ele>
        <time>2018-03-05T18:25:16Z</time>
      </trkpt>
      <trkpt lat="62.630833195732" lon="17.970158587256">
        <ele>86.6</ele>
        <time>2018-03-05T18:25:17Z</time>
      </trkpt>
      <trkpt lat="62.630879631458" lon="17.970140566171">
        <ele>86.2</ele>
        <time>2018-03-05T18:25:19Z</time>
      </trkpt>
      <trkpt lat="62.630891869032" lon="17.970135034117">
        <ele>86.2</ele>
        <time>2018-03-05T18:25:20Z</time>
      </trkpt>
      <trkpt lat="62.630900502389" lon="17.970127071312">
        <ele>86.2</ele>
        <time>2018-03-05T18:25:21Z</time>
      </trkpt>
      <trkpt lat="62.630909554841" lon="17.970126819855">
        <ele>86.2</ele>
        <time>2018-03-05T18:25:22Z</time>
      </trkpt>
      <trkpt lat="62.630909890117" lon="17.970130424072">
        <ele>86.2</ele>
        <time>2018-03-05T18:25:23Z</time>
      </trkpt>
      <trkpt lat="62.630904693339" lon="17.970129669701">
        <ele>86.2</ele>
        <time>2018-03-05T18:25:24Z</time>
      </trkpt>
      <trkpt lat="62.630912823782" lon="17.97012388619">
        <ele>86.4</ele>
        <time>2018-03-05T18:25:27Z</time>
      </trkpt>
      <trkpt lat="62.630912320868" lon="17.970128831511">
        <ele>86.4</ele>
        <time>2018-03-05T18:25:28Z</time>
      </trkpt>
      <trkpt lat="62.630907710823" lon="17.970134447384">
        <ele>86.4</ele>
        <time>2018-03-05T18:25:29Z</time>
      </trkpt>
      <trkpt lat="62.631225049557" lon="17.969974269275">
        <ele>84.8</ele>
        <time>2018-03-05T18:28:20Z</time>
      </trkpt>
      <trkpt lat="62.631255727311" lon="17.969966557927">
        <ele>84.4</ele>
        <time>2018-03-05T18:28:21Z</time>
      </trkpt>
      <trkpt lat="62.631290344558" lon="17.969951973421">
        <ele>84.4</ele>
        <time>2018-03-05T18:28:22Z</time>
      </trkpt>
      <trkpt lat="62.631323536882" lon="17.969933700879">
        <ele>84.4</ele>
        <time>2018-03-05T18:28:23Z</time>
      </trkpt>
      <trkpt lat="62.631356729206" lon="17.96991014774">
        <ele>84.2</ele>
        <time>2018-03-05T18:28:24Z</time>
      </trkpt>
      <trkpt lat="62.631394447756" lon="17.969888522438">
        <ele>84.4</ele>
        <time>2018-03-05T18:28:25Z</time>
      </trkpt>
      <trkpt lat="62.631426131338" lon="17.96986823824">
        <ele>84.4</ele>
        <time>2018-03-05T18:28:26Z</time>
      </trkpt>
      <trkpt lat="62.63145613854" lon="17.969856838856">
        <ele>84.6</ele>
        <time>2018-03-05T18:28:27Z</time>
      </trkpt>
      <trkpt lat="62.631487570665" lon="17.969840494151">
        <ele>84.8</ele>
        <time>2018-03-05T18:28:28Z</time>
      </trkpt>
      <trkpt lat="62.631519170428" lon="17.969825322912">
        <ele>84.8</ele>
        <time>2018-03-05T18:28:29Z</time>
      </trkpt>
      <trkpt lat="62.631548255621" lon="17.969808056198">
        <ele>84.6</ele>
        <time>2018-03-05T18:28:30Z</time>
      </trkpt>
      <trkpt lat="62.631573066045" lon="17.969791795312">
        <ele>84.4</ele>
        <time>2018-03-05T18:28:31Z</time>
      </trkpt>
      <trkpt lat="62.631601815962" lon="17.969770672924">
        <ele>84.4</ele>
        <time>2018-03-05T18:28:32Z</time>
      </trkpt>
      <trkpt lat="62.631636433209" lon="17.969743515568">
        <ele>84.2</ele>
        <time>2018-03-05T18:28:33Z</time>
      </trkpt>
      <trkpt lat="62.631668954981" lon="17.969716190574">
        <ele>84.2</ele>
        <time>2018-03-05T18:28:34Z</time>
      </trkpt>
      <trkpt lat="62.631694435957" lon="17.969688697942">
        <ele>84.2</ele>
        <time>2018-03-05T18:28:35Z</time>
      </trkpt>
      <trkpt lat="62.631724694616" lon="17.969651314668">
        <ele>84.2</ele>
        <time>2018-03-05T18:28:36Z</time>
      </trkpt>
      <trkpt lat="62.631748247755" lon="17.969615607774">
        <ele>84</ele>
        <time>2018-03-05T18:28:37Z</time>
      </trkpt>
      <trkpt lat="62.631777249129" lon="17.969571016066">
        <ele>83.8</ele>
        <time>2018-03-05T18:28:38Z</time>
      </trkpt>
      <trkpt lat="62.631808262159" lon="17.969545283633">
        <ele>83.6</ele>
        <time>2018-03-05T18:28:39Z</time>
      </trkpt>
      <trkpt lat="62.631841957397" lon="17.969541260321">
        <ele>83.4</ele>
        <time>2018-03-05T18:28:40Z</time>
      </trkpt>
      <trkpt lat="62.631870539676" lon="17.969549390764">
        <ele>83.2</ele>
        <time>2018-03-05T18:28:41Z</time>
      </trkpt>
      <trkpt lat="62.63190457019" lon="17.969559868139">
        <ele>83.4</ele>
        <time>2018-03-05T18:28:42Z</time>
      </trkpt>
      <trkpt lat="62.631936337591" lon="17.969557772664">
        <ele>83.4</ele>
        <time>2018-03-05T18:28:43Z</time>
      </trkpt>
      <trkpt lat="62.631966931526" lon="17.969554336085">
        <ele>83.4</ele>
        <time>2018-03-05T18:28:44Z</time>
      </trkpt>
      <trkpt lat="62.631999369479" lon="17.969552408248">
        <ele>83.4</ele>
        <time>2018-03-05T18:28:45Z</time>
      </trkpt>
      <trkpt lat="62.632025018093" lon="17.969546792375">
        <ele>83.6</ele>
        <time>2018-03-05T18:28:46Z</time>
      </trkpt>
      <trkpt lat="62.632052343087" lon="17.969536398819">
        <ele>83.8</ele>
        <time>2018-03-05T18:28:47Z</time>
      </trkpt>
      <trkpt lat="62.632085032497" lon="17.969531704955">
        <ele>83.8</ele>
        <time>2018-03-05T18:28:48Z</time>
      </trkpt>
      <trkpt lat="62.632122080495" lon="17.969532375507">
        <ele>83.8</ele>
        <time>2018-03-05T18:28:49Z</time>
      </trkpt>
      <trkpt lat="62.632154434629" lon="17.969538410475">
        <ele>83.8</ele>
        <time>2018-03-05T18:28:50Z</time>
      </trkpt>
      <trkpt lat="62.63218787841" lon="17.969531118222">
        <ele>83.8</ele>
        <time>2018-03-05T18:28:51Z</time>
      </trkpt>
      <trkpt lat="62.632221992743" lon="17.969520724666">
        <ele>83.8</ele>
        <time>2018-03-05T18:28:52Z</time>
      </trkpt>
      <trkpt lat="62.632253005773" lon="17.969508990006">
        <ele>84</ele>
        <time>2018-03-05T18:28:53Z</time>
      </trkpt>
      <trkpt lat="62.63229013759" lon="17.969497842079">
        <ele>84</ele>
        <time>2018-03-05T18:28:54Z</time>
      </trkpt>
      <trkpt lat="62.632318384593" lon="17.969493651129">
        <ele>83.8</ele>
        <time>2018-03-05T18:28:55Z</time>
      </trkpt>
      <trkpt lat="62.632358533894" lon="17.969487532342">
        <ele>83.8</ele>
        <time>2018-03-05T18:28:56Z</time>
      </trkpt>
      <trkpt lat="62.632392061494" lon="17.969489795455">
        <ele>84</ele>
        <time>2018-03-05T18:28:57Z</time>
      </trkpt>
      <trkpt lat="62.632425756732" lon="17.969491471835">
        <ele>83.8</ele>
        <time>2018-03-05T18:28:58Z</time>
      </trkpt>
      <trkpt lat="62.632459368151" lon="17.969498009717">
        <ele>84</ele>
        <time>2018-03-05T18:28:59Z</time>
      </trkpt>
      <trkpt lat="62.632491219371" lon="17.9695027874">
        <ele>84</ele>
        <time>2018-03-05T18:29:00Z</time>
      </trkpt>
      <trkpt lat="62.632522902953" lon="17.969508990006">
        <ele>84.2</ele>
        <time>2018-03-05T18:29:01Z</time>
      </trkpt>
      <trkpt lat="62.6325575202" lon="17.9695111693">
        <ele>84</ele>
        <time>2018-03-05T18:29:02Z</time>
      </trkpt>
      <trkpt lat="62.632589539058" lon="17.969516449897">
        <ele>84</ele>
        <time>2018-03-05T18:29:03Z</time>
      </trkpt>
      <trkpt lat="62.632620552088" lon="17.969523825969">
        <ele>84</ele>
        <time>2018-03-05T18:29:04Z</time>
      </trkpt>
      <trkpt lat="62.632648547634" lon="17.969523071598">
        <ele>84</ele>
        <time>2018-03-05T18:29:05Z</time>
      </trkpt>
      <trkpt lat="62.632683332519" lon="17.969526508177">
        <ele>84</ele>
        <time>2018-03-05T18:29:06Z</time>
      </trkpt>
      <trkpt lat="62.632710489875" lon="17.969536482638">
        <ele>84</ele>
        <time>2018-03-05T18:29:07Z</time>
      </trkpt>
      <trkpt lat="62.632742005819" lon="17.96953966776">
        <ele>84</ele>
        <time>2018-03-05T18:29:08Z</time>
      </trkpt>
      <trkpt lat="62.632773102668" lon="17.969543607253">
        <ele>84</ele>
        <time>2018-03-05T18:29:09Z</time>
      </trkpt>
      <trkpt lat="62.632801517309" lon="17.969543355796">
        <ele>84</ele>
        <time>2018-03-05T18:29:10Z</time>
      </trkpt>
      <trkpt lat="62.632831692149" lon="17.969550983325">
        <ele>84</ele>
        <time>2018-03-05T18:29:11Z</time>
      </trkpt>
      <trkpt lat="62.632859017143" lon="17.969555006637">
        <ele>84</ele>
        <time>2018-03-05T18:29:12Z</time>
      </trkpt>
      <trkpt lat="62.632889946354" lon="17.96955643156">
        <ele>84</ele>
        <time>2018-03-05T18:29:13Z</time>
      </trkpt>
      <trkpt lat="62.632918863909" lon="17.969557856483">
        <ele>84.2</ele>
        <time>2018-03-05T18:29:14Z</time>
      </trkpt>
      <trkpt lat="62.632947362369" lon="17.969563388537">
        <ele>84.2</ele>
        <time>2018-03-05T18:29:15Z</time>
      </trkpt>
      <trkpt lat="62.632975357915" lon="17.969569507324">
        <ele>84.2</ele>
        <time>2018-03-05T18:29:16Z</time>
      </trkpt>
      <trkpt lat="62.633000587434" lon="17.969579817061">
        <ele>84.4</ele>
        <time>2018-03-05T18:29:17Z</time>
      </trkpt>
      <trkpt lat="62.633034115034" lon="17.969592138454">
        <ele>84.6</ele>
        <time>2018-03-05T18:29:18Z</time>
      </trkpt>
      <trkpt lat="62.633062362037" lon="17.969589623884">
        <ele>84.6</ele>
        <time>2018-03-05T18:29:19Z</time>
      </trkpt>
      <trkpt lat="62.633090357583" lon="17.969595910309">
        <ele>84.6</ele>
        <time>2018-03-05T18:29:20Z</time>
      </trkpt>
      <trkpt lat="62.633124555735" lon="17.969611165367">
        <ele>84.6</ele>
        <time>2018-03-05T18:29:21Z</time>
      </trkpt>
      <trkpt lat="62.633150371987" lon="17.969625749873">
        <ele>84.6</ele>
        <time>2018-03-05T18:29:22Z</time>
      </trkpt>
      <trkpt lat="62.633182223207" lon="17.969649219193">
        <ele>84.6</ele>
        <time>2018-03-05T18:29:23Z</time>
      </trkpt>
      <trkpt lat="62.633209799658" lon="17.969665982993">
        <ele>84.8</ele>
        <time>2018-03-05T18:29:24Z</time>
      </trkpt>
      <trkpt lat="62.633241064145" lon="17.969685931915">
        <ele>84.6</ele>
        <time>2018-03-05T18:29:25Z</time>
      </trkpt>
      <trkpt lat="62.633268389139" lon="17.969711329072">
        <ele>84.8</ele>
        <time>2018-03-05T18:29:26Z</time>
      </trkpt>
      <trkpt lat="62.633293534839" lon="17.969745191948">
        <ele>84.8</ele>
        <time>2018-03-05T18:29:27Z</time>
      </trkpt>
      <trkpt lat="62.633319518729" lon="17.969784503059">
        <ele>85</ele>
        <time>2018-03-05T18:29:28Z</time>
      </trkpt>
      <trkpt lat="62.633339467651" lon="17.969818114478">
        <ele>85</ele>
        <time>2018-03-05T18:29:29Z</time>
      </trkpt>
      <trkpt lat="62.633359835668" lon="17.969873183561">
        <ele>85.4</ele>
        <time>2018-03-05T18:29:30Z</time>
      </trkpt>
      <trkpt lat="62.633376096554" lon="17.969916350346">
        <ele>85.4</ele>
        <time>2018-03-05T18:29:31Z</time>
      </trkpt>
      <trkpt lat="62.633386909205" lon="17.969979382234">
        <ele>85.4</ele>
        <time>2018-03-05T18:29:32Z</time>
      </trkpt>
      <trkpt lat="62.633390597241" lon="17.970052220945">
        <ele>85.6</ele>
        <time>2018-03-05T18:29:33Z</time>
      </trkpt>
      <trkpt lat="62.6333957102" lon="17.970117096851">
        <ele>85.6</ele>
        <time>2018-03-05T18:29:34Z</time>
      </trkpt>
      <trkpt lat="62.633394117639" lon="17.970183146223">
        <ele>85.8</ele>
        <time>2018-03-05T18:29:35Z</time>
      </trkpt>
      <trkpt lat="62.633394620553" lon="17.970250369061">
        <ele>85.6</ele>
        <time>2018-03-05T18:29:36Z</time>
      </trkpt>
      <trkpt lat="62.633395123467" lon="17.970318933003">
        <ele>86</ele>
        <time>2018-03-05T18:29:37Z</time>
      </trkpt>
      <trkpt lat="62.633397302761" lon="17.970386742574">
        <ele>86</ele>
        <time>2018-03-05T18:29:38Z</time>
      </trkpt>
      <trkpt lat="62.633400990797" lon="17.970450612652">
        <ele>86.4</ele>
        <time>2018-03-05T18:29:39Z</time>
      </trkpt>
      <trkpt lat="62.633404343557" lon="17.970515991472">
        <ele>86.4</ele>
        <time>2018-03-05T18:29:40Z</time>
      </trkpt>
      <trkpt lat="62.633408785964" lon="17.970574580953">
        <ele>86.4</ele>
        <time>2018-03-05T18:29:41Z</time>
      </trkpt>
      <trkpt lat="62.633410546163" lon="17.97064356399">
        <ele>86.6</ele>
        <time>2018-03-05T18:29:42Z</time>
      </trkpt>
      <trkpt lat="62.633413563647" lon="17.97070810462">
        <ele>86.6</ele>
        <time>2018-03-05T18:29:43Z</time>
      </trkpt>
      <trkpt lat="62.633416078217" lon="17.97077432163">
        <ele>86.8</ele>
        <time>2018-03-05T18:29:44Z</time>
      </trkpt>
      <trkpt lat="62.633414401837" lon="17.970840454821">
        <ele>87</ele>
        <time>2018-03-05T18:29:45Z</time>
      </trkpt>
      <trkpt lat="62.633413563647" lon="17.970896194456">
        <ele>87</ele>
        <time>2018-03-05T18:29:46Z</time>
      </trkpt>
      <trkpt lat="62.633415323846" lon="17.970963836389">
        <ele>87.2</ele>
        <time>2018-03-05T18:29:47Z</time>
      </trkpt>
      <trkpt lat="62.633416748769" lon="17.971029466666">
        <ele>87.2</ele>
        <time>2018-03-05T18:29:48Z</time>
      </trkpt>
      <trkpt lat="62.633417754597" lon="17.971096018952">
        <ele>87.2</ele>
        <time>2018-03-05T18:29:49Z</time>
      </trkpt>
      <trkpt lat="62.63342169409" lon="17.971159553754">
        <ele>87.2</ele>
        <time>2018-03-05T18:29:50Z</time>
      </trkpt>
      <trkpt lat="62.633422448461" lon="17.971222418004">
        <ele>87.4</ele>
        <time>2018-03-05T18:29:51Z</time>
      </trkpt>
      <trkpt lat="62.633420101529" lon="17.97128394115">
        <ele>87.4</ele>
        <time>2018-03-05T18:29:52Z</time>
      </trkpt>
      <trkpt lat="62.633422280823" lon="17.971345464296">
        <ele>87.6</ele>
        <time>2018-03-05T18:29:53Z</time>
      </trkpt>
      <trkpt lat="62.633420688262" lon="17.971420482301">
        <ele>87.6</ele>
        <time>2018-03-05T18:29:54Z</time>
      </trkpt>
      <trkpt lat="62.633420101529" lon="17.971478485049">
        <ele>87.8</ele>
        <time>2018-03-05T18:29:55Z</time>
      </trkpt>
      <trkpt lat="62.633417000226" lon="17.971541852213">
        <ele>88</ele>
        <time>2018-03-05T18:29:56Z</time>
      </trkpt>
      <trkpt lat="62.633413396009" lon="17.971600525513">
        <ele>88</ele>
        <time>2018-03-05T18:29:57Z</time>
      </trkpt>
      <trkpt lat="62.633412809276" lon="17.971666742523">
        <ele>88.2</ele>
        <time>2018-03-05T18:29:58Z</time>
      </trkpt>
      <trkpt lat="62.633405936118" lon="17.971723655624">
        <ele>88.2</ele>
        <time>2018-03-05T18:29:59Z</time>
      </trkpt>
      <trkpt lat="62.633403673005" lon="17.971788699168">
        <ele>88.4</ele>
        <time>2018-03-05T18:30:00Z</time>
      </trkpt>
      <trkpt lat="62.633398895322" lon="17.97184888121">
        <ele>88.8</ele>
        <time>2018-03-05T18:30:01Z</time>
      </trkpt>
      <trkpt lat="62.633394955829" lon="17.971904788483">
        <ele>88.8</ele>
        <time>2018-03-05T18:30:02Z</time>
      </trkpt>
      <trkpt lat="62.633390261965" lon="17.971972011321">
        <ele>89</ele>
        <time>2018-03-05T18:30:03Z</time>
      </trkpt>
      <trkpt lat="62.633382466798" lon="17.972033785924">
        <ele>89</ele>
        <time>2018-03-05T18:30:04Z</time>
      </trkpt>
      <trkpt lat="62.633377018563" lon="17.972085921342">
        <ele>89.2</ele>
        <time>2018-03-05T18:30:05Z</time>
      </trkpt>
      <trkpt lat="62.633370145405" lon="17.972157251311">
        <ele>89.2</ele>
        <time>2018-03-05T18:30:06Z</time>
      </trkpt>
      <trkpt lat="62.633366038274" lon="17.972209051453">
        <ele>89.4</ele>
        <time>2018-03-05T18:30:07Z</time>
      </trkpt>
      <trkpt lat="62.633357237279" lon="17.972277280119">
        <ele>89.4</ele>
        <time>2018-03-05T18:30:08Z</time>
      </trkpt>
      <trkpt lat="62.633347262818" lon="17.972334025582">
        <ele>89.4</ele>
        <time>2018-03-05T18:30:09Z</time>
      </trkpt>
      <trkpt lat="62.633338797099" lon="17.972389849036">
        <ele>89.6</ele>
        <time>2018-03-05T18:30:10Z</time>
      </trkpt>
      <trkpt lat="62.633328655" lon="17.972443577015">
        <ele>89.6</ele>
        <time>2018-03-05T18:30:11Z</time>
      </trkpt>
      <trkpt lat="62.633320608376" lon="17.97249680208">
        <ele>89.6</ele>
        <time>2018-03-05T18:30:12Z</time>
      </trkpt>
      <trkpt lat="62.633305856232" lon="17.972559498692">
        <ele>89.6</ele>
        <time>2018-03-05T18:30:13Z</time>
      </trkpt>
      <trkpt lat="62.633293870115" lon="17.972617082345">
        <ele>89.8</ele>
        <time>2018-03-05T18:30:14Z</time>
      </trkpt>
      <trkpt lat="62.633282135455" lon="17.972677096749">
        <ele>90</ele>
        <time>2018-03-05T18:30:15Z</time>
      </trkpt>
      <trkpt lat="62.633271155166" lon="17.972726801416">
        <ele>90</ele>
        <time>2018-03-05T18:30:16Z</time>
      </trkpt>
      <trkpt lat="62.633260929248" lon="17.972773823875">
        <ele>90.2</ele>
        <time>2018-03-05T18:30:17Z</time>
      </trkpt>
      <trkpt lat="62.633247602027" lon="17.972835514659">
        <ele>90.2</ele>
        <time>2018-03-05T18:30:18Z</time>
      </trkpt>
      <trkpt lat="62.63323477772" lon="17.972891421932">
        <ele>90.4</ele>
        <time>2018-03-05T18:30:19Z</time>
      </trkpt>
      <trkpt lat="62.633223965069" lon="17.972951603974">
        <ele>90.8</ele>
        <time>2018-03-05T18:30:20Z</time>
      </trkpt>
      <trkpt lat="62.633212481866" lon="17.973006756876">
        <ele>91</ele>
        <time>2018-03-05T18:30:21Z</time>
      </trkpt>
      <trkpt lat="62.633199909016" lon="17.973055288077">
        <ele>90.8</ele>
        <time>2018-03-05T18:30:22Z</time>
      </trkpt>
      <trkpt lat="62.633185492148" lon="17.973119074336">
        <ele>91</ele>
        <time>2018-03-05T18:30:23Z</time>
      </trkpt>
      <trkpt lat="62.63317694261" lon="17.973164671872">
        <ele>91</ele>
        <time>2018-03-05T18:30:24Z</time>
      </trkpt>
      <trkpt lat="62.633164453579" lon="17.973242874999">
        <ele>91</ele>
        <time>2018-03-05T18:30:25Z</time>
      </trkpt>
      <trkpt lat="62.63315095872" lon="17.973300793928">
        <ele>91.2</ele>
        <time>2018-03-05T18:30:26Z</time>
      </trkpt>
      <trkpt lat="62.633135368386" lon="17.973356365925">
        <ele>91.2</ele>
        <time>2018-03-05T18:30:27Z</time>
      </trkpt>
      <trkpt lat="62.633117934034" lon="17.973414703949">
        <ele>91.2</ele>
        <time>2018-03-05T18:30:28Z</time>
      </trkpt>
      <trkpt lat="62.633106869926" lon="17.973463486607">
        <ele>91.4</ele>
        <time>2018-03-05T18:30:29Z</time>
      </trkpt>
      <trkpt lat="62.633090692859" lon="17.973530709445">
        <ele>91.4</ele>
        <time>2018-03-05T18:30:30Z</time>
      </trkpt>
      <trkpt lat="62.633077533276" lon="17.973586532899">
        <ele>91.4</ele>
        <time>2018-03-05T18:30:31Z</time>
      </trkpt>
      <trkpt lat="62.633062194399" lon="17.973642523991">
        <ele>91.6</ele>
        <time>2018-03-05T18:30:32Z</time>
      </trkpt>
      <trkpt lat="62.633048531902" lon="17.973693653581">
        <ele>91.6</ele>
        <time>2018-03-05T18:30:33Z</time>
      </trkpt>
      <trkpt lat="62.63303445031" lon="17.973746375732">
        <ele>91.6</ele>
        <time>2018-03-05T18:30:34Z</time>
      </trkpt>
      <trkpt lat="62.633019027614" lon="17.973802283005">
        <ele>91.6</ele>
        <time>2018-03-05T18:30:35Z</time>
      </trkpt>
      <trkpt lat="62.633005532755" lon="17.973863554694">
        <ele>91.6</ele>
        <time>2018-03-05T18:30:36Z</time>
      </trkpt>
      <trkpt lat="62.63299002624" lon="17.973930777532">
        <ele>91.6</ele>
        <time>2018-03-05T18:30:37Z</time>
      </trkpt>
      <trkpt lat="62.632977621028" lon="17.973992468316">
        <ele>91.8</ele>
        <time>2018-03-05T18:30:38Z</time>
      </trkpt>
      <trkpt lat="62.632959767581" lon="17.974059942611">
        <ele>91.8</ele>
        <time>2018-03-05T18:30:39Z</time>
      </trkpt>
      <trkpt lat="62.632941746496" lon="17.974117190988">
        <ele>92</ele>
        <time>2018-03-05T18:30:40Z</time>
      </trkpt>
      <trkpt lat="62.632929173646" lon="17.974172762985">
        <ele>92</ele>
        <time>2018-03-05T18:30:41Z</time>
      </trkpt>
      <trkpt lat="62.632913415674" lon="17.974234705226">
        <ele>91.8</ele>
        <time>2018-03-05T18:30:42Z</time>
      </trkpt>
      <trkpt lat="62.632896903331" lon="17.974301341331">
        <ele>92</ele>
        <time>2018-03-05T18:30:43Z</time>
      </trkpt>
      <trkpt lat="62.632878798427" lon="17.974363032115">
        <ele>92.2</ele>
        <time>2018-03-05T18:30:44Z</time>
      </trkpt>
      <trkpt lat="62.632860274428" lon="17.974414664619">
        <ele>92.2</ele>
        <time>2018-03-05T18:30:45Z</time>
      </trkpt>
      <trkpt lat="62.632834206719" lon="17.974458250499">
        <ele>92.4</ele>
        <time>2018-03-05T18:30:46Z</time>
      </trkpt>
      <trkpt lat="62.632809312476" lon="17.974491945737">
        <ele>92.4</ele>
        <time>2018-03-05T18:30:47Z</time>
      </trkpt>
      <trkpt lat="62.632778550903" lon="17.974516420885">
        <ele>92.4</ele>
        <time>2018-03-05T18:30:48Z</time>
      </trkpt>
      <trkpt lat="62.632744688027" lon="17.974514744505">
        <ele>92.4</ele>
        <time>2018-03-05T18:30:49Z</time>
      </trkpt>
      <trkpt lat="62.632712501531" lon="17.974498315981">
        <ele>92.4</ele>
        <time>2018-03-05T18:30:50Z</time>
      </trkpt>
      <trkpt lat="62.632678638655" lon="17.974481971276">
        <ele>92.4</ele>
        <time>2018-03-05T18:30:51Z</time>
      </trkpt>
      <trkpt lat="62.632650810747" lon="17.9744648722">
        <ele>92.4</ele>
        <time>2018-03-05T18:30:52Z</time>
      </trkpt>
      <trkpt lat="62.632621641735" lon="17.974453305178">
        <ele>92.6</ele>
        <time>2018-03-05T18:30:53Z</time>
      </trkpt>
      <trkpt lat="62.63259188599" lon="17.974427069831">
        <ele>92.6</ele>
        <time>2018-03-05T18:30:54Z</time>
      </trkpt>
      <trkpt lat="62.632567829937" lon="17.974410808945">
        <ele>93</ele>
        <time>2018-03-05T18:30:55Z</time>
      </trkpt>
      <trkpt lat="62.632546539911" lon="17.974383232494">
        <ele>93</ele>
        <time>2018-03-05T18:30:56Z</time>
      </trkpt>
      <trkpt lat="62.632519550193" lon="17.974353895844">
        <ele>93</ele>
        <time>2018-03-05T18:30:57Z</time>
      </trkpt>
      <trkpt lat="62.632490381181" lon="17.974322212262">
        <ele>93.2</ele>
        <time>2018-03-05T18:30:58Z</time>
      </trkpt>
      <trkpt lat="62.632462888549" lon="17.974289522852">
        <ele>93.4</ele>
        <time>2018-03-05T18:30:59Z</time>
      </trkpt>
      <trkpt lat="62.632434557727" lon="17.974268484283">
        <ele>93.2</ele>
        <time>2018-03-05T18:31:00Z</time>
      </trkpt>
      <trkpt lat="62.632405053439" lon="17.97424107547">
        <ele>93.2</ele>
        <time>2018-03-05T18:31:01Z</time>
      </trkpt>
      <trkpt lat="62.632375465332" lon="17.9742134152">
        <ele>93.4</ele>
        <time>2018-03-05T18:31:02Z</time>
      </trkpt>
      <trkpt lat="62.632350738727" lon="17.974183072722">
        <ele>93.4</ele>
        <time>2018-03-05T18:31:03Z</time>
      </trkpt>
      <trkpt lat="62.632320731525" lon="17.974151221502">
        <ele>93.4</ele>
        <time>2018-03-05T18:31:04Z</time>
      </trkpt>
      <trkpt lat="62.632299776775" lon="17.974130937304">
        <ele>93.4</ele>
        <time>2018-03-05T18:31:05Z</time>
      </trkpt>
      <trkpt lat="62.632274714894" lon="17.974099169903">
        <ele>93.6</ele>
        <time>2018-03-05T18:31:06Z</time>
      </trkpt>
      <trkpt lat="62.632250491203" lon="17.974073018375">
        <ele>93.4</ele>
        <time>2018-03-05T18:31:07Z</time>
      </trkpt>
      <trkpt lat="62.63222308239" lon="17.97404074806">
        <ele>93.4</ele>
        <time>2018-03-05T18:31:08Z</time>
      </trkpt>
      <trkpt lat="62.632192153179" lon="17.974007136641">
        <ele>93.4</ele>
        <time>2018-03-05T18:31:09Z</time>
      </trkpt>
      <trkpt lat="62.632166001651" lon="17.973972770851">
        <ele>93.4</ele>
        <time>2018-03-05T18:31:10Z</time>
      </trkpt>
      <trkpt lat="62.632135156259" lon="17.973940584355">
        <ele>93.4</ele>
        <time>2018-03-05T18:31:11Z</time>
      </trkpt>
      <trkpt lat="62.632104478505" lon="17.973903703995">
        <ele>93.4</ele>
        <time>2018-03-05T18:31:12Z</time>
      </trkpt>
      <trkpt lat="62.632070615629" lon="17.973872858603">
        <ele>93.6</ele>
        <time>2018-03-05T18:31:13Z</time>
      </trkpt>
      <trkpt lat="62.632040859884" lon="17.97384042065">
        <ele>93.6</ele>
        <time>2018-03-05T18:31:14Z</time>
      </trkpt>
      <trkpt lat="62.632013451071" lon="17.973806138679">
        <ele>93.4</ele>
        <time>2018-03-05T18:31:15Z</time>
      </trkpt>
      <trkpt lat="62.631988556828" lon="17.973782501721">
        <ele>93.4</ele>
        <time>2018-03-05T18:31:16Z</time>
      </trkpt>
      <trkpt lat="62.631958801083" lon="17.973752159243">
        <ele>93.4</ele>
        <time>2018-03-05T18:31:17Z</time>
      </trkpt>
      <trkpt lat="62.631922926551" lon="17.973718212548">
        <ele>93.2</ele>
        <time>2018-03-05T18:31:18Z</time>
      </trkpt>
      <trkpt lat="62.63189367372" lon="17.973682673292">
        <ele>93.2</ele>
        <time>2018-03-05T18:31:19Z</time>
      </trkpt>
      <trkpt lat="62.631866432545" lon="17.973641015249">
        <ele>93.2</ele>
        <time>2018-03-05T18:31:20Z</time>
      </trkpt>
      <trkpt lat="62.631837850266" lon="17.973612013875">
        <ele>93.2</ele>
        <time>2018-03-05T18:31:21Z</time>
      </trkpt>
      <trkpt lat="62.631811447281" lon="17.973577061352">
        <ele>93.2</ele>
        <time>2018-03-05T18:31:22Z</time>
      </trkpt>
      <trkpt lat="62.631780685708" lon="17.973546635055">
        <ele>93</ele>
        <time>2018-03-05T18:31:23Z</time>
      </trkpt>
      <trkpt lat="62.631751013782" lon="17.973513945645">
        <ele>93</ele>
        <time>2018-03-05T18:31:24Z</time>
      </trkpt>
      <trkpt lat="62.631720587485" lon="17.973481088597">
        <ele>92.8</ele>
        <time>2018-03-05T18:31:25Z</time>
      </trkpt>
      <trkpt lat="62.631693094853" lon="17.97346323515">
        <ele>92.8</ele>
        <time>2018-03-05T18:31:26Z</time>
      </trkpt>
      <trkpt lat="62.631660908357" lon="17.973447812454">
        <ele>92.8</ele>
        <time>2018-03-05T18:31:27Z</time>
      </trkpt>
      <trkpt lat="62.631629057137" lon="17.973450327024">
        <ele>92.8</ele>
        <time>2018-03-05T18:31:28Z</time>
      </trkpt>
      <trkpt lat="62.631609108215" lon="17.973459966209">
        <ele>92.6</ele>
        <time>2018-03-05T18:31:29Z</time>
      </trkpt>
      <trkpt lat="62.63157767609" lon="17.973483435529">
        <ele>92.6</ele>
        <time>2018-03-05T18:31:30Z</time>
      </trkpt>
      <trkpt lat="62.63154750125" lon="17.973526015581">
        <ele>92.6</ele>
        <time>2018-03-05T18:31:31Z</time>
      </trkpt>
      <trkpt lat="62.631514979478" lon="17.973555938964">
        <ele>92.6</ele>
        <time>2018-03-05T18:31:32Z</time>
      </trkpt>
      <trkpt lat="62.631484385543" lon="17.973586616718">
        <ele>92.4</ele>
        <time>2018-03-05T18:31:33Z</time>
      </trkpt>
      <trkpt lat="62.631455048893" lon="17.973621485422">
        <ele>92.4</ele>
        <time>2018-03-05T18:31:34Z</time>
      </trkpt>
      <trkpt lat="62.631426131338" lon="17.973657779049">
        <ele>92.4</ele>
        <time>2018-03-05T18:31:35Z</time>
      </trkpt>
      <trkpt lat="62.631399393077" lon="17.97369876654">
        <ele>92.4</ele>
        <time>2018-03-05T18:31:36Z</time>
      </trkpt>
      <trkpt lat="62.631373241549" lon="17.973735730719">
        <ele>92.4</ele>
        <time>2018-03-05T18:31:37Z</time>
      </trkpt>
      <trkpt lat="62.631338959578" lon="17.973770767061">
        <ele>92.6</ele>
        <time>2018-03-05T18:31:38Z</time>
      </trkpt>
      <trkpt lat="62.631310209661" lon="17.973813179475">
        <ele>92.6</ele>
        <time>2018-03-05T18:31:39Z</time>
      </trkpt>
      <trkpt lat="62.63127928045" lon="17.973850814206">
        <ele>92.6</ele>
        <time>2018-03-05T18:31:40Z</time>
      </trkpt>
      <trkpt lat="62.631251033447" lon="17.973882497788">
        <ele>92.6</ele>
        <time>2018-03-05T18:31:41Z</time>
      </trkpt>
      <trkpt lat="62.631215745648" lon="17.973921054528">
        <ele>92.4</ele>
        <time>2018-03-05T18:31:42Z</time>
      </trkpt>
      <trkpt lat="62.631182469505" lon="17.97395525268">
        <ele>92.6</ele>
        <time>2018-03-05T18:31:43Z</time>
      </trkpt>
      <trkpt lat="62.631152127027" lon="17.973979476371">
        <ele>92.4</ele>
        <time>2018-03-05T18:31:44Z</time>
      </trkpt>
      <trkpt lat="62.631115162848" lon="17.973994479972">
        <ele>92.4</ele>
        <time>2018-03-05T18:31:45Z</time>
      </trkpt>
      <trkpt lat="62.631088927501" lon="17.974007136641">
        <ele>92.2</ele>
        <time>2018-03-05T18:31:46Z</time>
      </trkpt>
      <trkpt lat="62.631058501204" lon="17.974006969003">
        <ele>92.2</ele>
        <time>2018-03-05T18:31:47Z</time>
      </trkpt>
      <trkpt lat="62.631018938636" lon="17.973997329818">
        <ele>92.2</ele>
        <time>2018-03-05T18:31:48Z</time>
      </trkpt>
      <trkpt lat="62.630984991941" lon="17.973977129439">
        <ele>91.8</ele>
        <time>2018-03-05T18:31:49Z</time>
      </trkpt>
      <trkpt lat="62.630952805445" lon="17.973943434201">
        <ele>92</ele>
        <time>2018-03-05T18:31:50Z</time>
      </trkpt>
      <trkpt lat="62.630917601465" lon="17.973907308212">
        <ele>91.8</ele>
        <time>2018-03-05T18:31:51Z</time>
      </trkpt>
      <trkpt lat="62.630896395258" lon="17.973874451164">
        <ele>91.8</ele>
        <time>2018-03-05T18:31:52Z</time>
      </trkpt>
      <trkpt lat="62.630854234301" lon="17.97379767296">
        <ele>91.6</ele>
        <time>2018-03-05T18:31:53Z</time>
      </trkpt>
      <trkpt lat="62.630829759153" lon="17.973721984403">
        <ele>91.4</ele>
        <time>2018-03-05T18:31:54Z</time>
      </trkpt>
      <trkpt lat="62.630810648421" lon="17.973647301674">
        <ele>91.6</ele>
        <time>2018-03-05T18:31:55Z</time>
      </trkpt>
      <trkpt lat="62.630789358395" lon="17.973595585351">
        <ele>91.6</ele>
        <time>2018-03-05T18:31:56Z</time>
      </trkpt>
      <trkpt lat="62.630768068369" lon="17.973533056377">
        <ele>91.4</ele>
        <time>2018-03-05T18:31:57Z</time>
      </trkpt>
      <trkpt lat="62.630754322053" lon="17.973455439983">
        <ele>91.6</ele>
        <time>2018-03-05T18:31:58Z</time>
      </trkpt>
      <trkpt lat="62.630736636244" lon="17.973391234629">
        <ele>91.6</ele>
        <time>2018-03-05T18:31:59Z</time>
      </trkpt>
      <trkpt lat="62.630714424209" lon="17.973313282959">
        <ele>91.4</ele>
        <time>2018-03-05T18:32:00Z</time>
      </trkpt>
      <trkpt lat="62.630699839703" lon="17.973246311578">
        <ele>91.2</ele>
        <time>2018-03-05T18:32:01Z</time>
      </trkpt>
      <trkpt lat="62.630679555505" lon="17.973173891962">
        <ele>91.4</ele>
        <time>2018-03-05T18:32:02Z</time>
      </trkpt>
      <trkpt lat="62.630650470312" lon="17.973092168437">
        <ele>91.2</ele>
        <time>2018-03-05T18:32:03Z</time>
      </trkpt>
      <trkpt lat="62.630632868322" lon="17.973029723282">
        <ele>90.8</ele>
        <time>2018-03-05T18:32:04Z</time>
      </trkpt>
      <trkpt lat="62.630613673771" lon="17.972960572607">
        <ele>91</ele>
        <time>2018-03-05T18:32:05Z</time>
      </trkpt>
      <trkpt lat="62.630592970478" lon="17.972897624538">
        <ele>91</ele>
        <time>2018-03-05T18:32:06Z</time>
      </trkpt>
      <trkpt lat="62.630572434823" lon="17.972838699781">
        <ele>90.8</ele>
        <time>2018-03-05T18:32:07Z</time>
      </trkpt>
      <trkpt lat="62.630551312435" lon="17.972767621269">
        <ele>90.8</ele>
        <time>2018-03-05T18:32:08Z</time>
      </trkpt>
      <trkpt lat="62.630533458988" lon="17.972700566069">
        <ele>90.6</ele>
        <time>2018-03-05T18:32:09Z</time>
      </trkpt>
      <trkpt lat="62.630517533378" lon="17.972619094001">
        <ele>90.8</ele>
        <time>2018-03-05T18:32:10Z</time>
      </trkpt>
      <trkpt lat="62.630501356311" lon="17.972559079597">
        <ele>90.8</ele>
        <time>2018-03-05T18:32:11Z</time>
      </trkpt>
      <trkpt lat="62.63049138185" lon="17.972484145411">
        <ele>90.8</ele>
        <time>2018-03-05T18:32:12Z</time>
      </trkpt>
      <trkpt lat="62.630478473724" lon="17.97241214489">
        <ele>90.6</ele>
        <time>2018-03-05T18:32:13Z</time>
      </trkpt>
      <trkpt lat="62.6304704271" lon="17.972339892912">
        <ele>90.6</ele>
        <time>2018-03-05T18:32:14Z</time>
      </trkpt>
      <trkpt lat="62.630461458467" lon="17.972264874907">
        <ele>90.6</ele>
        <time>2018-03-05T18:32:15Z</time>
      </trkpt>
      <trkpt lat="62.630446538685" lon="17.972195640413">
        <ele>90.4</ele>
        <time>2018-03-05T18:32:16Z</time>
      </trkpt>
      <trkpt lat="62.630440922812" lon="17.972121963512">
        <ele>90.4</ele>
        <time>2018-03-05T18:32:17Z</time>
      </trkpt>
      <trkpt lat="62.630430613075" lon="17.972049376258">
        <ele>90.2</ele>
        <time>2018-03-05T18:32:18Z</time>
      </trkpt>
      <trkpt lat="62.63041678294" lon="17.97197293333">
        <ele>90.2</ele>
        <time>2018-03-05T18:32:19Z</time>
      </trkpt>
      <trkpt lat="62.63040421009" lon="17.971890539253">
        <ele>90</ele>
        <time>2018-03-05T18:32:20Z</time>
      </trkpt>
      <trkpt lat="62.630393062163" lon="17.97182625008">
        <ele>90</ele>
        <time>2018-03-05T18:32:21Z</time>
      </trkpt>
      <trkpt lat="62.630384009711" lon="17.971761877088">
        <ele>90</ele>
        <time>2018-03-05T18:32:22Z</time>
      </trkpt>
      <trkpt lat="62.630365485712" lon="17.971694067517">
        <ele>90</ele>
        <time>2018-03-05T18:32:23Z</time>
      </trkpt>
      <trkpt lat="62.63035224231" lon="17.971622989005">
        <ele>89.8</ele>
        <time>2018-03-05T18:32:24Z</time>
      </trkpt>
      <trkpt lat="62.630347799903" lon="17.971544869697">
        <ele>90</ele>
        <time>2018-03-05T18:32:25Z</time>
      </trkpt>
      <trkpt lat="62.63033883127" lon="17.971473036814">
        <ele>89.8</ele>
        <time>2018-03-05T18:32:26Z</time>
      </trkpt>
      <trkpt lat="62.630334053587" lon="17.971394079316">
        <ele>89.8</ele>
        <time>2018-03-05T18:32:27Z</time>
      </trkpt>
      <trkpt lat="62.630329359723" lon="17.97131830694">
        <ele>89.6</ele>
        <time>2018-03-05T18:32:28Z</time>
      </trkpt>
      <trkpt lat="62.630325504049" lon="17.971246390238">
        <ele>89.6</ele>
        <time>2018-03-05T18:32:29Z</time>
      </trkpt>
      <trkpt lat="62.630324162945" lon="17.971158967021">
        <ele>89.6</ele>
        <time>2018-03-05T18:32:30Z</time>
      </trkpt>
      <trkpt lat="62.630320642547" lon="17.971086212129">
        <ele>89.6</ele>
        <time>2018-03-05T18:32:31Z</time>
      </trkpt>
      <trkpt lat="62.630324330583" lon="17.971007170812">
        <ele>89.6</ele>
        <time>2018-03-05T18:32:32Z</time>
      </trkpt>
      <trkpt lat="62.630330197913" lon="17.970918657948">
        <ele>89.4</ele>
        <time>2018-03-05T18:32:33Z</time>
      </trkpt>
      <trkpt lat="62.630331874293" lon="17.970825283582">
        <ele>89.6</ele>
        <time>2018-03-05T18:32:34Z</time>
      </trkpt>
      <trkpt lat="62.630340340012" lon="17.970759737124">
        <ele>89.4</ele>
        <time>2018-03-05T18:32:35Z</time>
      </trkpt>
      <trkpt lat="62.630354086328" lon="17.970671308079">
        <ele>89.2</ele>
        <time>2018-03-05T18:32:36Z</time>
      </trkpt>
      <trkpt lat="62.630378477657" lon="17.970590422744">
        <ele>89.2</ele>
        <time>2018-03-05T18:32:37Z</time>
      </trkpt>
      <trkpt lat="62.63040588647" lon="17.970504508269">
        <ele>89</ele>
        <time>2018-03-05T18:32:38Z</time>
      </trkpt>
      <trkpt lat="62.630443353563" lon="17.970445248236">
        <ele>89</ele>
        <time>2018-03-05T18:32:39Z</time>
      </trkpt>
      <trkpt lat="62.630476210611" lon="17.970386994031">
        <ele>88.8</ele>
        <time>2018-03-05T18:32:40Z</time>
      </trkpt>
      <trkpt lat="62.630515102627" lon="17.970345755083">
        <ele>88.6</ele>
        <time>2018-03-05T18:32:41Z</time>
      </trkpt>
      <trkpt lat="62.630552737358" lon="17.97031247894">
        <ele>88.4</ele>
        <time>2018-03-05T18:32:42Z</time>
      </trkpt>
      <trkpt lat="62.630595485048" lon="17.970284483394">
        <ele>88</ele>
        <time>2018-03-05T18:32:43Z</time>
      </trkpt>
      <trkpt lat="62.630633371236" lon="17.970260678798">
        <ele>87.4</ele>
        <time>2018-03-05T18:32:44Z</time>
      </trkpt>
      <trkpt lat="62.630673017623" lon="17.970231845062">
        <ele>87</ele>
        <time>2018-03-05T18:32:45Z</time>
      </trkpt>
      <trkpt lat="62.630706377585" lon="17.970214075434">
        <ele>86.6</ele>
        <time>2018-03-05T18:32:46Z</time>
      </trkpt>
      <trkpt lat="62.63074535342" lon="17.970194461788">
        <ele>86.6</ele>
        <time>2018-03-05T18:32:47Z</time>
      </trkpt>
      <trkpt lat="62.630786760006" lon="17.970175267237">
        <ele>86.4</ele>
        <time>2018-03-05T18:32:48Z</time>
      </trkpt>
      <trkpt lat="62.630818778864" lon="17.970157665247">
        <ele>86.2</ele>
        <time>2018-03-05T18:32:49Z</time>
      </trkpt>
      <trkpt lat="62.630854485758" lon="17.970141991094">
        <ele>86.2</ele>
        <time>2018-03-05T18:32:50Z</time>
      </trkpt>
      <trkpt lat="62.630883319494" lon="17.970125227294">
        <ele>86.2</ele>
        <time>2018-03-05T18:32:51Z</time>
      </trkpt>
      <trkpt lat="62.6309146678" lon="17.970099075766">
        <ele>85.8</ele>
        <time>2018-03-05T18:32:53Z</time>
      </trkpt>
      <trkpt lat="62.630926067184" lon="17.970091615875">
        <ele>86</ele>
        <time>2018-03-05T18:32:54Z</time>
      </trkpt>
      <trkpt lat="62.630935203455" lon="17.970107876761">
        <ele>86</ele>
        <time>2018-03-05T18:32:55Z</time>
      </trkpt>
      <trkpt lat="62.630935874007" lon="17.970130256434">
        <ele>86</ele>
        <time>2018-03-05T18:32:56Z</time>
      </trkpt>
      <trkpt lat="62.630934281446" lon="17.970141571999">
        <ele>86</ele>
        <time>2018-03-05T18:32:57Z</time>
      </trkpt>
      <trkpt lat="62.630928749392" lon="17.970150624451">
        <ele>86</ele>
        <time>2018-03-05T18:32:58Z</time>
      </trkpt>
      <trkpt lat="62.630931934514" lon="17.970149283347">
        <ele>86</ele>
        <time>2018-03-05T18:32:59Z</time>
      </trkpt>
      <trkpt lat="62.631227061213" lon="17.969988350867">
        <ele>85.4</ele>
        <time>2018-03-05T18:34:48Z</time>
      </trkpt>
      <trkpt lat="62.631252793646" lon="17.969974269275">
        <ele>85.4</ele>
        <time>2018-03-05T18:34:49Z</time>
      </trkpt>
      <trkpt lat="62.63128514778" lon="17.969955577638">
        <ele>85.4</ele>
        <time>2018-03-05T18:34:50Z</time>
      </trkpt>
      <trkpt lat="62.631314987344" lon="17.969938730019">
        <ele>85.2</ele>
        <time>2018-03-05T18:34:51Z</time>
      </trkpt>
      <trkpt lat="62.631345246003" lon="17.969924061694">
        <ele>85.2</ele>
        <time>2018-03-05T18:34:52Z</time>
      </trkpt>
      <trkpt lat="62.631366536029" lon="17.969901598202">
        <ele>85.2</ele>
        <time>2018-03-05T18:34:53Z</time>
      </trkpt>
      <trkpt lat="62.631403751665" lon="17.969877709787">
        <ele>85</ele>
        <time>2018-03-05T18:34:54Z</time>
      </trkpt>
      <trkpt lat="62.631428310632" lon="17.969866394222">
        <ele>85</ele>
        <time>2018-03-05T18:34:55Z</time>
      </trkpt>
      <trkpt lat="62.631458150196" lon="17.969847199671">
        <ele>85</ele>
        <time>2018-03-05T18:34:56Z</time>
      </trkpt>
      <trkpt lat="62.631486648656" lon="17.969830435871">
        <ele>85</ele>
        <time>2018-03-05T18:34:57Z</time>
      </trkpt>
      <trkpt lat="62.631522523188" lon="17.969812750062">
        <ele>85</ele>
        <time>2018-03-05T18:34:58Z</time>
      </trkpt>
      <trkpt lat="62.63155420677" lon="17.969795231891">
        <ele>84.8</ele>
        <time>2018-03-05T18:34:59Z</time>
      </trkpt>
      <trkpt lat="62.631583375782" lon="17.969771762571">
        <ele>84.6</ele>
        <time>2018-03-05T18:35:00Z</time>
      </trkpt>
      <trkpt lat="62.631619250314" lon="17.96975172983">
        <ele>84.6</ele>
        <time>2018-03-05T18:35:01Z</time>
      </trkpt>
      <trkpt lat="62.631646994403" lon="17.969732032365">
        <ele>84.6</ele>
        <time>2018-03-05T18:35:02Z</time>
      </trkpt>
      <trkpt lat="62.631679264718" lon="17.969708563045">
        <ele>84.4</ele>
        <time>2018-03-05T18:35:03Z</time>
      </trkpt>
      <trkpt lat="62.631709020463" lon="17.96968048368">
        <ele>84.6</ele>
        <time>2018-03-05T18:35:04Z</time>
      </trkpt>
      <trkpt lat="62.631735171991" lon="17.969643770958">
        <ele>84.6</ele>
        <time>2018-03-05T18:35:05Z</time>
      </trkpt>
      <trkpt lat="62.631768951048" lon="17.969606555322">
        <ele>84.4</ele>
        <time>2018-03-05T18:35:06Z</time>
      </trkpt>
      <trkpt lat="62.631795018757" lon="17.969574536464">
        <ele>84</ele>
        <time>2018-03-05T18:35:07Z</time>
      </trkpt>
      <trkpt lat="62.631825947968" lon="17.969549809859">
        <ele>83.8</ele>
        <time>2018-03-05T18:35:08Z</time>
      </trkpt>
      <trkpt lat="62.631848830555" lon="17.969524161245">
        <ele>83.6</ele>
        <time>2018-03-05T18:35:09Z</time>
      </trkpt>
      <trkpt lat="62.631879256852" lon="17.969520640847">
        <ele>83.6</ele>
        <time>2018-03-05T18:35:10Z</time>
      </trkpt>
      <trkpt lat="62.631902474715" lon="17.96953547681">
        <ele>83.4</ele>
        <time>2018-03-05T18:35:11Z</time>
      </trkpt>
      <trkpt lat="62.631932481917" lon="17.969537907561">
        <ele>83.4</ele>
        <time>2018-03-05T18:35:12Z</time>
      </trkpt>
      <trkpt lat="62.631965841879" lon="17.969536901733">
        <ele>83.6</ele>
        <time>2018-03-05T18:35:13Z</time>
      </trkpt>
      <trkpt lat="62.631991322855" lon="17.969533297516">
        <ele>83.6</ele>
        <time>2018-03-05T18:35:14Z</time>
      </trkpt>
      <trkpt lat="62.632017306745" lon="17.969531118222">
        <ele>83.6</ele>
        <time>2018-03-05T18:35:15Z</time>
      </trkpt>
      <trkpt lat="62.632041446617" lon="17.969529777118">
        <ele>83.8</ele>
        <time>2018-03-05T18:35:16Z</time>
      </trkpt>
      <trkpt lat="62.632071286181" lon="17.969524831797">
        <ele>84.2</ele>
        <time>2018-03-05T18:35:17Z</time>
      </trkpt>
      <trkpt lat="62.632098778813" lon="17.969518126277">
        <ele>84.4</ele>
        <time>2018-03-05T18:35:18Z</time>
      </trkpt>
      <trkpt lat="62.632126355264" lon="17.96950949292">
        <ele>84.4</ele>
        <time>2018-03-05T18:35:19Z</time>
      </trkpt>
      <trkpt lat="62.632155440457" lon="17.969500943382">
        <ele>84.4</ele>
        <time>2018-03-05T18:35:20Z</time>
      </trkpt>
      <trkpt lat="62.632179915605" lon="17.969490466007">
        <ele>84.4</ele>
        <time>2018-03-05T18:35:21Z</time>
      </trkpt>
      <trkpt lat="62.632206067133" lon="17.969478647528">
        <ele>84.4</ele>
        <time>2018-03-05T18:35:22Z</time>
      </trkpt>
      <trkpt lat="62.63223565524" lon="17.969466912868">
        <ele>84.2</ele>
        <time>2018-03-05T18:35:23Z</time>
      </trkpt>
      <trkpt lat="62.632264405157" lon="17.969458950063">
        <ele>84.4</ele>
        <time>2018-03-05T18:35:24Z</time>
      </trkpt>
      <trkpt lat="62.632294244721" lon="17.969454088561">
        <ele>84.4</ele>
        <time>2018-03-05T18:35:25Z</time>
      </trkpt>
      <trkpt lat="62.632320731525" lon="17.969450568163">
        <ele>84.2</ele>
        <time>2018-03-05T18:35:26Z</time>
      </trkpt>
      <trkpt lat="62.632350151994" lon="17.969447131584">
        <ele>84.2</ele>
        <time>2018-03-05T18:35:27Z</time>
      </trkpt>
      <trkpt lat="62.632376303522" lon="17.969446544851">
        <ele>84.4</ele>
        <time>2018-03-05T18:35:28Z</time>
      </trkpt>
      <trkpt lat="62.63240413143" lon="17.969448891783">
        <ele>84.2</ele>
        <time>2018-03-05T18:35:29Z</time>
      </trkpt>
      <trkpt lat="62.632431875519" lon="17.969452747457">
        <ele>84.2</ele>
        <time>2018-03-05T18:35:30Z</time>
      </trkpt>
      <trkpt lat="62.632461295988" lon="17.969458195692">
        <ele>84.4</ele>
        <time>2018-03-05T18:35:31Z</time>
      </trkpt>
      <trkpt lat="62.63249214138" lon="17.969463895384">
        <ele>84.4</ele>
        <time>2018-03-05T18:35:32Z</time>
      </trkpt>
      <trkpt lat="62.632520220745" lon="17.969470684723">
        <ele>84.2</ele>
        <time>2018-03-05T18:35:33Z</time>
      </trkpt>
      <trkpt lat="62.632545198807" lon="17.969474708035">
        <ele>84.2</ele>
        <time>2018-03-05T18:35:34Z</time>
      </trkpt>
      <trkpt lat="62.632574367819" lon="17.969483173754">
        <ele>84.4</ele>
        <time>2018-03-05T18:35:35Z</time>
      </trkpt>
      <trkpt lat="62.632600938442" lon="17.969489292541">
        <ele>84.2</ele>
        <time>2018-03-05T18:35:36Z</time>
      </trkpt>
      <trkpt lat="62.632629855997" lon="17.969494070224">
        <ele>84.2</ele>
        <time>2018-03-05T18:35:37Z</time>
      </trkpt>
      <trkpt lat="62.632658186819" lon="17.969501613934">
        <ele>84.2</ele>
        <time>2018-03-05T18:35:38Z</time>
      </trkpt>
      <trkpt lat="62.632684422166" lon="17.969507313626">
        <ele>84.4</ele>
        <time>2018-03-05T18:35:39Z</time>
      </trkpt>
      <trkpt lat="62.632708562038" lon="17.969512678042">
        <ele>84.2</ele>
        <time>2018-03-05T18:35:40Z</time>
      </trkpt>
      <trkpt lat="62.632734629747" lon="17.969519048286">
        <ele>84.4</ele>
        <time>2018-03-05T18:35:41Z</time>
      </trkpt>
      <trkpt lat="62.632761535646" lon="17.969521730494">
        <ele>84.4</ele>
        <time>2018-03-05T18:35:42Z</time>
      </trkpt>
      <trkpt lat="62.632784334414" lon="17.969524328883">
        <ele>84.6</ele>
        <time>2018-03-05T18:35:43Z</time>
      </trkpt>
      <trkpt lat="62.632807971372" lon="17.969529274204">
        <ele>84.6</ele>
        <time>2018-03-05T18:35:44Z</time>
      </trkpt>
      <trkpt lat="62.632833368529" lon="17.969533465154">
        <ele>84.8</ele>
        <time>2018-03-05T18:35:45Z</time>
      </trkpt>
      <trkpt lat="62.632859184781" lon="17.96953715319">
        <ele>84.8</ele>
        <time>2018-03-05T18:35:46Z</time>
      </trkpt>
      <trkpt lat="62.632889611078" lon="17.969541763235">
        <ele>84.8</ele>
        <time>2018-03-05T18:35:47Z</time>
      </trkpt>
      <trkpt lat="62.632918444814" lon="17.969546792375">
        <ele>84.8</ele>
        <time>2018-03-05T18:35:48Z</time>
      </trkpt>
      <trkpt lat="62.632944931618" lon="17.9695530788">
        <ele>84.8</ele>
        <time>2018-03-05T18:35:49Z</time>
      </trkpt>
      <trkpt lat="62.632971418422" lon="17.969553246438">
        <ele>85</ele>
        <time>2018-03-05T18:35:50Z</time>
      </trkpt>
      <trkpt lat="62.632997737588" lon="17.969559113768">
        <ele>84.8</ele>
        <time>2018-03-05T18:35:51Z</time>
      </trkpt>
      <trkpt lat="62.633024475849" lon="17.969565484012">
        <ele>85</ele>
        <time>2018-03-05T18:35:52Z</time>
      </trkpt>
      <trkpt lat="62.633052303757" lon="17.969575374654">
        <ele>85.2</ele>
        <time>2018-03-05T18:35:53Z</time>
      </trkpt>
      <trkpt lat="62.633079461113" lon="17.969585600572">
        <ele>85</ele>
        <time>2018-03-05T18:35:54Z</time>
      </trkpt>
      <trkpt lat="62.633106031736" lon="17.969593731015">
        <ele>85</ele>
        <time>2018-03-05T18:35:55Z</time>
      </trkpt>
      <trkpt lat="62.633133272911" lon="17.969600520354">
        <ele>85.2</ele>
        <time>2018-03-05T18:35:56Z</time>
      </trkpt>
      <trkpt lat="62.63316269338" lon="17.969613177023">
        <ele>85.2</ele>
        <time>2018-03-05T18:35:57Z</time>
      </trkpt>
      <trkpt lat="62.633186749433" lon="17.969625246959">
        <ele>85</ele>
        <time>2018-03-05T18:35:58Z</time>
      </trkpt>
      <trkpt lat="62.633219019748" lon="17.969637484533">
        <ele>85.2</ele>
        <time>2018-03-05T18:35:59Z</time>
      </trkpt>
      <trkpt lat="62.633245925647" lon="17.96965198522">
        <ele>85.2</ele>
        <time>2018-03-05T18:36:00Z</time>
      </trkpt>
      <trkpt lat="62.63326914351" lon="17.96966791083">
        <ele>85.4</ele>
        <time>2018-03-05T18:36:01Z</time>
      </trkpt>
      <trkpt lat="62.633296887599" lon="17.969685429001">
        <ele>85.2</ele>
        <time>2018-03-05T18:36:02Z</time>
      </trkpt>
      <trkpt lat="62.633321362747" lon="17.969707221941">
        <ele>85.2</ele>
        <time>2018-03-05T18:36:03Z</time>
      </trkpt>
      <trkpt lat="62.633343574782" lon="17.969739073161">
        <ele>85.4</ele>
        <time>2018-03-05T18:36:04Z</time>
      </trkpt>
      <trkpt lat="62.633363188428" lon="17.969779893014">
        <ele>85.6</ele>
        <time>2018-03-05T18:36:05Z</time>
      </trkpt>
      <trkpt lat="62.63337810821" lon="17.969818868849">
        <ele>85.6</ele>
        <time>2018-03-05T18:36:06Z</time>
      </trkpt>
      <trkpt lat="62.633387998852" lon="17.969871842457">
        <ele>85.8</ele>
        <time>2018-03-05T18:36:07Z</time>
      </trkpt>
      <trkpt lat="62.633390848698" lon="17.969919032554">
        <ele>85.8</ele>
        <time>2018-03-05T18:36:08Z</time>
      </trkpt>
      <trkpt lat="62.633394201458" lon="17.969972089981">
        <ele>85.8</ele>
        <time>2018-03-05T18:36:09Z</time>
      </trkpt>
      <trkpt lat="62.633399146779" lon="17.970025315046">
        <ele>86</ele>
        <time>2018-03-05T18:36:10Z</time>
      </trkpt>
      <trkpt lat="62.633407025765" lon="17.970078037197">
        <ele>86</ele>
        <time>2018-03-05T18:36:11Z</time>
      </trkpt>
      <trkpt lat="62.633414820932" lon="17.970135369393">
        <ele>86</ele>
        <time>2018-03-05T18:36:12Z</time>
      </trkpt>
      <trkpt lat="62.633420352986" lon="17.97018926501">
        <ele>86</ele>
        <time>2018-03-05T18:36:13Z</time>
      </trkpt>
      <trkpt lat="62.633424460117" lon="17.970240059324">
        <ele>86.2</ele>
        <time>2018-03-05T18:36:14Z</time>
      </trkpt>
      <trkpt lat="62.633425130669" lon="17.970291859466">
        <ele>86.2</ele>
        <time>2018-03-05T18:36:15Z</time>
      </trkpt>
      <trkpt lat="62.633425633583" lon="17.970345838902">
        <ele>86.2</ele>
        <time>2018-03-05T18:36:16Z</time>
      </trkpt>
      <trkpt lat="62.633428818705" lon="17.970398728691">
        <ele>86.4</ele>
        <time>2018-03-05T18:36:17Z</time>
      </trkpt>
      <trkpt lat="62.633432171465" lon="17.970456899077">
        <ele>86.4</ele>
        <time>2018-03-05T18:36:18Z</time>
      </trkpt>
      <trkpt lat="62.633435691863" lon="17.970507274296">
        <ele>86.6</ele>
        <time>2018-03-05T18:36:19Z</time>
      </trkpt>
      <trkpt lat="62.633438374071" lon="17.970560164085">
        <ele>86.8</ele>
        <time>2018-03-05T18:36:20Z</time>
      </trkpt>
      <trkpt lat="62.633440218089" lon="17.970609952571">
        <ele>86.8</ele>
        <time>2018-03-05T18:36:21Z</time>
      </trkpt>
      <trkpt lat="62.633442481202" lon="17.970659238143">
        <ele>87</ele>
        <time>2018-03-05T18:36:22Z</time>
      </trkpt>
      <trkpt lat="62.633445331048" lon="17.970714474864">
        <ele>87.2</ele>
        <time>2018-03-05T18:36:23Z</time>
      </trkpt>
      <trkpt lat="62.633448683808" lon="17.970767197015">
        <ele>87.4</ele>
        <time>2018-03-05T18:36:24Z</time>
      </trkpt>
      <trkpt lat="62.633452120387" lon="17.970817320777">
        <ele>87.4</ele>
        <time>2018-03-05T18:36:25Z</time>
      </trkpt>
      <trkpt lat="62.633452120387" lon="17.970870210566">
        <ele>87.6</ele>
        <time>2018-03-05T18:36:26Z</time>
      </trkpt>
      <trkpt lat="62.633453461491" lon="17.970928883866">
        <ele>87.8</ele>
        <time>2018-03-05T18:36:27Z</time>
      </trkpt>
      <trkpt lat="62.633454215862" lon="17.970983114759">
        <ele>87.8</ele>
        <time>2018-03-05T18:36:28Z</time>
      </trkpt>
      <trkpt lat="62.633456562794" lon="17.971043045344">
        <ele>87.8</ele>
        <time>2018-03-05T18:36:29Z</time>
      </trkpt>
      <trkpt lat="62.633458155355" lon="17.971094845486">
        <ele>88</ele>
        <time>2018-03-05T18:36:30Z</time>
      </trkpt>
      <trkpt lat="62.63345857445" lon="17.971150249845">
        <ele>88.2</ele>
        <time>2018-03-05T18:36:31Z</time>
      </trkpt>
      <trkpt lat="62.63345941264" lon="17.971209174602">
        <ele>88.2</ele>
        <time>2018-03-05T18:36:32Z</time>
      </trkpt>
      <trkpt lat="62.633459664097" lon="17.971263740771">
        <ele>88.4</ele>
        <time>2018-03-05T18:36:33Z</time>
      </trkpt>
      <trkpt lat="62.633458490631" lon="17.971317133474">
        <ele>88.6</ele>
        <time>2018-03-05T18:36:34Z</time>
      </trkpt>
      <trkpt lat="62.633457820079" lon="17.971376896421">
        <ele>88.6</ele>
        <time>2018-03-05T18:36:35Z</time>
      </trkpt>
      <trkpt lat="62.633456646613" lon="17.971431797866">
        <ele>88.8</ele>
        <time>2018-03-05T18:36:36Z</time>
      </trkpt>
      <trkpt lat="62.633453712948" lon="17.971494075383">
        <ele>89</ele>
        <time>2018-03-05T18:36:37Z</time>
      </trkpt>
      <trkpt lat="62.63345103074" lon="17.97154545643">
        <ele>89</ele>
        <time>2018-03-05T18:36:38Z</time>
      </trkpt>
      <trkpt lat="62.633447929437" lon="17.971600357875">
        <ele>89</ele>
        <time>2018-03-05T18:36:39Z</time>
      </trkpt>
      <trkpt lat="62.633445079591" lon="17.971651655103">
        <ele>89.2</ele>
        <time>2018-03-05T18:36:40Z</time>
      </trkpt>
      <trkpt lat="62.633442984116" lon="17.971706221272">
        <ele>89.2</ele>
        <time>2018-03-05T18:36:41Z</time>
      </trkpt>
      <trkpt lat="62.633437871157" lon="17.97176506221">
        <ele>89.2</ele>
        <time>2018-03-05T18:36:42Z</time>
      </trkpt>
      <trkpt lat="62.633432758198" lon="17.971820550388">
        <ele>89.4</ele>
        <time>2018-03-05T18:36:43Z</time>
      </trkpt>
      <trkpt lat="62.633426052678" lon="17.971878553136">
        <ele>89.4</ele>
        <time>2018-03-05T18:36:44Z</time>
      </trkpt>
      <trkpt lat="62.633419766253" lon="17.971932784029">
        <ele>89.4</ele>
        <time>2018-03-05T18:36:45Z</time>
      </trkpt>
      <trkpt lat="62.633414569475" lon="17.971986176732">
        <ele>89.4</ele>
        <time>2018-03-05T18:36:46Z</time>
      </trkpt>
      <trkpt lat="62.633407109584" lon="17.972049962991">
        <ele>89.6</ele>
        <time>2018-03-05T18:36:47Z</time>
      </trkpt>
      <trkpt lat="62.633399482055" lon="17.972100170572">
        <ele>89.6</ele>
        <time>2018-03-05T18:36:48Z</time>
      </trkpt>
      <trkpt lat="62.633392273621" lon="17.972148617954">
        <ele>89.6</ele>
        <time>2018-03-05T18:36:49Z</time>
      </trkpt>
      <trkpt lat="62.633384059359" lon="17.972199747544">
        <ele>89.8</ele>
        <time>2018-03-05T18:36:50Z</time>
      </trkpt>
      <trkpt lat="62.633375509821" lon="17.972245177442">
        <ele>89.8</ele>
        <time>2018-03-05T18:36:51Z</time>
      </trkpt>
      <trkpt lat="62.633366708826" lon="17.972290691159">
        <ele>89.8</ele>
        <time>2018-03-05T18:36:52Z</time>
      </trkpt>
      <trkpt lat="62.633355979994" lon="17.972347185165">
        <ele>90.2</ele>
        <time>2018-03-05T18:36:53Z</time>
      </trkpt>
      <trkpt lat="62.633348268646" lon="17.97239789566">
        <ele>90.4</ele>
        <time>2018-03-05T18:36:54Z</time>
      </trkpt>
      <trkpt lat="62.633336617805" lon="17.972449109069">
        <ele>90.4</ele>
        <time>2018-03-05T18:36:55Z</time>
      </trkpt>
      <trkpt lat="62.633324799326" lon="17.972497975546">
        <ele>90.4</ele>
        <time>2018-03-05T18:36:56Z</time>
      </trkpt>
      <trkpt lat="62.633313735218" lon="17.972554721009">
        <ele>90.4</ele>
        <time>2018-03-05T18:36:57Z</time>
      </trkpt>
      <trkpt lat="62.633303844576" lon="17.972604425676">
        <ele>90.6</ele>
        <time>2018-03-05T18:36:58Z</time>
      </trkpt>
      <trkpt lat="62.633293618658" lon="17.972658824207">
        <ele>90.6</ele>
        <time>2018-03-05T18:36:59Z</time>
      </trkpt>
      <trkpt lat="62.633284063292" lon="17.972709031788">
        <ele>90.6</ele>
        <time>2018-03-05T18:37:00Z</time>
      </trkpt>
      <trkpt lat="62.633273250641" lon="17.972762173034">
        <ele>90.8</ele>
        <time>2018-03-05T18:37:01Z</time>
      </trkpt>
      <trkpt lat="62.633262857085" lon="17.972821097791">
        <ele>91</ele>
        <time>2018-03-05T18:37:02Z</time>
      </trkpt>
      <trkpt lat="62.633252714986" lon="17.972874239037">
        <ele>91</ele>
        <time>2018-03-05T18:37:03Z</time>
      </trkpt>
      <trkpt lat="62.633243327258" lon="17.972922518781">
        <ele>91.2</ele>
        <time>2018-03-05T18:37:04Z</time>
      </trkpt>
      <trkpt lat="62.633232095512" lon="17.972977504045">
        <ele>91.2</ele>
        <time>2018-03-05T18:37:05Z</time>
      </trkpt>
      <trkpt lat="62.633221953413" lon="17.973027292531">
        <ele>91.4</ele>
        <time>2018-03-05T18:37:06Z</time>
      </trkpt>
      <trkpt lat="62.633210051115" lon="17.973084457089">
        <ele>91.4</ele>
        <time>2018-03-05T18:37:07Z</time>
      </trkpt>
      <trkpt lat="62.633197645903" lon="17.97314137019">
        <ele>91.4</ele>
        <time>2018-03-05T18:37:08Z</time>
      </trkpt>
      <trkpt lat="62.633185659786" lon="17.973195601083">
        <ele>91.6</ele>
        <time>2018-03-05T18:37:09Z</time>
      </trkpt>
      <trkpt lat="62.633174511859" lon="17.973243210275">
        <ele>91.6</ele>
        <time>2018-03-05T18:37:10Z</time>
      </trkpt>
      <trkpt lat="62.633162022828" lon="17.973297441168">
        <ele>91.6</ele>
        <time>2018-03-05T18:37:11Z</time>
      </trkpt>
      <trkpt lat="62.633149533797" lon="17.973356365925">
        <ele>91.8</ele>
        <time>2018-03-05T18:37:12Z</time>
      </trkpt>
      <trkpt lat="62.633136541852" lon="17.973408668981">
        <ele>91.8</ele>
        <time>2018-03-05T18:37:13Z</time>
      </trkpt>
      <trkpt lat="62.633122376441" lon="17.973457786915">
        <ele>91.8</ele>
        <time>2018-03-05T18:37:14Z</time>
      </trkpt>
      <trkpt lat="62.633111731428" lon="17.973504474098">
        <ele>92</ele>
        <time>2018-03-05T18:37:15Z</time>
      </trkpt>
      <trkpt lat="62.633102511338" lon="17.9735512451">
        <ele>92</ele>
        <time>2018-03-05T18:37:16Z</time>
      </trkpt>
      <trkpt lat="62.633087004823" lon="17.973605895088">
        <ele>92</ele>
        <time>2018-03-05T18:37:17Z</time>
      </trkpt>
      <trkpt lat="62.633074767249" lon="17.973657946687">
        <ele>91.8</ele>
        <time>2018-03-05T18:37:18Z</time>
      </trkpt>
      <trkpt lat="62.633062613494" lon="17.973712512856">
        <ele>92</ele>
        <time>2018-03-05T18:37:19Z</time>
      </trkpt>
      <trkpt lat="62.63305121411" lon="17.973768001034">
        <ele>92.2</ele>
        <time>2018-03-05T18:37:20Z</time>
      </trkpt>
      <trkpt lat="62.633039227993" lon="17.973817621882">
        <ele>92.2</ele>
        <time>2018-03-05T18:37:21Z</time>
      </trkpt>
      <trkpt lat="62.633027493333" lon="17.973867494187">
        <ele>92.2</ele>
        <time>2018-03-05T18:37:22Z</time>
      </trkpt>
      <trkpt lat="62.633014669026" lon="17.973918959053">
        <ele>92.4</ele>
        <time>2018-03-05T18:37:23Z</time>
      </trkpt>
      <trkpt lat="62.633000252158" lon="17.973972603213">
        <ele>92.6</ele>
        <time>2018-03-05T18:37:24Z</time>
      </trkpt>
      <trkpt lat="62.632983739815" lon="17.974022475518">
        <ele>92.4</ele>
        <time>2018-03-05T18:37:25Z</time>
      </trkpt>
      <trkpt lat="62.632968149481" lon="17.974073269832">
        <ele>92.4</ele>
        <time>2018-03-05T18:37:26Z</time>
      </trkpt>
      <trkpt lat="62.632951050405" lon="17.974133116598">
        <ele>92.6</ele>
        <time>2018-03-05T18:37:27Z</time>
      </trkpt>
      <trkpt lat="62.632936046804" lon="17.974178797953">
        <ele>92.4</ele>
        <time>2018-03-05T18:37:28Z</time>
      </trkpt>
      <trkpt lat="62.632917774262" lon="17.974234118493">
        <ele>92.4</ele>
        <time>2018-03-05T18:37:29Z</time>
      </trkpt>
      <trkpt lat="62.632901429557" lon="17.974284409893">
        <ele>92.8</ele>
        <time>2018-03-05T18:37:30Z</time>
      </trkpt>
      <trkpt lat="62.632882570282" lon="17.974334449836">
        <ele>93</ele>
        <time>2018-03-05T18:37:31Z</time>
      </trkpt>
      <trkpt lat="62.632855999659" lon="17.974373593309">
        <ele>93</ele>
        <time>2018-03-05T18:37:32Z</time>
      </trkpt>
      <trkpt lat="62.632829764312" lon="17.974394883335">
        <ele>93.2</ele>
        <time>2018-03-05T18:37:33Z</time>
      </trkpt>
      <trkpt lat="62.632803026051" lon="17.974412485325">
        <ele>93.4</ele>
        <time>2018-03-05T18:37:34Z</time>
      </trkpt>
      <trkpt lat="62.632774276134" lon="17.974431679876">
        <ele>93.2</ele>
        <time>2018-03-05T18:37:35Z</time>
      </trkpt>
      <trkpt lat="62.632747705511" lon="17.974437463387">
        <ele>93.2</ele>
        <time>2018-03-05T18:37:36Z</time>
      </trkpt>
      <trkpt lat="62.632715016101" lon="17.97442799184">
        <ele>93.2</ele>
        <time>2018-03-05T18:37:37Z</time>
      </trkpt>
      <trkpt lat="62.632687104374" lon="17.974404773977">
        <ele>93.2</ele>
        <time>2018-03-05T18:37:38Z</time>
      </trkpt>
      <trkpt lat="62.632664976158" lon="17.974379963553">
        <ele>93.2</ele>
        <time>2018-03-05T18:37:39Z</time>
      </trkpt>
      <trkpt lat="62.632647038892" lon="17.974358505889">
        <ele>93.4</ele>
        <time>2018-03-05T18:37:40Z</time>
      </trkpt>
      <trkpt lat="62.632630945644" lon="17.974334785112">
        <ele>93.4</ele>
        <time>2018-03-05T18:37:41Z</time>
      </trkpt>
      <trkpt lat="62.632609739437" lon="17.974312153982">
        <ele>93.4</ele>
        <time>2018-03-05T18:37:42Z</time>
      </trkpt>
      <trkpt lat="62.632585096651" lon="17.974287595015">
        <ele>93.6</ele>
        <time>2018-03-05T18:37:43Z</time>
      </trkpt>
      <trkpt lat="62.632561794969" lon="17.974261359668">
        <ele>93.6</ele>
        <time>2018-03-05T18:37:44Z</time>
      </trkpt>
      <trkpt lat="62.632543187151" lon="17.974232777389">
        <ele>93.6</ele>
        <time>2018-03-05T18:37:45Z</time>
      </trkpt>
      <trkpt lat="62.632527010084" lon="17.97420000416">
        <ele>93.8</ele>
        <time>2018-03-05T18:37:46Z</time>
      </trkpt>
      <trkpt lat="62.632496835244" lon="17.974184413826">
        <ele>93.8</ele>
        <time>2018-03-05T18:37:47Z</time>
      </trkpt>
      <trkpt lat="62.632475042304" lon="17.974162788524">
        <ele>93.8</ele>
        <time>2018-03-05T18:37:48Z</time>
      </trkpt>
      <trkpt lat="62.632451656803" lon="17.974142001412">
        <ele>94</ele>
        <time>2018-03-05T18:37:49Z</time>
      </trkpt>
      <trkpt lat="62.632428019845" lon="17.974121801033">
        <ele>94</ele>
        <time>2018-03-05T18:37:50Z</time>
      </trkpt>
      <trkpt lat="62.632412094235" lon="17.974101516835">
        <ele>93.8</ele>
        <time>2018-03-05T18:37:51Z</time>
      </trkpt>
      <trkpt lat="62.632393151141" lon="17.974073688927">
        <ele>94</ele>
        <time>2018-03-05T18:37:52Z</time>
      </trkpt>
      <trkpt lat="62.632371274382" lon="17.97404912996">
        <ele>94</ele>
        <time>2018-03-05T18:37:53Z</time>
      </trkpt>
      <trkpt lat="62.632346883053" lon="17.974026331192">
        <ele>94</ele>
        <time>2018-03-05T18:37:54Z</time>
      </trkpt>
      <trkpt lat="62.632324419561" lon="17.974001688406">
        <ele>94</ele>
        <time>2018-03-05T18:37:55Z</time>
      </trkpt>
      <trkpt lat="62.632301369336" lon="17.973983332045">
        <ele>94</ele>
        <time>2018-03-05T18:37:56Z</time>
      </trkpt>
      <trkpt lat="62.632279324939" lon="17.973963299304">
        <ele>93.8</ele>
        <time>2018-03-05T18:37:57Z</time>
      </trkpt>
      <trkpt lat="62.632259040741" lon="17.973942344554">
        <ele>93.8</ele>
        <time>2018-03-05T18:37:58Z</time>
      </trkpt>
      <trkpt lat="62.632233056851" lon="17.973919461967">
        <ele>93.8</ele>
        <time>2018-03-05T18:37:59Z</time>
      </trkpt>
      <trkpt lat="62.63220799497" lon="17.973895825009">
        <ele>93.8</ele>
        <time>2018-03-05T18:38:00Z</time>
      </trkpt>
      <trkpt lat="62.632183100727" lon="17.973873445336">
        <ele>93.8</ele>
        <time>2018-03-05T18:38:01Z</time>
      </trkpt>
      <trkpt lat="62.632163151805" lon="17.97384125884">
        <ele>93.8</ele>
        <time>2018-03-05T18:38:02Z</time>
      </trkpt>
      <trkpt lat="62.632141861779" lon="17.973808317973">
        <ele>93.8</ele>
        <time>2018-03-05T18:38:03Z</time>
      </trkpt>
      <trkpt lat="62.632120487934" lon="17.973779819513">
        <ele>93.6</ele>
        <time>2018-03-05T18:38:04Z</time>
      </trkpt>
      <trkpt lat="62.632093498216" lon="17.973748638845">
        <ele>93.6</ele>
        <time>2018-03-05T18:38:05Z</time>
      </trkpt>
      <trkpt lat="62.6320629881" lon="17.973722403498">
        <ele>93.6</ele>
        <time>2018-03-05T18:38:06Z</time>
      </trkpt>
      <trkpt lat="62.632032897079" lon="17.973696419608">
        <ele>93.6</ele>
        <time>2018-03-05T18:38:07Z</time>
      </trkpt>
      <trkpt lat="62.632006494094" lon="17.973666999139">
        <ele>93.6</ele>
        <time>2018-03-05T18:38:08Z</time>
      </trkpt>
      <trkpt lat="62.631981013118" lon="17.973635315557">
        <ele>93.6</ele>
        <time>2018-03-05T18:38:09Z</time>
      </trkpt>
      <trkpt lat="62.631956957065" lon="17.973611259504">
        <ele>93.6</ele>
        <time>2018-03-05T18:38:10Z</time>
      </trkpt>
      <trkpt lat="62.631931224632" lon="17.97358393451">
        <ele>93.6</ele>
        <time>2018-03-05T18:38:11Z</time>
      </trkpt>
      <trkpt lat="62.631904821647" lon="17.973552586204">
        <ele>93.6</ele>
        <time>2018-03-05T18:38:12Z</time>
      </trkpt>
      <trkpt lat="62.631882190517" lon="17.973528027237">
        <ele>93.6</ele>
        <time>2018-03-05T18:38:13Z</time>
      </trkpt>
      <trkpt lat="62.631856458084" lon="17.973500366967">
        <ele>93.6</ele>
        <time>2018-03-05T18:38:14Z</time>
      </trkpt>
      <trkpt lat="62.631831815298" lon="17.97347245524">
        <ele>93.6</ele>
        <time>2018-03-05T18:38:15Z</time>
      </trkpt>
      <trkpt lat="62.631811195824" lon="17.973448650644">
        <ele>93.6</ele>
        <time>2018-03-05T18:38:16Z</time>
      </trkpt>
      <trkpt lat="62.631786804495" lon="17.973420068365">
        <ele>93.6</ele>
        <time>2018-03-05T18:38:17Z</time>
      </trkpt>
      <trkpt lat="62.631758808949" lon="17.973389558249">
        <ele>93.6</ele>
        <time>2018-03-05T18:38:18Z</time>
      </trkpt>
      <trkpt lat="62.631730561946" lon="17.973360053961">
        <ele>93.6</ele>
        <time>2018-03-05T18:38:19Z</time>
      </trkpt>
      <trkpt lat="62.631704997151" lon="17.973330298216">
        <ele>93.4</ele>
        <time>2018-03-05T18:38:20Z</time>
      </trkpt>
      <trkpt lat="62.631680941098" lon="17.973301548299">
        <ele>93.4</ele>
        <time>2018-03-05T18:38:21Z</time>
      </trkpt>
      <trkpt lat="62.631657723235" lon="17.973267601604">
        <ele>93.4</ele>
        <time>2018-03-05T18:38:22Z</time>
      </trkpt>
      <trkpt lat="62.631630817336" lon="17.973226362656">
        <ele>93.2</ele>
        <time>2018-03-05T18:38:23Z</time>
      </trkpt>
      <trkpt lat="62.631609443491" lon="17.973182609138">
        <ele>93.2</ele>
        <time>2018-03-05T18:38:24Z</time>
      </trkpt>
      <trkpt lat="62.631592595872" lon="17.973137346878">
        <ele>93.2</ele>
        <time>2018-03-05T18:38:25Z</time>
      </trkpt>
      <trkpt lat="62.631575832072" lon="17.973091246428">
        <ele>93</ele>
        <time>2018-03-05T18:38:26Z</time>
      </trkpt>
      <trkpt lat="62.631557224254" lon="17.973038859553">
        <ele>93</ele>
        <time>2018-03-05T18:38:27Z</time>
      </trkpt>
      <trkpt lat="62.631538113522" lon="17.972998542614">
        <ele>93</ele>
        <time>2018-03-05T18:38:28Z</time>
      </trkpt>
      <trkpt lat="62.631517577867" lon="17.97294942468">
        <ele>92.8</ele>
        <time>2018-03-05T18:38:29Z</time>
      </trkpt>
      <trkpt lat="62.631499389144" lon="17.972908521008">
        <ele>92.6</ele>
        <time>2018-03-05T18:38:30Z</time>
      </trkpt>
      <trkpt lat="62.631478266756" lon="17.972873568485">
        <ele>92.4</ele>
        <time>2018-03-05T18:38:31Z</time>
      </trkpt>
      <trkpt lat="62.63145530035" lon="17.972830820795">
        <ele>92.4</ele>
        <time>2018-03-05T18:38:32Z</time>
      </trkpt>
      <trkpt lat="62.631432836858" lon="17.972788073105">
        <ele>92.2</ele>
        <time>2018-03-05T18:38:33Z</time>
      </trkpt>
      <trkpt lat="62.631413307031" lon="17.972750606012">
        <ele>92</ele>
        <time>2018-03-05T18:38:34Z</time>
      </trkpt>
      <trkpt lat="62.631396543231" lon="17.972706181942">
        <ele>91.8</ele>
        <time>2018-03-05T18:38:35Z</time>
      </trkpt>
      <trkpt lat="62.631383551286" lon="17.97266024913">
        <ele>91.6</ele>
        <time>2018-03-05T18:38:36Z</time>
      </trkpt>
      <trkpt lat="62.631368799142" lon="17.972608197531">
        <ele>91.6</ele>
        <time>2018-03-05T18:38:37Z</time>
      </trkpt>
      <trkpt lat="62.631352538256" lon="17.972555726837">
        <ele>91.4</ele>
        <time>2018-03-05T18:38:38Z</time>
      </trkpt>
      <trkpt lat="62.631334014257" lon="17.972506357446">
        <ele>91.2</ele>
        <time>2018-03-05T18:38:39Z</time>
      </trkpt>
      <trkpt lat="62.631316328448" lon="17.972459502625">
        <ele>91</ele>
        <time>2018-03-05T18:38:40Z</time>
      </trkpt>
      <trkpt lat="62.631298391182" lon="17.972404936456">
        <ele>91</ele>
        <time>2018-03-05T18:38:41Z</time>
      </trkpt>
      <trkpt lat="62.631279699545" lon="17.972349783554">
        <ele>90.8</ele>
        <time>2018-03-05T18:38:42Z</time>
      </trkpt>
      <trkpt lat="62.631263271021" lon="17.972299911249">
        <ele>90.8</ele>
        <time>2018-03-05T18:38:43Z</time>
      </trkpt>
      <trkpt lat="62.631244998479" lon="17.972246099451">
        <ele>90.6</ele>
        <time>2018-03-05T18:38:44Z</time>
      </trkpt>
      <trkpt lat="62.631227899403" lon="17.972196227146">
        <ele>90.4</ele>
        <time>2018-03-05T18:38:45Z</time>
      </trkpt>
      <trkpt lat="62.631212811983" lon="17.972149372325">
        <ele>90.4</ele>
        <time>2018-03-05T18:38:46Z</time>
      </trkpt>
      <trkpt lat="62.631194287984" lon="17.972089609378">
        <ele>90.2</ele>
        <time>2018-03-05T18:38:47Z</time>
      </trkpt>
      <trkpt lat="62.631178781469" lon="17.972038731245">
        <ele>90</ele>
        <time>2018-03-05T18:38:48Z</time>
      </trkpt>
      <trkpt lat="62.631162101488" lon="17.971988691302">
        <ele>89.8</ele>
        <time>2018-03-05T18:38:49Z</time>
      </trkpt>
      <trkpt lat="62.631148355172" lon="17.971933789857">
        <ele>89.6</ele>
        <time>2018-03-05T18:38:50Z</time>
      </trkpt>
      <trkpt lat="62.631136620512" lon="17.971884001371">
        <ele>89.6</ele>
        <time>2018-03-05T18:38:51Z</time>
      </trkpt>
      <trkpt lat="62.631120946359" lon="17.971830860125">
        <ele>89.4</ele>
        <time>2018-03-05T18:38:52Z</time>
      </trkpt>
      <trkpt lat="62.631104434016" lon="17.971770175169">
        <ele>89.4</ele>
        <time>2018-03-05T18:38:53Z</time>
      </trkpt>
      <trkpt lat="62.631092028804" lon="17.97171644719">
        <ele>89.2</ele>
        <time>2018-03-05T18:38:54Z</time>
      </trkpt>
      <trkpt lat="62.631080126506" lon="17.971661797202">
        <ele>89.2</ele>
        <time>2018-03-05T18:38:55Z</time>
      </trkpt>
      <trkpt lat="62.631068224208" lon="17.971608153042">
        <ele>89</ele>
        <time>2018-03-05T18:38:56Z</time>
      </trkpt>
      <trkpt lat="62.631056070453" lon="17.971551491398">
        <ele>88.8</ele>
        <time>2018-03-05T18:38:57Z</time>
      </trkpt>
      <trkpt lat="62.631045676897" lon="17.971497931057">
        <ele>88.8</ele>
        <time>2018-03-05T18:38:58Z</time>
      </trkpt>
      <trkpt lat="62.631035534798" lon="17.971435234445">
        <ele>88.6</ele>
        <time>2018-03-05T18:38:59Z</time>
      </trkpt>
      <trkpt lat="62.631026063251" lon="17.971380416819">
        <ele>88.6</ele>
        <time>2018-03-05T18:39:00Z</time>
      </trkpt>
      <trkpt lat="62.63101608879" lon="17.971323168442">
        <ele>88.4</ele>
        <time>2018-03-05T18:39:01Z</time>
      </trkpt>
      <trkpt lat="62.631005359958" lon="17.971258292536">
        <ele>88.4</ele>
        <time>2018-03-05T18:39:02Z</time>
      </trkpt>
      <trkpt lat="62.630998738257" lon="17.971201463254">
        <ele>88.2</ele>
        <time>2018-03-05T18:39:03Z</time>
      </trkpt>
      <trkpt lat="62.630993038565" lon="17.971146394171">
        <ele>88.2</ele>
        <time>2018-03-05T18:39:04Z</time>
      </trkpt>
      <trkpt lat="62.630986249226" lon="17.971082691731">
        <ele>88.2</ele>
        <time>2018-03-05T18:39:05Z</time>
      </trkpt>
      <trkpt lat="62.63097920843" lon="17.971030388675">
        <ele>88</ele>
        <time>2018-03-05T18:39:06Z</time>
      </trkpt>
      <trkpt lat="62.630972670548" lon="17.970970038995">
        <ele>88</ele>
        <time>2018-03-05T18:39:07Z</time>
      </trkpt>
      <trkpt lat="62.630966887037" lon="17.970912790618">
        <ele>87.8</ele>
        <time>2018-03-05T18:39:08Z</time>
      </trkpt>
      <trkpt lat="62.630959762422" lon="17.970858643544">
        <ele>87.8</ele>
        <time>2018-03-05T18:39:09Z</time>
      </trkpt>
      <trkpt lat="62.630952973083" lon="17.970804999384">
        <ele>87.6</ele>
        <time>2018-03-05T18:39:10Z</time>
      </trkpt>
      <trkpt lat="62.630945848468" lon="17.970745404075">
        <ele>87.6</ele>
        <time>2018-03-05T18:39:11Z</time>
      </trkpt>
      <trkpt lat="62.63093813712" lon="17.970686227861">
        <ele>87.4</ele>
        <time>2018-03-05T18:39:12Z</time>
      </trkpt>
      <trkpt lat="62.630931683057" lon="17.97062763838">
        <ele>87.4</ele>
        <time>2018-03-05T18:39:13Z</time>
      </trkpt>
      <trkpt lat="62.630925228994" lon="17.970569970908">
        <ele>87.2</ele>
        <time>2018-03-05T18:39:14Z</time>
      </trkpt>
      <trkpt lat="62.630918355836" lon="17.970520266241">
        <ele>87.2</ele>
        <time>2018-03-05T18:39:15Z</time>
      </trkpt>
      <trkpt lat="62.630911985592" lon="17.970471148307">
        <ele>87</ele>
        <time>2018-03-05T18:39:16Z</time>
      </trkpt>
      <trkpt lat="62.630903352235" lon="17.970410379532">
        <ele>87</ele>
        <time>2018-03-05T18:39:17Z</time>
      </trkpt>
      <trkpt lat="62.630898658371" lon="17.970359669037">
        <ele>86.8</ele>
        <time>2018-03-05T18:39:18Z</time>
      </trkpt>
      <trkpt lat="62.630896646715" lon="17.970309629094">
        <ele>86.6</ele>
        <time>2018-03-05T18:39:19Z</time>
      </trkpt>
      <trkpt lat="62.630897904" lon="17.970259589151">
        <ele>86.4</ele>
        <time>2018-03-05T18:39:20Z</time>
      </trkpt>
      <trkpt lat="62.630904022787" lon="17.970194545607">
        <ele>86.4</ele>
        <time>2018-03-05T18:39:22Z</time>
      </trkpt>
      <trkpt lat="62.630905112434" lon="17.970175770151">
        <ele>86.4</ele>
        <time>2018-03-05T18:39:23Z</time>
      </trkpt>
      <trkpt lat="62.630906872633" lon="17.97015489922">
        <ele>86.4</ele>
        <time>2018-03-05T18:39:24Z</time>
      </trkpt>
      <trkpt lat="62.63090796228" lon="17.970133525375">
        <ele>86.4</ele>
        <time>2018-03-05T18:39:25Z</time>
      </trkpt>
      <trkpt lat="62.630914248705" lon="17.970123215638">
        <ele>86.4</ele>
        <time>2018-03-05T18:39:26Z</time>
      </trkpt>
      <trkpt lat="62.630918104379" lon="17.970122461267">
        <ele>86.4</ele>
        <time>2018-03-05T18:39:27Z</time>
      </trkpt>
      <trkpt lat="62.630925312813" lon="17.970116258661">
        <ele>86.4</ele>
        <time>2018-03-05T18:39:28Z</time>
      </trkpt>
      <trkpt lat="62.630926318641" lon="17.970124808199">
        <ele>86.4</ele>
        <time>2018-03-05T18:39:29Z</time>
      </trkpt>
      <trkpt lat="62.630928749392" lon="17.970122293629">
        <ele>86.2</ele>
        <time>2018-03-05T18:39:30Z</time>
      </trkpt>
      <trkpt lat="62.631149444819" lon="17.970034367498">
        <ele>84.6</ele>
        <time>2018-03-05T18:41:32Z</time>
      </trkpt>
      <trkpt lat="62.631175009614" lon="17.97001995063">
        <ele>84.6</ele>
        <time>2018-03-05T18:41:33Z</time>
      </trkpt>
      <trkpt lat="62.63121138706" lon="17.970001258993">
        <ele>84.6</ele>
        <time>2018-03-05T18:41:34Z</time>
      </trkpt>
      <trkpt lat="62.631243405918" lon="17.969986087754">
        <ele>84.4</ele>
        <time>2018-03-05T18:41:35Z</time>
      </trkpt>
      <trkpt lat="62.631274502767" lon="17.969971754705">
        <ele>84.2</ele>
        <time>2018-03-05T18:41:36Z</time>
      </trkpt>
      <trkpt lat="62.631305431978" lon="17.969954068896">
        <ele>84</ele>
        <time>2018-03-05T18:41:37Z</time>
      </trkpt>
      <trkpt lat="62.631339294854" lon="17.969932695051">
        <ele>83.8</ele>
        <time>2018-03-05T18:41:38Z</time>
      </trkpt>
      <trkpt lat="62.631370307884" lon="17.969914590147">
        <ele>84</ele>
        <time>2018-03-05T18:41:39Z</time>
      </trkpt>
      <trkpt lat="62.63139830343" lon="17.969893216302">
        <ele>84.2</ele>
        <time>2018-03-05T18:41:40Z</time>
      </trkpt>
      <trkpt lat="62.631429148822" lon="17.969878464158">
        <ele>84.2</ele>
        <time>2018-03-05T18:41:41Z</time>
      </trkpt>
      <trkpt lat="62.63145613854" lon="17.969863628195">
        <ele>84.2</ele>
        <time>2018-03-05T18:41:42Z</time>
      </trkpt>
      <trkpt lat="62.631489079407" lon="17.969850552431">
        <ele>84.2</ele>
        <time>2018-03-05T18:41:43Z</time>
      </trkpt>
      <trkpt lat="62.631522690826" lon="17.969833704812">
        <ele>84.2</ele>
        <time>2018-03-05T18:41:44Z</time>
      </trkpt>
      <trkpt lat="62.631552111295" lon="17.969810235492">
        <ele>84.2</ele>
        <time>2018-03-05T18:41:45Z</time>
      </trkpt>
      <trkpt lat="62.631585806533" lon="17.969793304054">
        <ele>84</ele>
        <time>2018-03-05T18:41:46Z</time>
      </trkpt>
      <trkpt lat="62.631606761283" lon="17.969769080363">
        <ele>84</ele>
        <time>2018-03-05T18:41:47Z</time>
      </trkpt>
      <trkpt lat="62.631642971091" lon="17.969745275767">
        <ele>83.8</ele>
        <time>2018-03-05T18:41:48Z</time>
      </trkpt>
      <trkpt lat="62.631670296085" lon="17.969716022936">
        <ele>83.8</ele>
        <time>2018-03-05T18:41:49Z</time>
      </trkpt>
      <trkpt lat="62.631701476753" lon="17.969689955227">
        <ele>83.8</ele>
        <time>2018-03-05T18:41:50Z</time>
      </trkpt>
      <trkpt lat="62.631729053204" lon="17.969655840894">
        <ele>83.8</ele>
        <time>2018-03-05T18:41:51Z</time>
      </trkpt>
      <trkpt lat="62.631755959103" lon="17.969621978018">
        <ele>83.6</ele>
        <time>2018-03-05T18:41:52Z</time>
      </trkpt>
      <trkpt lat="62.631784206106" lon="17.969590545893">
        <ele>83.4</ele>
        <time>2018-03-05T18:41:53Z</time>
      </trkpt>
      <trkpt lat="62.631813039842" lon="17.969573111541">
        <ele>83.2</ele>
        <time>2018-03-05T18:41:54Z</time>
      </trkpt>
      <trkpt lat="62.631845142519" lon="17.969574620283">
        <ele>82.8</ele>
        <time>2018-03-05T18:41:55Z</time>
      </trkpt>
      <trkpt lat="62.631870455857" lon="17.9695866064">
        <ele>82.8</ele>
        <time>2018-03-05T18:41:56Z</time>
      </trkpt>
      <trkpt lat="62.631898786679" lon="17.969589791522">
        <ele>83</ele>
        <time>2018-03-05T18:41:57Z</time>
      </trkpt>
      <trkpt lat="62.631927285139" lon="17.969590629712">
        <ele>83</ele>
        <time>2018-03-05T18:41:58Z</time>
      </trkpt>
      <trkpt lat="62.631955532142" lon="17.969584008011">
        <ele>83</ele>
        <time>2018-03-05T18:41:59Z</time>
      </trkpt>
      <trkpt lat="62.631984282059" lon="17.969581325803">
        <ele>83.2</ele>
        <time>2018-03-05T18:42:00Z</time>
      </trkpt>
      <trkpt lat="62.632014624537" lon="17.969575123197">
        <ele>83.2</ele>
        <time>2018-03-05T18:42:01Z</time>
      </trkpt>
      <trkpt lat="62.632039099685" lon="17.969569758781">
        <ele>83.2</ele>
        <time>2018-03-05T18:42:02Z</time>
      </trkpt>
      <trkpt lat="62.63206969362" lon="17.969561376881">
        <ele>83.4</ele>
        <time>2018-03-05T18:42:03Z</time>
      </trkpt>
      <trkpt lat="62.632095761329" lon="17.96954888785">
        <ele>83.4</ele>
        <time>2018-03-05T18:42:04Z</time>
      </trkpt>
      <trkpt lat="62.632124930341" lon="17.969540003036">
        <ele>83.4</ele>
        <time>2018-03-05T18:42:05Z</time>
      </trkpt>
      <trkpt lat="62.632155859552" lon="17.969532794602">
        <ele>83.4</ele>
        <time>2018-03-05T18:42:06Z</time>
      </trkpt>
      <trkpt lat="62.632184441831" lon="17.969523825969">
        <ele>83.4</ele>
        <time>2018-03-05T18:42:07Z</time>
      </trkpt>
      <trkpt lat="62.632217634155" lon="17.969515527888">
        <ele>83.6</ele>
        <time>2018-03-05T18:42:08Z</time>
      </trkpt>
      <trkpt lat="62.632245126787" lon="17.969503793228">
        <ele>83.4</ele>
        <time>2018-03-05T18:42:09Z</time>
      </trkpt>
      <trkpt lat="62.632278486749" lon="17.969498847907">
        <ele>83.4</ele>
        <time>2018-03-05T18:42:10Z</time>
      </trkpt>
      <trkpt lat="62.632305560286" lon="17.969491974749">
        <ele>83.4</ele>
        <time>2018-03-05T18:42:11Z</time>
      </trkpt>
      <trkpt lat="62.632334394022" lon="17.969484179582">
        <ele>83.4</ele>
        <time>2018-03-05T18:42:12Z</time>
      </trkpt>
      <trkpt lat="62.632360126455" lon="17.96948015627">
        <ele>83.4</ele>
        <time>2018-03-05T18:42:13Z</time>
      </trkpt>
      <trkpt lat="62.632386864716" lon="17.969478060795">
        <ele>83.4</ele>
        <time>2018-03-05T18:42:14Z</time>
      </trkpt>
      <trkpt lat="62.632417458651" lon="17.969481581193">
        <ele>83.4</ele>
        <time>2018-03-05T18:42:15Z</time>
      </trkpt>
      <trkpt lat="62.632446543844" lon="17.969488119075">
        <ele>83.4</ele>
        <time>2018-03-05T18:42:16Z</time>
      </trkpt>
      <trkpt lat="62.632470180802" lon="17.969488454351">
        <ele>83.2</ele>
        <time>2018-03-05T18:42:17Z</time>
      </trkpt>
      <trkpt lat="62.632502702574" lon="17.969494573138">
        <ele>83.4</ele>
        <time>2018-03-05T18:42:18Z</time>
      </trkpt>
      <trkpt lat="62.632527680636" lon="17.96950027283">
        <ele>83.4</ele>
        <time>2018-03-05T18:42:19Z</time>
      </trkpt>
      <trkpt lat="62.632556179096" lon="17.969505972522">
        <ele>83.4</ele>
        <time>2018-03-05T18:42:20Z</time>
      </trkpt>
      <trkpt lat="62.632585767203" lon="17.969508738549">
        <ele>83.4</ele>
        <time>2018-03-05T18:42:21Z</time>
      </trkpt>
      <trkpt lat="62.632608314514" lon="17.969511420757">
        <ele>83.4</ele>
        <time>2018-03-05T18:42:22Z</time>
      </trkpt>
      <trkpt lat="62.632638237897" lon="17.96951703663">
        <ele>83.4</ele>
        <time>2018-03-05T18:42:23Z</time>
      </trkpt>
      <trkpt lat="62.632665981986" lon="17.969520473209">
        <ele>83.2</ele>
        <time>2018-03-05T18:42:24Z</time>
      </trkpt>
      <trkpt lat="62.63269246879" lon="17.969519383562">
        <ele>83.4</ele>
        <time>2018-03-05T18:42:25Z</time>
      </trkpt>
      <trkpt lat="62.632719626146" lon="17.969526675815">
        <ele>83.4</ele>
        <time>2018-03-05T18:42:26Z</time>
      </trkpt>
      <trkpt lat="62.632739658887" lon="17.969526089082">
        <ele>83.2</ele>
        <time>2018-03-05T18:42:27Z</time>
      </trkpt>
      <trkpt lat="62.632768827899" lon="17.969529525661">
        <ele>83.2</ele>
        <time>2018-03-05T18:42:28Z</time>
      </trkpt>
      <trkpt lat="62.63279556616" lon="17.969531956412">
        <ele>83.4</ele>
        <time>2018-03-05T18:42:29Z</time>
      </trkpt>
      <trkpt lat="62.632820041308" lon="17.969535560629">
        <ele>83.4</ele>
        <time>2018-03-05T18:42:30Z</time>
      </trkpt>
      <trkpt lat="62.632848120673" lon="17.969538997208">
        <ele>83.6</ele>
        <time>2018-03-05T18:42:31Z</time>
      </trkpt>
      <trkpt lat="62.632871757631" lon="17.969542266149">
        <ele>83.6</ele>
        <time>2018-03-05T18:42:32Z</time>
      </trkpt>
      <trkpt lat="62.632899836996" lon="17.969543439615">
        <ele>83.8</ele>
        <time>2018-03-05T18:42:33Z</time>
      </trkpt>
      <trkpt lat="62.632928922189" lon="17.969547043832">
        <ele>84</ele>
        <time>2018-03-05T18:42:34Z</time>
      </trkpt>
      <trkpt lat="62.632953313518" lon="17.969553246438">
        <ele>84</ele>
        <time>2018-03-05T18:42:35Z</time>
      </trkpt>
      <trkpt lat="62.632983739815" lon="17.969559197587">
        <ele>84.2</ele>
        <time>2018-03-05T18:42:36Z</time>
      </trkpt>
      <trkpt lat="62.633009891343" lon="17.969564645822">
        <ele>84.4</ele>
        <time>2018-03-05T18:42:37Z</time>
      </trkpt>
      <trkpt lat="62.633036461966" lon="17.969572608627">
        <ele>84.4</ele>
        <time>2018-03-05T18:42:38Z</time>
      </trkpt>
      <trkpt lat="62.633063619322" lon="17.969581158165">
        <ele>84.4</ele>
        <time>2018-03-05T18:42:39Z</time>
      </trkpt>
      <trkpt lat="62.633090022307" lon="17.969588198961">
        <ele>84.4</ele>
        <time>2018-03-05T18:42:40Z</time>
      </trkpt>
      <trkpt lat="62.633113323989" lon="17.969596580861">
        <ele>84.4</ele>
        <time>2018-03-05T18:42:41Z</time>
      </trkpt>
      <trkpt lat="62.633142493001" lon="17.969605381856">
        <ele>84.4</ele>
        <time>2018-03-05T18:42:42Z</time>
      </trkpt>
      <trkpt lat="62.633169147443" lon="17.969614769584">
        <ele>84.4</ele>
        <time>2018-03-05T18:42:43Z</time>
      </trkpt>
      <trkpt lat="62.633197645903" lon="17.969621139828">
        <ele>84.4</ele>
        <time>2018-03-05T18:42:44Z</time>
      </trkpt>
      <trkpt lat="62.633226312001" lon="17.969635389058">
        <ele>84.4</ele>
        <time>2018-03-05T18:42:45Z</time>
      </trkpt>
      <trkpt lat="62.633256486841" lon="17.96964611789">
        <ele>84.6</ele>
        <time>2018-03-05T18:42:46Z</time>
      </trkpt>
      <trkpt lat="62.633280626713" lon="17.969662546414">
        <ele>84.4</ele>
        <time>2018-03-05T18:42:47Z</time>
      </trkpt>
      <trkpt lat="62.63330853844" lon="17.969681154232">
        <ele>84.4</ele>
        <time>2018-03-05T18:42:48Z</time>
      </trkpt>
      <trkpt lat="62.63333787509" lon="17.969697415118">
        <ele>84.6</ele>
        <time>2018-03-05T18:42:49Z</time>
      </trkpt>
      <trkpt lat="62.633361092953" lon="17.969731864727">
        <ele>84.8</ele>
        <time>2018-03-05T18:42:50Z</time>
      </trkpt>
      <trkpt lat="62.633377018563" lon="17.969770421467">
        <ele>84.8</ele>
        <time>2018-03-05T18:42:51Z</time>
      </trkpt>
      <trkpt lat="62.633386406291" lon="17.969824233265">
        <ele>85</ele>
        <time>2018-03-05T18:42:52Z</time>
      </trkpt>
      <trkpt lat="62.63339068106" lon="17.969880727271">
        <ele>85</ele>
        <time>2018-03-05T18:42:53Z</time>
      </trkpt>
      <trkpt lat="62.633392608897" lon="17.969935880173">
        <ele>84.8</ele>
        <time>2018-03-05T18:42:54Z</time>
      </trkpt>
      <trkpt lat="62.633391603069" lon="17.969991619808">
        <ele>84.8</ele>
        <time>2018-03-05T18:42:55Z</time>
      </trkpt>
      <trkpt lat="62.633391686888" lon="17.970041408294">
        <ele>85</ele>
        <time>2018-03-05T18:42:56Z</time>
      </trkpt>
      <trkpt lat="62.63339487201" lon="17.970088849848">
        <ele>84.8</ele>
        <time>2018-03-05T18:42:57Z</time>
      </trkpt>
      <trkpt lat="62.633398392408" lon="17.97014316456">
        <ele>85</ele>
        <time>2018-03-05T18:42:58Z</time>
      </trkpt>
      <trkpt lat="62.633402750996" lon="17.970192366313">
        <ele>85.4</ele>
        <time>2018-03-05T18:42:59Z</time>
      </trkpt>
      <trkpt lat="62.633407361041" lon="17.970249111776">
        <ele>85.4</ele>
        <time>2018-03-05T18:43:00Z</time>
      </trkpt>
      <trkpt lat="62.633409791792" lon="17.970302672117">
        <ele>85.4</ele>
        <time>2018-03-05T18:43:01Z</time>
      </trkpt>
      <trkpt lat="62.633411551991" lon="17.970345755083">
        <ele>85.6</ele>
        <time>2018-03-05T18:43:02Z</time>
      </trkpt>
      <trkpt lat="62.633414485656" lon="17.970400740347">
        <ele>85.8</ele>
        <time>2018-03-05T18:43:03Z</time>
      </trkpt>
      <trkpt lat="62.633417084045" lon="17.970452624308">
        <ele>85.8</ele>
        <time>2018-03-05T18:43:04Z</time>
      </trkpt>
      <trkpt lat="62.633421861728" lon="17.970495958731">
        <ele>86</ele>
        <time>2018-03-05T18:43:05Z</time>
      </trkpt>
      <trkpt lat="62.633422951375" lon="17.970557733334">
        <ele>86</ele>
        <time>2018-03-05T18:43:06Z</time>
      </trkpt>
      <trkpt lat="62.633426555592" lon="17.970610371666">
        <ele>86.2</ele>
        <time>2018-03-05T18:43:07Z</time>
      </trkpt>
      <trkpt lat="62.633427980515" lon="17.970663345274">
        <ele>86.2</ele>
        <time>2018-03-05T18:43:08Z</time>
      </trkpt>
      <trkpt lat="62.633428651067" lon="17.97071732471">
        <ele>86.4</ele>
        <time>2018-03-05T18:43:09Z</time>
      </trkpt>
      <trkpt lat="62.633429992171" lon="17.970766442644">
        <ele>86.4</ele>
        <time>2018-03-05T18:43:10Z</time>
      </trkpt>
      <trkpt lat="62.633432003827" lon="17.970815728216">
        <ele>86.6</ele>
        <time>2018-03-05T18:43:11Z</time>
      </trkpt>
      <trkpt lat="62.633433261112" lon="17.970867109263">
        <ele>86.6</ele>
        <time>2018-03-05T18:43:12Z</time>
      </trkpt>
      <trkpt lat="62.633435356587" lon="17.970915305188">
        <ele>86.6</ele>
        <time>2018-03-05T18:43:13Z</time>
      </trkpt>
      <trkpt lat="62.633437871157" lon="17.970979342904">
        <ele>86.6</ele>
        <time>2018-03-05T18:43:14Z</time>
      </trkpt>
      <trkpt lat="62.6334376197" lon="17.971034914901">
        <ele>86.8</ele>
        <time>2018-03-05T18:43:15Z</time>
      </trkpt>
      <trkpt lat="62.633437368243" lon="17.97108277555">
        <ele>86.8</ele>
        <time>2018-03-05T18:43:16Z</time>
      </trkpt>
      <trkpt lat="62.633437452062" lon="17.971135832977">
        <ele>87</ele>
        <time>2018-03-05T18:43:17Z</time>
      </trkpt>
      <trkpt lat="62.633435608044" lon="17.971194422458">
        <ele>87.2</ele>
        <time>2018-03-05T18:43:18Z</time>
      </trkpt>
      <trkpt lat="62.633432422922" lon="17.971247563704">
        <ele>87.2</ele>
        <time>2018-03-05T18:43:19Z</time>
      </trkpt>
      <trkpt lat="62.633423538108" lon="17.971301710778">
        <ele>87.4</ele>
        <time>2018-03-05T18:43:20Z</time>
      </trkpt>
      <trkpt lat="62.63342420866" lon="17.971356193128">
        <ele>87.6</ele>
        <time>2018-03-05T18:43:21Z</time>
      </trkpt>
      <trkpt lat="62.633423873384" lon="17.971405646338">
        <ele>87.6</ele>
        <time>2018-03-05T18:43:22Z</time>
      </trkpt>
      <trkpt lat="62.633419263339" lon="17.971458452308">
        <ele>87.6</ele>
        <time>2018-03-05T18:43:23Z</time>
      </trkpt>
      <trkpt lat="62.633416162036" lon="17.971512347925">
        <ele>87.8</ele>
        <time>2018-03-05T18:43:24Z</time>
      </trkpt>
      <trkpt lat="62.633412809276" lon="17.971571188863">
        <ele>87.8</ele>
        <time>2018-03-05T18:43:25Z</time>
      </trkpt>
      <trkpt lat="62.633408618326" lon="17.971622150815">
        <ele>88</ele>
        <time>2018-03-05T18:43:26Z</time>
      </trkpt>
      <trkpt lat="62.633405936118" lon="17.971669340912">
        <ele>88</ele>
        <time>2018-03-05T18:43:27Z</time>
      </trkpt>
      <trkpt lat="62.633403002453" lon="17.971721308692">
        <ele>88.2</ele>
        <time>2018-03-05T18:43:28Z</time>
      </trkpt>
      <trkpt lat="62.633400068788" lon="17.97177176773">
        <ele>88.2</ele>
        <time>2018-03-05T18:43:29Z</time>
      </trkpt>
      <trkpt lat="62.63339822477" lon="17.971830692487">
        <ele>88.2</ele>
        <time>2018-03-05T18:43:30Z</time>
      </trkpt>
      <trkpt lat="62.633391351612" lon="17.971890371615">
        <ele>88.4</ele>
        <time>2018-03-05T18:43:31Z</time>
      </trkpt>
      <trkpt lat="62.633386909205" lon="17.971936807341">
        <ele>88.6</ele>
        <time>2018-03-05T18:43:32Z</time>
      </trkpt>
      <trkpt lat="62.633381209513" lon="17.971993217528">
        <ele>88.6</ele>
        <time>2018-03-05T18:43:33Z</time>
      </trkpt>
      <trkpt lat="62.633372576156" lon="17.97204753224">
        <ele>88.8</ele>
        <time>2018-03-05T18:43:34Z</time>
      </trkpt>
      <trkpt lat="62.633367966111" lon="17.972096398717">
        <ele>88.8</ele>
        <time>2018-03-05T18:43:35Z</time>
      </trkpt>
      <trkpt lat="62.633357740193" lon="17.972159933519">
        <ele>89</ele>
        <time>2018-03-05T18:43:36Z</time>
      </trkpt>
      <trkpt lat="62.633349777388" lon="17.972206033969">
        <ele>89.2</ele>
        <time>2018-03-05T18:43:37Z</time>
      </trkpt>
      <trkpt lat="62.633340054384" lon="17.972266886563">
        <ele>89.2</ele>
        <time>2018-03-05T18:43:38Z</time>
      </trkpt>
      <trkpt lat="62.633328403543" lon="17.972319524895">
        <ele>89.2</ele>
        <time>2018-03-05T18:43:39Z</time>
      </trkpt>
      <trkpt lat="62.633321195109" lon="17.972371576494">
        <ele>89.4</ele>
        <time>2018-03-05T18:43:40Z</time>
      </trkpt>
      <trkpt lat="62.633312226476" lon="17.972423292817">
        <ele>89.4</ele>
        <time>2018-03-05T18:43:41Z</time>
      </trkpt>
      <trkpt lat="62.6333035093" lon="17.972473835674">
        <ele>89.4</ele>
        <time>2018-03-05T18:43:42Z</time>
      </trkpt>
      <trkpt lat="62.633292193735" lon="17.972521863961">
        <ele>89.4</ele>
        <time>2018-03-05T18:43:43Z</time>
      </trkpt>
      <trkpt lat="62.633278950333" lon="17.972577100682">
        <ele>89.6</ele>
        <time>2018-03-05T18:43:44Z</time>
      </trkpt>
      <trkpt lat="62.633270233157" lon="17.972628817005">
        <ele>89.6</ele>
        <time>2018-03-05T18:43:45Z</time>
      </trkpt>
      <trkpt lat="62.633259420506" lon="17.972681287699">
        <ele>89.8</ele>
        <time>2018-03-05T18:43:46Z</time>
      </trkpt>
      <trkpt lat="62.63324818876" lon="17.972738033162">
        <ele>89.8</ele>
        <time>2018-03-05T18:43:47Z</time>
      </trkpt>
      <trkpt lat="62.633235196815" lon="17.972803831077">
        <ele>89.8</ele>
        <time>2018-03-05T18:43:48Z</time>
      </trkpt>
      <trkpt lat="62.633224048888" lon="17.972857139961">
        <ele>90</ele>
        <time>2018-03-05T18:43:49Z</time>
      </trkpt>
      <trkpt lat="62.633208039459" lon="17.972914723614">
        <ele>90</ele>
        <time>2018-03-05T18:43:50Z</time>
      </trkpt>
      <trkpt lat="62.633194963695" lon="17.972969876516">
        <ele>90</ele>
        <time>2018-03-05T18:43:51Z</time>
      </trkpt>
      <trkpt lat="62.63318448632" lon="17.97302821454">
        <ele>90</ele>
        <time>2018-03-05T18:43:52Z</time>
      </trkpt>
      <trkpt lat="62.633167471063" lon="17.973084205632">
        <ele>90</ele>
        <time>2018-03-05T18:43:53Z</time>
      </trkpt>
      <trkpt lat="62.633156909869" lon="17.973147488977">
        <ele>90</ele>
        <time>2018-03-05T18:43:54Z</time>
      </trkpt>
      <trkpt lat="62.633141403354" lon="17.973207419562">
        <ele>90.2</ele>
        <time>2018-03-05T18:43:55Z</time>
      </trkpt>
      <trkpt lat="62.633129249599" lon="17.973267014871">
        <ele>90.2</ele>
        <time>2018-03-05T18:43:56Z</time>
      </trkpt>
      <trkpt lat="62.633114245998" lon="17.973323844153">
        <ele>90.2</ele>
        <time>2018-03-05T18:43:57Z</time>
      </trkpt>
      <trkpt lat="62.633100751139" lon="17.973382852729">
        <ele>90.6</ele>
        <time>2018-03-05T18:43:58Z</time>
      </trkpt>
      <trkpt lat="62.633087088642" lon="17.973447477178">
        <ele>90.8</ele>
        <time>2018-03-05T18:43:59Z</time>
      </trkpt>
      <trkpt lat="62.633076778905" lon="17.973498690587">
        <ele>91</ele>
        <time>2018-03-05T18:44:00Z</time>
      </trkpt>
      <trkpt lat="62.63306630153" lon="17.973546635055">
        <ele>91</ele>
        <time>2018-03-05T18:44:01Z</time>
      </trkpt>
      <trkpt lat="62.633050878834" lon="17.973605140717">
        <ele>91</ele>
        <time>2018-03-05T18:44:02Z</time>
      </trkpt>
      <trkpt lat="62.633035456138" lon="17.973662472913">
        <ele>91</ele>
        <time>2018-03-05T18:44:03Z</time>
      </trkpt>
      <trkpt lat="62.633022380374" lon="17.97371553034">
        <ele>91</ele>
        <time>2018-03-05T18:44:04Z</time>
      </trkpt>
      <trkpt lat="62.633009723705" lon="17.973763810084">
        <ele>91</ele>
        <time>2018-03-05T18:44:05Z</time>
      </trkpt>
      <trkpt lat="62.63299421719" lon="17.973818711529">
        <ele>91.4</ele>
        <time>2018-03-05T18:44:06Z</time>
      </trkpt>
      <trkpt lat="62.632982817806" lon="17.973874032069">
        <ele>91.4</ele>
        <time>2018-03-05T18:44:07Z</time>
      </trkpt>
      <trkpt lat="62.63296739511" lon="17.973934968482">
        <ele>91.6</ele>
        <time>2018-03-05T18:44:08Z</time>
      </trkpt>
      <trkpt lat="62.632952140052" lon="17.973996240171">
        <ele>91.6</ele>
        <time>2018-03-05T18:44:09Z</time>
      </trkpt>
      <trkpt lat="62.632939315745" lon="17.974056254575">
        <ele>91.6</ele>
        <time>2018-03-05T18:44:10Z</time>
      </trkpt>
      <trkpt lat="62.632923641592" lon="17.974114927875">
        <ele>91.8</ele>
        <time>2018-03-05T18:44:11Z</time>
      </trkpt>
      <trkpt lat="62.632909643819" lon="17.974176953935">
        <ele>91.8</ele>
        <time>2018-03-05T18:44:12Z</time>
      </trkpt>
      <trkpt lat="62.632893382933" lon="17.974237471253">
        <ele>91.8</ele>
        <time>2018-03-05T18:44:13Z</time>
      </trkpt>
      <trkpt lat="62.632879971893" lon="17.974288349386">
        <ele>92</ele>
        <time>2018-03-05T18:44:14Z</time>
      </trkpt>
      <trkpt lat="62.632862788998" lon="17.974346016858">
        <ele>92</ele>
        <time>2018-03-05T18:44:15Z</time>
      </trkpt>
      <trkpt lat="62.632843175352" lon="17.974397481724">
        <ele>92</ele>
        <time>2018-03-05T18:44:16Z</time>
      </trkpt>
      <trkpt lat="62.632825070448" lon="17.974437547206">
        <ele>92.2</ele>
        <time>2018-03-05T18:44:17Z</time>
      </trkpt>
      <trkpt lat="62.632797326359" lon="17.974479708163">
        <ele>92.2</ele>
        <time>2018-03-05T18:44:18Z</time>
      </trkpt>
      <trkpt lat="62.632767738252" lon="17.974498818895">
        <ele>92.2</ele>
        <time>2018-03-05T18:44:19Z</time>
      </trkpt>
      <trkpt lat="62.632748376063" lon="17.974495466135">
        <ele>92</ele>
        <time>2018-03-05T18:44:20Z</time>
      </trkpt>
      <trkpt lat="62.632723062725" lon="17.974491610461">
        <ele>92</ele>
        <time>2018-03-05T18:44:21Z</time>
      </trkpt>
      <trkpt lat="62.632697330292" lon="17.974474176109">
        <ele>92.2</ele>
        <time>2018-03-05T18:44:22Z</time>
      </trkpt>
      <trkpt lat="62.632674112429" lon="17.97446319582">
        <ele>92</ele>
        <time>2018-03-05T18:44:23Z</time>
      </trkpt>
      <trkpt lat="62.632645278693" lon="17.974439475043">
        <ele>92.2</ele>
        <time>2018-03-05T18:44:24Z</time>
      </trkpt>
      <trkpt lat="62.632622563744" lon="17.974415921904">
        <ele>92.2</ele>
        <time>2018-03-05T18:44:25Z</time>
      </trkpt>
      <trkpt lat="62.632600686985" lon="17.974391782032">
        <ele>92.2</ele>
        <time>2018-03-05T18:44:26Z</time>
      </trkpt>
      <trkpt lat="62.632581157158" lon="17.974363199753">
        <ele>92.2</ele>
        <time>2018-03-05T18:44:27Z</time>
      </trkpt>
      <trkpt lat="62.632564896272" lon="17.974340484804">
        <ele>92.2</ele>
        <time>2018-03-05T18:44:28Z</time>
      </trkpt>
      <trkpt lat="62.632539834391" lon="17.97431986533">
        <ele>92.4</ele>
        <time>2018-03-05T18:44:29Z</time>
      </trkpt>
      <trkpt lat="62.63252063984" lon="17.974305783738">
        <ele>92.6</ele>
        <time>2018-03-05T18:44:30Z</time>
      </trkpt>
      <trkpt lat="62.632494572131" lon="17.974275608898">
        <ele>92.6</ele>
        <time>2018-03-05T18:44:31Z</time>
      </trkpt>
      <trkpt lat="62.632472276277" lon="17.974256246709">
        <ele>92.6</ele>
        <time>2018-03-05T18:44:32Z</time>
      </trkpt>
      <trkpt lat="62.632445957111" lon="17.974230262819">
        <ele>92.6</ele>
        <time>2018-03-05T18:44:33Z</time>
      </trkpt>
      <trkpt lat="62.632424080352" lon="17.97420251873">
        <ele>92.6</ele>
        <time>2018-03-05T18:44:34Z</time>
      </trkpt>
      <trkpt lat="62.63239994048" lon="17.974181983075">
        <ele>92.6</ele>
        <time>2018-03-05T18:44:35Z</time>
      </trkpt>
      <trkpt lat="62.632375130056" lon="17.974161028325">
        <ele>92.6</ele>
        <time>2018-03-05T18:44:36Z</time>
      </trkpt>
      <trkpt lat="62.632354175306" lon="17.974140325032">
        <ele>92.8</ele>
        <time>2018-03-05T18:44:37Z</time>
      </trkpt>
      <trkpt lat="62.632340261352" lon="17.974119035006">
        <ele>92.8</ele>
        <time>2018-03-05T18:44:38Z</time>
      </trkpt>
      <trkpt lat="62.632307069028" lon="17.974087938157">
        <ele>92.8</ele>
        <time>2018-03-05T18:44:39Z</time>
      </trkpt>
      <trkpt lat="62.632283012975" lon="17.974068240692">
        <ele>92.8</ele>
        <time>2018-03-05T18:44:40Z</time>
      </trkpt>
      <trkpt lat="62.632261220035" lon="17.974046280114">
        <ele>92.8</ele>
        <time>2018-03-05T18:44:41Z</time>
      </trkpt>
      <trkpt lat="62.632244204778" lon="17.974022559337">
        <ele>92.8</ele>
        <time>2018-03-05T18:44:42Z</time>
      </trkpt>
      <trkpt lat="62.632233392127" lon="17.974012836333">
        <ele>92.8</ele>
        <time>2018-03-05T18:44:43Z</time>
      </trkpt>
      <trkpt lat="62.632195589758" lon="17.973975453059">
        <ele>92.8</ele>
        <time>2018-03-05T18:44:44Z</time>
      </trkpt>
      <trkpt lat="62.6321635709" lon="17.973947373694">
        <ele>92.8</ele>
        <time>2018-03-05T18:44:45Z</time>
      </trkpt>
      <trkpt lat="62.632143705797" lon="17.973916444483">
        <ele>92.8</ele>
        <time>2018-03-05T18:44:46Z</time>
      </trkpt>
      <trkpt lat="62.632120571753" lon="17.97389238843">
        <ele>92.6</ele>
        <time>2018-03-05T18:44:47Z</time>
      </trkpt>
      <trkpt lat="62.632093917311" lon="17.973856681536">
        <ele>92.6</ele>
        <time>2018-03-05T18:44:48Z</time>
      </trkpt>
      <trkpt lat="62.632067262869" lon="17.973829272723">
        <ele>92.8</ele>
        <time>2018-03-05T18:44:49Z</time>
      </trkpt>
      <trkpt lat="62.632042620083" lon="17.973803372652">
        <ele>92.8</ele>
        <time>2018-03-05T18:44:50Z</time>
      </trkpt>
      <trkpt lat="62.632019486039" lon="17.973777304943">
        <ele>92.6</ele>
        <time>2018-03-05T18:44:51Z</time>
      </trkpt>
      <trkpt lat="62.631998196013" lon="17.973753751804">
        <ele>92.8</ele>
        <time>2018-03-05T18:44:52Z</time>
      </trkpt>
      <trkpt lat="62.631972212123" lon="17.973726175353">
        <ele>92.6</ele>
        <time>2018-03-05T18:44:53Z</time>
      </trkpt>
      <trkpt lat="62.631945809138" lon="17.973689462631">
        <ele>92.6</ele>
        <time>2018-03-05T18:44:54Z</time>
      </trkpt>
      <trkpt lat="62.631923261827" lon="17.973664316931">
        <ele>92.6</ele>
        <time>2018-03-05T18:44:55Z</time>
      </trkpt>
      <trkpt lat="62.631894344272" lon="17.973623580897">
        <ele>92.6</ele>
        <time>2018-03-05T18:44:56Z</time>
      </trkpt>
      <trkpt lat="62.631861403405" lon="17.973589885659">
        <ele>92.6</ele>
        <time>2018-03-05T18:44:57Z</time>
      </trkpt>
      <trkpt lat="62.631832653488" lon="17.973550742186">
        <ele>92.6</ele>
        <time>2018-03-05T18:44:58Z</time>
      </trkpt>
      <trkpt lat="62.631802813924" lon="17.973523333373">
        <ele>92.4</ele>
        <time>2018-03-05T18:44:59Z</time>
      </trkpt>
      <trkpt lat="62.631771884713" lon="17.973491565972">
        <ele>92.4</ele>
        <time>2018-03-05T18:45:00Z</time>
      </trkpt>
      <trkpt lat="62.63173441762" lon="17.973458708924">
        <ele>92.2</ele>
        <time>2018-03-05T18:45:01Z</time>
      </trkpt>
      <trkpt lat="62.631700219468" lon="17.973436748346">
        <ele>92.2</ele>
        <time>2018-03-05T18:45:02Z</time>
      </trkpt>
      <trkpt lat="62.631659902529" lon="17.973427863532">
        <ele>92.2</ele>
        <time>2018-03-05T18:45:03Z</time>
      </trkpt>
      <trkpt lat="62.631618328305" lon="17.973424594591">
        <ele>92.2</ele>
        <time>2018-03-05T18:45:04Z</time>
      </trkpt>
      <trkpt lat="62.631584968343" lon="17.973446219893">
        <ele>92.2</ele>
        <time>2018-03-05T18:45:05Z</time>
      </trkpt>
      <trkpt lat="62.631547082155" lon="17.973479579855">
        <ele>92</ele>
        <time>2018-03-05T18:45:06Z</time>
      </trkpt>
      <trkpt lat="62.631514979478" lon="17.973508665048">
        <ele>92</ele>
        <time>2018-03-05T18:45:07Z</time>
      </trkpt>
      <trkpt lat="62.631473656711" lon="17.973549149625">
        <ele>91.8</ele>
        <time>2018-03-05T18:45:08Z</time>
      </trkpt>
      <trkpt lat="62.631439290921" lon="17.973590975306">
        <ele>91.8</ele>
        <time>2018-03-05T18:45:09Z</time>
      </trkpt>
      <trkpt lat="62.631408696986" lon="17.973636824299">
        <ele>91.6</ele>
        <time>2018-03-05T18:45:10Z</time>
      </trkpt>
      <trkpt lat="62.63137902506" lon="17.973678314704">
        <ele>91.6</ele>
        <time>2018-03-05T18:45:11Z</time>
      </trkpt>
      <trkpt lat="62.631351532428" lon="17.973714775969">
        <ele>91.6</ele>
        <time>2018-03-05T18:45:12Z</time>
      </trkpt>
      <trkpt lat="62.631321441407" lon="17.973759619134">
        <ele>91.8</ele>
        <time>2018-03-05T18:45:13Z</time>
      </trkpt>
      <trkpt lat="62.631292440033" lon="17.973810916362">
        <ele>91.8</ele>
        <time>2018-03-05T18:45:14Z</time>
      </trkpt>
      <trkpt lat="62.631261343184" lon="17.973843521953">
        <ele>91.8</ele>
        <time>2018-03-05T18:45:15Z</time>
      </trkpt>
      <trkpt lat="62.631228905231" lon="17.973872523327">
        <ele>91.8</ele>
        <time>2018-03-05T18:45:16Z</time>
      </trkpt>
      <trkpt lat="62.631197556925" lon="17.973900099778">
        <ele>91.6</ele>
        <time>2018-03-05T18:45:17Z</time>
      </trkpt>
      <trkpt lat="62.63116193385" lon="17.973933375921">
        <ele>91.6</ele>
        <time>2018-03-05T18:45:18Z</time>
      </trkpt>
      <trkpt lat="62.631127651879" lon="17.973942847468">
        <ele>91.6</ele>
        <time>2018-03-05T18:45:19Z</time>
      </trkpt>
      <trkpt lat="62.631094711012" lon="17.973958018707">
        <ele>91.2</ele>
        <time>2018-03-05T18:45:20Z</time>
      </trkpt>
      <trkpt lat="62.631057579195" lon="17.9739535763">
        <ele>91.4</ele>
        <time>2018-03-05T18:45:21Z</time>
      </trkpt>
      <trkpt lat="62.631026649984" lon="17.973953073386">
        <ele>91.4</ele>
        <time>2018-03-05T18:45:22Z</time>
      </trkpt>
      <trkpt lat="62.630989015253" lon="17.973929017333">
        <ele>91.6</ele>
        <time>2018-03-05T18:45:23Z</time>
      </trkpt>
      <trkpt lat="62.630956912576" lon="17.973897082294">
        <ele>91.6</ele>
        <time>2018-03-05T18:45:24Z</time>
      </trkpt>
      <trkpt lat="62.630928162659" lon="17.973845198333">
        <ele>91.6</ele>
        <time>2018-03-05T18:45:25Z</time>
      </trkpt>
      <trkpt lat="62.63090460952" lon="17.973791470354">
        <ele>91.4</ele>
        <time>2018-03-05T18:45:26Z</time>
      </trkpt>
      <trkpt lat="62.630881391657" lon="17.973739418755">
        <ele>91.2</ele>
        <time>2018-03-05T18:45:27Z</time>
      </trkpt>
      <trkpt lat="62.63085683269" lon="17.973677392695">
        <ele>91</ele>
        <time>2018-03-05T18:45:28Z</time>
      </trkpt>
      <trkpt lat="62.630828082773" lon="17.973609415486">
        <ele>91</ele>
        <time>2018-03-05T18:45:29Z</time>
      </trkpt>
      <trkpt lat="62.630805200186" lon="17.973536660594">
        <ele>90.8</ele>
        <time>2018-03-05T18:45:30Z</time>
      </trkpt>
      <trkpt lat="62.630782569056" lon="17.973468431928">
        <ele>90.8</ele>
        <time>2018-03-05T18:45:31Z</time>
      </trkpt>
      <trkpt lat="62.630763961238" lon="17.973414117216">
        <ele>90.8</ele>
        <time>2018-03-05T18:45:32Z</time>
      </trkpt>
      <trkpt lat="62.630736468606" lon="17.97333583027">
        <ele>90.8</ele>
        <time>2018-03-05T18:45:33Z</time>
      </trkpt>
      <trkpt lat="62.630721297367" lon="17.973277659884">
        <ele>90.8</ele>
        <time>2018-03-05T18:45:34Z</time>
      </trkpt>
      <trkpt lat="62.630703276282" lon="17.973212448702">
        <ele>90.6</ele>
        <time>2018-03-05T18:45:35Z</time>
      </trkpt>
      <trkpt lat="62.630683411179" lon="17.973139358534">
        <ele>90.6</ele>
        <time>2018-03-05T18:45:36Z</time>
      </trkpt>
      <trkpt lat="62.630665641551" lon="17.973071548963">
        <ele>90.8</ele>
        <time>2018-03-05T18:45:37Z</time>
      </trkpt>
      <trkpt lat="62.630647033733" lon="17.97298798142">
        <ele>90.8</ele>
        <time>2018-03-05T18:45:38Z</time>
      </trkpt>
      <trkpt lat="62.630625324612" lon="17.972922351143">
        <ele>90.4</ele>
        <time>2018-03-05T18:45:39Z</time>
      </trkpt>
      <trkpt lat="62.630602777301" lon="17.972850937355">
        <ele>90.4</ele>
        <time>2018-03-05T18:45:40Z</time>
      </trkpt>
      <trkpt lat="62.630578218334" lon="17.97279100677">
        <ele>90.2</ele>
        <time>2018-03-05T18:45:41Z</time>
      </trkpt>
      <trkpt lat="62.63055843705" lon="17.97272478976">
        <ele>90</ele>
        <time>2018-03-05T18:45:42Z</time>
      </trkpt>
      <trkpt lat="62.630538236671" lon="17.972647760099">
        <ele>89.8</ele>
        <time>2018-03-05T18:45:43Z</time>
      </trkpt>
      <trkpt lat="62.630519796491" lon="17.972573161189">
        <ele>89.6</ele>
        <time>2018-03-05T18:45:44Z</time>
      </trkpt>
      <trkpt lat="62.630502194501" lon="17.972498394641">
        <ele>89.6</ele>
        <time>2018-03-05T18:45:45Z</time>
      </trkpt>
      <trkpt lat="62.630485095425" lon="17.97242974688">
        <ele>89.6</ele>
        <time>2018-03-05T18:45:46Z</time>
      </trkpt>
      <trkpt lat="62.630473193127" lon="17.97236688263">
        <ele>89.6</ele>
        <time>2018-03-05T18:45:47Z</time>
      </trkpt>
      <trkpt lat="62.630461458467" lon="17.972294965928">
        <ele>89.6</ele>
        <time>2018-03-05T18:45:48Z</time>
      </trkpt>
      <trkpt lat="62.630449639988" lon="17.9722352868">
        <ele>89.6</ele>
        <time>2018-03-05T18:45:49Z</time>
      </trkpt>
      <trkpt lat="62.630441509545" lon="17.97216236427">
        <ele>89.4</ele>
        <time>2018-03-05T18:45:50Z</time>
      </trkpt>
      <trkpt lat="62.630429271971" lon="17.972089190283">
        <ele>89.4</ele>
        <time>2018-03-05T18:45:51Z</time>
      </trkpt>
      <trkpt lat="62.630418710777" lon="17.972013082631">
        <ele>89.4</ele>
        <time>2018-03-05T18:45:52Z</time>
      </trkpt>
      <trkpt lat="62.630404964461" lon="17.97193772935">
        <ele>89.2</ele>
        <time>2018-03-05T18:45:53Z</time>
      </trkpt>
      <trkpt lat="62.630393145982" lon="17.971869584503">
        <ele>89.2</ele>
        <time>2018-03-05T18:45:54Z</time>
      </trkpt>
      <trkpt lat="62.630381998055" lon="17.971794147403">
        <ele>89.2</ele>
        <time>2018-03-05T18:45:55Z</time>
      </trkpt>
      <trkpt lat="62.630369341386" lon="17.971719297036">
        <ele>89.2</ele>
        <time>2018-03-05T18:45:56Z</time>
      </trkpt>
      <trkpt lat="62.630366240083" lon="17.971650984551">
        <ele>89</ele>
        <time>2018-03-05T18:45:57Z</time>
      </trkpt>
      <trkpt lat="62.630355846527" lon="17.971579738401">
        <ele>89</ele>
        <time>2018-03-05T18:45:58Z</time>
      </trkpt>
      <trkpt lat="62.630347883722" lon="17.971505642405">
        <ele>89</ele>
        <time>2018-03-05T18:45:59Z</time>
      </trkpt>
      <trkpt lat="62.630338915089" lon="17.971425176165">
        <ele>89</ele>
        <time>2018-03-05T18:46:00Z</time>
      </trkpt>
      <trkpt lat="62.630336484338" lon="17.971353091825">
        <ele>88.8</ele>
        <time>2018-03-05T18:46:01Z</time>
      </trkpt>
      <trkpt lat="62.630335646148" lon="17.971273212318">
        <ele>88.8</ele>
        <time>2018-03-05T18:46:02Z</time>
      </trkpt>
      <trkpt lat="62.630328856809" lon="17.971199703055">
        <ele>88.6</ele>
        <time>2018-03-05T18:46:03Z</time>
      </trkpt>
      <trkpt lat="62.630325001135" lon="17.9711204941">
        <ele>88.6</ele>
        <time>2018-03-05T18:46:04Z</time>
      </trkpt>
      <trkpt lat="62.630311506276" lon="17.971046565742">
        <ele>88.6</ele>
        <time>2018-03-05T18:46:05Z</time>
      </trkpt>
      <trkpt lat="62.630309075525" lon="17.97096878171">
        <ele>88.4</ele>
        <time>2018-03-05T18:46:06Z</time>
      </trkpt>
      <trkpt lat="62.630308991706" lon="17.970901894148">
        <ele>88.4</ele>
        <time>2018-03-05T18:46:07Z</time>
      </trkpt>
      <trkpt lat="62.630315026674" lon="17.970821008813">
        <ele>88.4</ele>
        <time>2018-03-05T18:46:08Z</time>
      </trkpt>
      <trkpt lat="62.630326174601" lon="17.970731071026">
        <ele>88.4</ele>
        <time>2018-03-05T18:46:09Z</time>
      </trkpt>
      <trkpt lat="62.63033547851" lon="17.970655633926">
        <ele>88.4</ele>
        <time>2018-03-05T18:46:10Z</time>
      </trkpt>
      <trkpt lat="62.630350649749" lon="17.970580448283">
        <ele>88.6</ele>
        <time>2018-03-05T18:46:11Z</time>
      </trkpt>
      <trkpt lat="62.630379315847" lon="17.970511716703">
        <ele>88.4</ele>
        <time>2018-03-05T18:46:12Z</time>
      </trkpt>
      <trkpt lat="62.630410328877" lon="17.970440889648">
        <ele>88.2</ele>
        <time>2018-03-05T18:46:13Z</time>
      </trkpt>
      <trkpt lat="62.63044947235" lon="17.9703828869">
        <ele>87.8</ele>
        <time>2018-03-05T18:46:14Z</time>
      </trkpt>
      <trkpt lat="62.630488448185" lon="17.970342234685">
        <ele>87.4</ele>
        <time>2018-03-05T18:46:15Z</time>
      </trkpt>
      <trkpt lat="62.630521975785" lon="17.970318513908">
        <ele>87</ele>
        <time>2018-03-05T18:46:16Z</time>
      </trkpt>
      <trkpt lat="62.630557095946" lon="17.970289931629">
        <ele>86.8</ele>
        <time>2018-03-05T18:46:17Z</time>
      </trkpt>
      <trkpt lat="62.630603615491" lon="17.970264366834">
        <ele>86.4</ele>
        <time>2018-03-05T18:46:18Z</time>
      </trkpt>
      <trkpt lat="62.630636975453" lon="17.970250369061">
        <ele>86.2</ele>
        <time>2018-03-05T18:46:19Z</time>
      </trkpt>
      <trkpt lat="62.630675196917" lon="17.970214243072">
        <ele>86</ele>
        <time>2018-03-05T18:46:20Z</time>
      </trkpt>
      <trkpt lat="62.630712161096" lon="17.970192450132">
        <ele>85.8</ele>
        <time>2018-03-05T18:46:21Z</time>
      </trkpt>
      <trkpt lat="62.630746694524" lon="17.970168645536">
        <ele>85.8</ele>
        <time>2018-03-05T18:46:22Z</time>
      </trkpt>
      <trkpt lat="62.630785921816" lon="17.970152300831">
        <ele>85.6</ele>
        <time>2018-03-05T18:46:23Z</time>
      </trkpt>
      <trkpt lat="62.630820036149" lon="17.970144170388">
        <ele>85.4</ele>
        <time>2018-03-05T18:46:24Z</time>
      </trkpt>
      <trkpt lat="62.630856581233" lon="17.970134615022">
        <ele>85.4</ele>
        <time>2018-03-05T18:46:25Z</time>
      </trkpt>
      <trkpt lat="62.630897401086" lon="17.970113995548">
        <ele>85.2</ele>
        <time>2018-03-05T18:46:27Z</time>
      </trkpt>
      <trkpt lat="62.630910979764" lon="17.970106870933">
        <ele>85.2</ele>
        <time>2018-03-05T18:46:28Z</time>
      </trkpt>
      <trkpt lat="62.630920367492" lon="17.970099746318">
        <ele>85.2</ele>
        <time>2018-03-05T18:46:29Z</time>
      </trkpt>
      <trkpt lat="62.630928246478" lon="17.970091364418">
        <ele>85.2</ele>
        <time>2018-03-05T18:46:30Z</time>
      </trkpt>
      <trkpt lat="62.630936209283" lon="17.970076528455">
        <ele>85.2</ele>
        <time>2018-03-05T18:46:31Z</time>
      </trkpt>
      <trkpt lat="62.630940484052" lon="17.970066386356">
        <ele>85.2</ele>
        <time>2018-03-05T18:46:32Z</time>
      </trkpt>
      <trkpt lat="62.630944423545" lon="17.970060519026">
        <ele>85.4</ele>
        <time>2018-03-05T18:46:33Z</time>
      </trkpt>
      <trkpt lat="62.630942914803" lon="17.970060351388">
        <ele>85.4</ele>
        <time>2018-03-05T18:46:34Z</time>
      </trkpt>
      <trkpt lat="62.630936376921" lon="17.970076360817">
        <ele>85.4</ele>
        <time>2018-03-05T18:46:37Z</time>
      </trkpt>
      <trkpt lat="62.630935874007" lon="17.970078707749">
        <ele>85.4</ele>
        <time>2018-03-05T18:46:38Z</time>
      </trkpt>
      <trkpt lat="62.631140224729" lon="17.970005617581">
        <ele>85</ele>
        <time>2018-03-05T18:49:56Z</time>
      </trkpt>
      <trkpt lat="62.631156485615" lon="17.969994888749">
        <ele>84.8</ele>
        <time>2018-03-05T18:49:57Z</time>
      </trkpt>
      <trkpt lat="62.631179200564" lon="17.969980388062">
        <ele>84.8</ele>
        <time>2018-03-05T18:49:58Z</time>
      </trkpt>
      <trkpt lat="62.631199149486" lon="17.969964965366">
        <ele>84.8</ele>
        <time>2018-03-05T18:49:59Z</time>
      </trkpt>
      <trkpt lat="62.631221864435" lon="17.969955158543">
        <ele>84.8</ele>
        <time>2018-03-05T18:50:00Z</time>
      </trkpt>
      <trkpt lat="62.631244830841" lon="17.969944681168">
        <ele>84.6</ele>
        <time>2018-03-05T18:50:01Z</time>
      </trkpt>
      <trkpt lat="62.631268803075" lon="17.969930934852">
        <ele>84.8</ele>
        <time>2018-03-05T18:50:02Z</time>
      </trkpt>
      <trkpt lat="62.631291098929" lon="17.969920457477">
        <ele>84.8</ele>
        <time>2018-03-05T18:50:03Z</time>
      </trkpt>
      <trkpt lat="62.63131280805" lon="17.969908052265">
        <ele>84.6</ele>
        <time>2018-03-05T18:50:04Z</time>
      </trkpt>
      <trkpt lat="62.631331415868" lon="17.969896820519">
        <ele>84.6</ele>
        <time>2018-03-05T18:50:05Z</time>
      </trkpt>
      <trkpt lat="62.63135555574" lon="17.969883912393">
        <ele>84.6</ele>
        <time>2018-03-05T18:50:06Z</time>
      </trkpt>
      <trkpt lat="62.631375588481" lon="17.969870333715">
        <ele>84.6</ele>
        <time>2018-03-05T18:50:07Z</time>
      </trkpt>
      <trkpt lat="62.631400147448" lon="17.969853737553">
        <ele>84.6</ele>
        <time>2018-03-05T18:50:08Z</time>
      </trkpt>
      <trkpt lat="62.631421353655" lon="17.969842002893">
        <ele>84.6</ele>
        <time>2018-03-05T18:50:09Z</time>
      </trkpt>
      <trkpt lat="62.631442978957" lon="17.969828424215">
        <ele>84.6</ele>
        <time>2018-03-05T18:50:10Z</time>
      </trkpt>
      <trkpt lat="62.631464436621" lon="17.96981878503">
        <ele>84.6</ele>
        <time>2018-03-05T18:50:11Z</time>
      </trkpt>
      <trkpt lat="62.631485307552" lon="17.969808642931">
        <ele>84.4</ele>
        <time>2018-03-05T18:50:12Z</time>
      </trkpt>
      <trkpt lat="62.631508525415" lon="17.969796824452">
        <ele>84.4</ele>
        <time>2018-03-05T18:50:13Z</time>
      </trkpt>
      <trkpt lat="62.631535431314" lon="17.969780060652">
        <ele>84.4</ele>
        <time>2018-03-05T18:50:14Z</time>
      </trkpt>
      <trkpt lat="62.631557643349" lon="17.969761452834">
        <ele>84.4</ele>
        <time>2018-03-05T18:50:15Z</time>
      </trkpt>
      <trkpt lat="62.631583711058" lon="17.969746533052">
        <ele>84.4</ele>
        <time>2018-03-05T18:50:16Z</time>
      </trkpt>
      <trkpt lat="62.631604749627" lon="17.969730942718">
        <ele>84.4</ele>
        <time>2018-03-05T18:50:17Z</time>
      </trkpt>
      <trkpt lat="62.6316271293" lon="17.969711831986">
        <ele>84.2</ele>
        <time>2018-03-05T18:50:18Z</time>
      </trkpt>
      <trkpt lat="62.631653364647" lon="17.969694397634">
        <ele>84.2</ele>
        <time>2018-03-05T18:50:19Z</time>
      </trkpt>
      <trkpt lat="62.631674989949" lon="17.969674113436">
        <ele>84.2</ele>
        <time>2018-03-05T18:50:20Z</time>
      </trkpt>
      <trkpt lat="62.631697034346" lon="17.969649554469">
        <ele>84</ele>
        <time>2018-03-05T18:50:21Z</time>
      </trkpt>
      <trkpt lat="62.631713881965" lon="17.969622145656">
        <ele>84</ele>
        <time>2018-03-05T18:50:22Z</time>
      </trkpt>
      <trkpt lat="62.631733830887" lon="17.969593731015">
        <ele>83.8</ele>
        <time>2018-03-05T18:50:23Z</time>
      </trkpt>
      <trkpt lat="62.631758641311" lon="17.969569339686">
        <ele>84</ele>
        <time>2018-03-05T18:50:24Z</time>
      </trkpt>
      <trkpt lat="62.631779931337" lon="17.969550228954">
        <ele>83.8</ele>
        <time>2018-03-05T18:50:25Z</time>
      </trkpt>
      <trkpt lat="62.63180231101" lon="17.969533046059">
        <ele>83.6</ele>
        <time>2018-03-05T18:50:26Z</time>
      </trkpt>
      <trkpt lat="62.631827624348" lon="17.969527681643">
        <ele>83.6</ele>
        <time>2018-03-05T18:50:27Z</time>
      </trkpt>
      <trkpt lat="62.6318534406" lon="17.969530866765">
        <ele>83.6</ele>
        <time>2018-03-05T18:50:28Z</time>
      </trkpt>
      <trkpt lat="62.631876574644" lon="17.969535141534">
        <ele>83.4</ele>
        <time>2018-03-05T18:50:29Z</time>
      </trkpt>
      <trkpt lat="62.631901636525" lon="17.969539081027">
        <ele>83.4</ele>
        <time>2018-03-05T18:50:30Z</time>
      </trkpt>
      <trkpt lat="62.631926446949" lon="17.969534890077">
        <ele>83.2</ele>
        <time>2018-03-05T18:50:31Z</time>
      </trkpt>
      <trkpt lat="62.631951676468" lon="17.969538494294">
        <ele>83.4</ele>
        <time>2018-03-05T18:50:32Z</time>
      </trkpt>
      <trkpt lat="62.631977660358" lon="17.969536650276">
        <ele>83.6</ele>
        <time>2018-03-05T18:50:33Z</time>
      </trkpt>
      <trkpt lat="62.632003141334" lon="17.969524999435">
        <ele>83.6</ele>
        <time>2018-03-05T18:50:34Z</time>
      </trkpt>
      <trkpt lat="62.63202862231" lon="17.969516952811">
        <ele>83.8</ele>
        <time>2018-03-05T18:50:35Z</time>
      </trkpt>
      <trkpt lat="62.632056366399" lon="17.969507648902">
        <ele>83.8</ele>
        <time>2018-03-05T18:50:36Z</time>
      </trkpt>
      <trkpt lat="62.63208142828" lon="17.969499937554">
        <ele>83.8</ele>
        <time>2018-03-05T18:50:37Z</time>
      </trkpt>
      <trkpt lat="62.632108920912" lon="17.969492142387">
        <ele>84</ele>
        <time>2018-03-05T18:50:38Z</time>
      </trkpt>
      <trkpt lat="62.632132054956" lon="17.969485520686">
        <ele>84</ele>
        <time>2018-03-05T18:50:39Z</time>
      </trkpt>
      <trkpt lat="62.632159128493" lon="17.969479234261">
        <ele>84</ele>
        <time>2018-03-05T18:50:40Z</time>
      </trkpt>
      <trkpt lat="62.632184022736" lon="17.969473534569">
        <ele>84</ele>
        <time>2018-03-05T18:50:41Z</time>
      </trkpt>
      <trkpt lat="62.632207743513" lon="17.969465739402">
        <ele>84</ele>
        <time>2018-03-05T18:50:42Z</time>
      </trkpt>
      <trkpt lat="62.632234230317" lon="17.969460374986">
        <ele>83.8</ele>
        <time>2018-03-05T18:50:43Z</time>
      </trkpt>
      <trkpt lat="62.632261136216" lon="17.969453837104">
        <ele>83.8</ele>
        <time>2018-03-05T18:50:44Z</time>
      </trkpt>
      <trkpt lat="62.632287287744" lon="17.969447215403">
        <ele>83.8</ele>
        <time>2018-03-05T18:50:45Z</time>
      </trkpt>
      <trkpt lat="62.632316037661" lon="17.969445706661">
        <ele>83.6</ele>
        <time>2018-03-05T18:50:46Z</time>
      </trkpt>
      <trkpt lat="62.632339758438" lon="17.96944327591">
        <ele>83.8</ele>
        <time>2018-03-05T18:50:47Z</time>
      </trkpt>
      <trkpt lat="62.632369095088" lon="17.96943824677">
        <ele>84</ele>
        <time>2018-03-05T18:50:48Z</time>
      </trkpt>
      <trkpt lat="62.63239658772" lon="17.969442018625">
        <ele>84</ele>
        <time>2018-03-05T18:50:49Z</time>
      </trkpt>
      <trkpt lat="62.632420476135" lon="17.969444533195">
        <ele>83.8</ele>
        <time>2018-03-05T18:50:50Z</time>
      </trkpt>
      <trkpt lat="62.632447382034" lon="17.969455178208">
        <ele>83.8</ele>
        <time>2018-03-05T18:50:51Z</time>
      </trkpt>
      <trkpt lat="62.63247202482" lon="17.969458866244">
        <ele>84</ele>
        <time>2018-03-05T18:50:52Z</time>
      </trkpt>
      <trkpt lat="62.632495577959" lon="17.969461380814">
        <ele>84</ele>
        <time>2018-03-05T18:50:53Z</time>
      </trkpt>
      <trkpt lat="62.632524160238" lon="17.969471187637">
        <ele>83.8</ele>
        <time>2018-03-05T18:50:54Z</time>
      </trkpt>
      <trkpt lat="62.632549473576" lon="17.969478144614">
        <ele>83.8</ele>
        <time>2018-03-05T18:50:55Z</time>
      </trkpt>
      <trkpt lat="62.632575876561" lon="17.969486777971">
        <ele>83.8</ele>
        <time>2018-03-05T18:50:56Z</time>
      </trkpt>
      <trkpt lat="62.632601357537" lon="17.969494154043">
        <ele>83.8</ele>
        <time>2018-03-05T18:50:57Z</time>
      </trkpt>
      <trkpt lat="62.63262792816" lon="17.969500524287">
        <ele>83.8</ele>
        <time>2018-03-05T18:50:58Z</time>
      </trkpt>
      <trkpt lat="62.632655336973" lon="17.969507900359">
        <ele>83.8</ele>
        <time>2018-03-05T18:50:59Z</time>
      </trkpt>
      <trkpt lat="62.632682159053" lon="17.969512258947">
        <ele>84</ele>
        <time>2018-03-05T18:51:00Z</time>
      </trkpt>
      <trkpt lat="62.632704957821" lon="17.969514605879">
        <ele>84.2</ele>
        <time>2018-03-05T18:51:01Z</time>
      </trkpt>
      <trkpt lat="62.632727337494" lon="17.969520305571">
        <ele>84.2</ele>
        <time>2018-03-05T18:51:02Z</time>
      </trkpt>
      <trkpt lat="62.632750974452" lon="17.969520305571">
        <ele>84.2</ele>
        <time>2018-03-05T18:51:03Z</time>
      </trkpt>
      <trkpt lat="62.632775952514" lon="17.96952541853">
        <ele>84.4</ele>
        <time>2018-03-05T18:51:04Z</time>
      </trkpt>
      <trkpt lat="62.632801182033" lon="17.9695279331">
        <ele>84.4</ele>
        <time>2018-03-05T18:51:05Z</time>
      </trkpt>
      <trkpt lat="62.632826746828" lon="17.969532040231">
        <ele>84.2</ele>
        <time>2018-03-05T18:51:06Z</time>
      </trkpt>
      <trkpt lat="62.632850635243" lon="17.969533884249">
        <ele>84.4</ele>
        <time>2018-03-05T18:51:07Z</time>
      </trkpt>
      <trkpt lat="62.632875278029" lon="17.969539416303">
        <ele>84.4</ele>
        <time>2018-03-05T18:51:08Z</time>
      </trkpt>
      <trkpt lat="62.632897741521" lon="17.969543942529">
        <ele>84.4</ele>
        <time>2018-03-05T18:51:09Z</time>
      </trkpt>
      <trkpt lat="62.632924479782" lon="17.969553497895">
        <ele>84.6</ele>
        <time>2018-03-05T18:51:10Z</time>
      </trkpt>
      <trkpt lat="62.632948871111" lon="17.969555174275">
        <ele>84.6</ele>
        <time>2018-03-05T18:51:11Z</time>
      </trkpt>
      <trkpt lat="62.632973513897" lon="17.969554168447">
        <ele>84.6</ele>
        <time>2018-03-05T18:51:12Z</time>
      </trkpt>
      <trkpt lat="62.632999833063" lon="17.969561125424">
        <ele>84.6</ele>
        <time>2018-03-05T18:51:13Z</time>
      </trkpt>
      <trkpt lat="62.633022296555" lon="17.969571770437">
        <ele>84.8</ele>
        <time>2018-03-05T18:51:14Z</time>
      </trkpt>
      <trkpt lat="62.633043838038" lon="17.969578559776">
        <ele>84.8</ele>
        <time>2018-03-05T18:51:15Z</time>
      </trkpt>
      <trkpt lat="62.633067223539" lon="17.969585935848">
        <ele>84.8</ele>
        <time>2018-03-05T18:51:16Z</time>
      </trkpt>
      <trkpt lat="62.633089519393" lon="17.969593982472">
        <ele>85</ele>
        <time>2018-03-05T18:51:17Z</time>
      </trkpt>
      <trkpt lat="62.633117012025" lon="17.969601274725">
        <ele>85.2</ele>
        <time>2018-03-05T18:51:18Z</time>
      </trkpt>
      <trkpt lat="62.63314509139" lon="17.969612171195">
        <ele>85</ele>
        <time>2018-03-05T18:51:19Z</time>
      </trkpt>
      <trkpt lat="62.633169566538" lon="17.96961426667">
        <ele>85</ele>
        <time>2018-03-05T18:51:20Z</time>
      </trkpt>
      <trkpt lat="62.6331945446" lon="17.969617284154">
        <ele>85</ele>
        <time>2018-03-05T18:51:21Z</time>
      </trkpt>
      <trkpt lat="62.633218265377" lon="17.96962432495">
        <ele>85</ele>
        <time>2018-03-05T18:51:22Z</time>
      </trkpt>
      <trkpt lat="62.633242572887" lon="17.96962516314">
        <ele>85</ele>
        <time>2018-03-05T18:51:23Z</time>
      </trkpt>
      <trkpt lat="62.633263611456" lon="17.969620553095">
        <ele>85</ele>
        <time>2018-03-05T18:51:24Z</time>
      </trkpt>
      <trkpt lat="62.633285823491" lon="17.969608902254">
        <ele>85.2</ele>
        <time>2018-03-05T18:51:25Z</time>
      </trkpt>
      <trkpt lat="62.633305772413" lon="17.969593060463">
        <ele>85</ele>
        <time>2018-03-05T18:51:26Z</time>
      </trkpt>
      <trkpt lat="62.633318931996" lon="17.96957403355">
        <ele>85.2</ele>
        <time>2018-03-05T18:51:27Z</time>
      </trkpt>
      <trkpt lat="62.633335025244" lon="17.969544780719">
        <ele>85.2</ele>
        <time>2018-03-05T18:51:28Z</time>
      </trkpt>
      <trkpt lat="62.633346173171" lon="17.969507481264">
        <ele>85.2</ele>
        <time>2018-03-05T18:51:29Z</time>
      </trkpt>
      <trkpt lat="62.633353716881" lon="17.969462973375">
        <ele>85.2</ele>
        <time>2018-03-05T18:51:30Z</time>
      </trkpt>
      <trkpt lat="62.633360841496" lon="17.969415950916">
        <ele>85.2</ele>
        <time>2018-03-05T18:51:31Z</time>
      </trkpt>
      <trkpt lat="62.633368720482" lon="17.969373789959">
        <ele>85.2</ele>
        <time>2018-03-05T18:51:32Z</time>
      </trkpt>
      <trkpt lat="62.633376180373" lon="17.969328527699">
        <ele>85.2</ele>
        <time>2018-03-05T18:51:33Z</time>
      </trkpt>
      <trkpt lat="62.633386238653" lon="17.969278403937">
        <ele>85</ele>
        <time>2018-03-05T18:51:34Z</time>
      </trkpt>
      <trkpt lat="62.63339403382" lon="17.969235237152">
        <ele>85</ele>
        <time>2018-03-05T18:51:35Z</time>
      </trkpt>
      <trkpt lat="62.633400068788" lon="17.969177988775">
        <ele>84.8</ele>
        <time>2018-03-05T18:51:36Z</time>
      </trkpt>
      <trkpt lat="62.633404259738" lon="17.969128619384">
        <ele>84.6</ele>
        <time>2018-03-05T18:51:37Z</time>
      </trkpt>
      <trkpt lat="62.633410043249" lon="17.969075813414">
        <ele>84.4</ele>
        <time>2018-03-05T18:51:38Z</time>
      </trkpt>
      <trkpt lat="62.633414904751" lon="17.969027366032">
        <ele>84.2</ele>
        <time>2018-03-05T18:51:39Z</time>
      </trkpt>
      <trkpt lat="62.633418425149" lon="17.968976320261">
        <ele>84.2</ele>
        <time>2018-03-05T18:51:40Z</time>
      </trkpt>
      <trkpt lat="62.633423538108" lon="17.968926531775">
        <ele>84</ele>
        <time>2018-03-05T18:51:41Z</time>
      </trkpt>
      <trkpt lat="62.633428315791" lon="17.968875066909">
        <ele>84</ele>
        <time>2018-03-05T18:51:42Z</time>
      </trkpt>
      <trkpt lat="62.633432255284" lon="17.968821087473">
        <ele>83.8</ele>
        <time>2018-03-05T18:51:43Z</time>
      </trkpt>
      <trkpt lat="62.63344013427" lon="17.968764844924">
        <ele>83.6</ele>
        <time>2018-03-05T18:51:44Z</time>
      </trkpt>
      <trkpt lat="62.633444911953" lon="17.968713128601">
        <ele>83.2</ele>
        <time>2018-03-05T18:51:45Z</time>
      </trkpt>
      <trkpt lat="62.633450863102" lon="17.96866124464">
        <ele>83.2</ele>
        <time>2018-03-05T18:51:46Z</time>
      </trkpt>
      <trkpt lat="62.633458239174" lon="17.968612881077">
        <ele>83</ele>
        <time>2018-03-05T18:51:47Z</time>
      </trkpt>
      <trkpt lat="62.633468716549" lon="17.968561332392">
        <ele>82.8</ele>
        <time>2018-03-05T18:51:48Z</time>
      </trkpt>
      <trkpt lat="62.633476763173" lon="17.968509867526">
        <ele>82.8</ele>
        <time>2018-03-05T18:51:49Z</time>
      </trkpt>
      <trkpt lat="62.633486067082" lon="17.968455971909">
        <ele>82.6</ele>
        <time>2018-03-05T18:51:50Z</time>
      </trkpt>
      <trkpt lat="62.633491850593" lon="17.968411380201">
        <ele>82.4</ele>
        <time>2018-03-05T18:51:51Z</time>
      </trkpt>
      <trkpt lat="62.633499059027" lon="17.968367123769">
        <ele>82.2</ele>
        <time>2018-03-05T18:51:52Z</time>
      </trkpt>
      <trkpt lat="62.63350551309" lon="17.968316580912">
        <ele>82.2</ele>
        <time>2018-03-05T18:51:53Z</time>
      </trkpt>
      <trkpt lat="62.633511212782" lon="17.968262098562">
        <ele>82</ele>
        <time>2018-03-05T18:51:54Z</time>
      </trkpt>
      <trkpt lat="62.633518002121" lon="17.968213986456">
        <ele>81.8</ele>
        <time>2018-03-05T18:51:55Z</time>
      </trkpt>
      <trkpt lat="62.633526384021" lon="17.968158582097">
        <ele>81.6</ele>
        <time>2018-03-05T18:51:56Z</time>
      </trkpt>
      <trkpt lat="62.63353484974" lon="17.968111727276">
        <ele>81.4</ele>
        <time>2018-03-05T18:51:57Z</time>
      </trkpt>
      <trkpt lat="62.633545159477" lon="17.968060178591">
        <ele>81.2</ele>
        <time>2018-03-05T18:51:58Z</time>
      </trkpt>
      <trkpt lat="62.63355161354" lon="17.968010138648">
        <ele>80.8</ele>
        <time>2018-03-05T18:51:59Z</time>
      </trkpt>
      <trkpt lat="62.633562426191" lon="17.967955153384">
        <ele>80.6</ele>
        <time>2018-03-05T18:52:00Z</time>
      </trkpt>
      <trkpt lat="62.633571227186" lon="17.967903604699">
        <ele>80.2</ele>
        <time>2018-03-05T18:52:01Z</time>
      </trkpt>
      <trkpt lat="62.633579022353" lon="17.967851972195">
        <ele>80</ele>
        <time>2018-03-05T18:52:02Z</time>
      </trkpt>
      <trkpt lat="62.633582961846" lon="17.96779707075">
        <ele>79.6</ele>
        <time>2018-03-05T18:52:03Z</time>
      </trkpt>
      <trkpt lat="62.633582291294" lon="17.967736888708">
        <ele>79.6</ele>
        <time>2018-03-05T18:52:04Z</time>
      </trkpt>
      <trkpt lat="62.633582039837" lon="17.967672264259">
        <ele>79.4</ele>
        <time>2018-03-05T18:52:05Z</time>
      </trkpt>
      <trkpt lat="62.63359184666" lon="17.967609651466">
        <ele>79.2</ele>
        <time>2018-03-05T18:52:06Z</time>
      </trkpt>
      <trkpt lat="62.633601988759" lon="17.96756070117">
        <ele>79</ele>
        <time>2018-03-05T18:52:07Z</time>
      </trkpt>
      <trkpt lat="62.63361028684" lon="17.967503285155">
        <ele>78.8</ele>
        <time>2018-03-05T18:52:08Z</time>
      </trkpt>
      <trkpt lat="62.63361783055" lon="17.967446455873">
        <ele>78.4</ele>
        <time>2018-03-05T18:52:09Z</time>
      </trkpt>
      <trkpt lat="62.633621853862" lon="17.967391805885">
        <ele>78.2</ele>
        <time>2018-03-05T18:52:10Z</time>
      </trkpt>
      <trkpt lat="62.633627637373" lon="17.967351908041">
        <ele>78</ele>
        <time>2018-03-05T18:52:11Z</time>
      </trkpt>
      <trkpt lat="62.63363627073" lon="17.967291558361">
        <ele>78</ele>
        <time>2018-03-05T18:52:12Z</time>
      </trkpt>
      <trkpt lat="62.633642808612" lon="17.967238752391">
        <ele>77.8</ele>
        <time>2018-03-05T18:52:13Z</time>
      </trkpt>
      <trkpt lat="62.633647753933" lon="17.967189215362">
        <ele>77.6</ele>
        <time>2018-03-05T18:52:14Z</time>
      </trkpt>
      <trkpt lat="62.633657309299" lon="17.967134984469">
        <ele>77.4</ele>
        <time>2018-03-05T18:52:15Z</time>
      </trkpt>
      <trkpt lat="62.633665355923" lon="17.967087794372">
        <ele>77.4</ele>
        <time>2018-03-05T18:52:16Z</time>
      </trkpt>
      <trkpt lat="62.633671558529" lon="17.9670468907">
        <ele>77</ele>
        <time>2018-03-05T18:52:17Z</time>
      </trkpt>
      <trkpt lat="62.633678934601" lon="17.966988133581">
        <ele>76.8</ele>
        <time>2018-03-05T18:52:18Z</time>
      </trkpt>
      <trkpt lat="62.633685556302" lon="17.966936417258">
        <ele>76.6</ele>
        <time>2018-03-05T18:52:19Z</time>
      </trkpt>
      <trkpt lat="62.633690333985" lon="17.966888305152">
        <ele>76.2</ele>
        <time>2018-03-05T18:52:20Z</time>
      </trkpt>
      <trkpt lat="62.633697710057" lon="17.966835331544">
        <ele>76</ele>
        <time>2018-03-05T18:52:21Z</time>
      </trkpt>
      <trkpt lat="62.633705169948" lon="17.966784201954">
        <ele>75.8</ele>
        <time>2018-03-05T18:52:22Z</time>
      </trkpt>
      <trkpt lat="62.633711204916" lon="17.966739777884">
        <ele>75.6</ele>
        <time>2018-03-05T18:52:23Z</time>
      </trkpt>
      <trkpt lat="62.633718497169" lon="17.966681607498">
        <ele>75.4</ele>
        <time>2018-03-05T18:52:24Z</time>
      </trkpt>
      <trkpt lat="62.633725873241" lon="17.966629220623">
        <ele>75.2</ele>
        <time>2018-03-05T18:52:25Z</time>
      </trkpt>
      <trkpt lat="62.633730734743" lon="17.966581862888">
        <ele>75</ele>
        <time>2018-03-05T18:52:26Z</time>
      </trkpt>
      <trkpt lat="62.633736685892" lon="17.966534672791">
        <ele>75</ele>
        <time>2018-03-05T18:52:27Z</time>
      </trkpt>
      <trkpt lat="62.633744229602" lon="17.966483878477">
        <ele>74.8</ele>
        <time>2018-03-05T18:52:28Z</time>
      </trkpt>
      <trkpt lat="62.63374858819" lon="17.966438700036">
        <ele>74.6</ele>
        <time>2018-03-05T18:52:29Z</time>
      </trkpt>
      <trkpt lat="62.633753868787" lon="17.966387654265">
        <ele>74.4</ele>
        <time>2018-03-05T18:52:30Z</time>
      </trkpt>
      <trkpt lat="62.633760993402" lon="17.96634867843">
        <ele>74.2</ele>
        <time>2018-03-05T18:52:31Z</time>
      </trkpt>
      <trkpt lat="62.633768201836" lon="17.966293693166">
        <ele>74.2</ele>
        <time>2018-03-05T18:52:32Z</time>
      </trkpt>
      <trkpt lat="62.633772644243" lon="17.966245245784">
        <ele>74</ele>
        <time>2018-03-05T18:52:33Z</time>
      </trkpt>
      <trkpt lat="62.633779936496" lon="17.966190009063">
        <ele>74</ele>
        <time>2018-03-05T18:52:34Z</time>
      </trkpt>
      <trkpt lat="62.633785803826" lon="17.966144495346">
        <ele>73.8</ele>
        <time>2018-03-05T18:52:35Z</time>
      </trkpt>
      <trkpt lat="62.633787061111" lon="17.966094287765">
        <ele>73.8</ele>
        <time>2018-03-05T18:52:36Z</time>
      </trkpt>
      <trkpt lat="62.633793096079" lon="17.966044164003">
        <ele>73.6</ele>
        <time>2018-03-05T18:52:37Z</time>
      </trkpt>
      <trkpt lat="62.633797035572" lon="17.965990603662">
        <ele>73.6</ele>
        <time>2018-03-05T18:52:38Z</time>
      </trkpt>
      <trkpt lat="62.633799214866" lon="17.965942826832">
        <ele>73.4</ele>
        <time>2018-03-05T18:52:39Z</time>
      </trkpt>
      <trkpt lat="62.633803154359" lon="17.965890859052">
        <ele>73</ele>
        <time>2018-03-05T18:52:40Z</time>
      </trkpt>
      <trkpt lat="62.633803824911" lon="17.965843836593">
        <ele>72.8</ele>
        <time>2018-03-05T18:52:41Z</time>
      </trkpt>
      <trkpt lat="62.633804076368" lon="17.965796395039">
        <ele>72.4</ele>
        <time>2018-03-05T18:52:42Z</time>
      </trkpt>
      <trkpt lat="62.633805333653" lon="17.96574099068">
        <ele>72.2</ele>
        <time>2018-03-05T18:52:43Z</time>
      </trkpt>
      <trkpt lat="62.633806758576" lon="17.96568986109">
        <ele>72</ele>
        <time>2018-03-05T18:52:44Z</time>
      </trkpt>
      <trkpt lat="62.633807596766" lon="17.965641581346">
        <ele>71.8</ele>
        <time>2018-03-05T18:52:45Z</time>
      </trkpt>
      <trkpt lat="62.63380726149" lon="17.965587685729">
        <ele>71.6</ele>
        <time>2018-03-05T18:52:46Z</time>
      </trkpt>
      <trkpt lat="62.633807932042" lon="17.96554317784">
        <ele>71.4</ele>
        <time>2018-03-05T18:52:47Z</time>
      </trkpt>
      <trkpt lat="62.633810027517" lon="17.965495568648">
        <ele>71.2</ele>
        <time>2018-03-05T18:52:48Z</time>
      </trkpt>
      <trkpt lat="62.633809524603" lon="17.965455754623">
        <ele>71</ele>
        <time>2018-03-05T18:52:49Z</time>
      </trkpt>
      <trkpt lat="62.63380977606" lon="17.965417952254">
        <ele>70.8</ele>
        <time>2018-03-05T18:52:50Z</time>
      </trkpt>
      <trkpt lat="62.633806674757" lon="17.965373947279">
        <ele>70.6</ele>
        <time>2018-03-05T18:52:51Z</time>
      </trkpt>
      <trkpt lat="62.633805501291" lon="17.965341928421">
        <ele>70.6</ele>
        <time>2018-03-05T18:52:52Z</time>
      </trkpt>
      <trkpt lat="62.633804411644" lon="17.965305299518">
        <ele>70.4</ele>
        <time>2018-03-05T18:52:53Z</time>
      </trkpt>
      <trkpt lat="62.633802316169" lon="17.965268083882">
        <ele>70.4</ele>
        <time>2018-03-05T18:52:54Z</time>
      </trkpt>
      <trkpt lat="62.633798963409" lon="17.965235394472">
        <ele>70.2</ele>
        <time>2018-03-05T18:52:55Z</time>
      </trkpt>
      <trkpt lat="62.633799801599" lon="17.96520203451">
        <ele>70.2</ele>
        <time>2018-03-05T18:52:56Z</time>
      </trkpt>
      <trkpt lat="62.63379887959" lon="17.965170267109">
        <ele>70</ele>
        <time>2018-03-05T18:52:57Z</time>
      </trkpt>
      <trkpt lat="62.63380055597" lon="17.965135649862">
        <ele>70</ele>
        <time>2018-03-05T18:52:58Z</time>
      </trkpt>
      <trkpt lat="62.633798711952" lon="17.965104050099">
        <ele>69.8</ele>
        <time>2018-03-05T18:52:59Z</time>
      </trkpt>
      <trkpt lat="62.633798292857" lon="17.965069181395">
        <ele>69.6</ele>
        <time>2018-03-05T18:53:00Z</time>
      </trkpt>
      <trkpt lat="62.633799382504" lon="17.965033306863">
        <ele>69.6</ele>
        <time>2018-03-05T18:53:01Z</time>
      </trkpt>
      <trkpt lat="62.633800472151" lon="17.964995923589">
        <ele>69.2</ele>
        <time>2018-03-05T18:53:02Z</time>
      </trkpt>
      <trkpt lat="62.633802651445" lon="17.964959713781">
        <ele>69</ele>
        <time>2018-03-05T18:53:03Z</time>
      </trkpt>
      <trkpt lat="62.633806590938" lon="17.964925347991">
        <ele>68.8</ele>
        <time>2018-03-05T18:53:04Z</time>
      </trkpt>
      <trkpt lat="62.63381061425" lon="17.964903135956">
        <ele>68.6</ele>
        <time>2018-03-05T18:53:05Z</time>
      </trkpt>
      <trkpt lat="62.633816565399" lon="17.9648675967">
        <ele>68.4</ele>
        <time>2018-03-05T18:53:06Z</time>
      </trkpt>
      <trkpt lat="62.633821762177" lon="17.96484664195">
        <ele>68.4</ele>
        <time>2018-03-05T18:53:07Z</time>
      </trkpt>
      <trkpt lat="62.633839783262" lon="17.964821328612">
        <ele>68</ele>
        <time>2018-03-05T18:53:08Z</time>
      </trkpt>
      <trkpt lat="62.633858558718" lon="17.964788136288">
        <ele>68</ele>
        <time>2018-03-05T18:53:09Z</time>
      </trkpt>
      <trkpt lat="62.633877753269" lon="17.964759554009">
        <ele>68</ele>
        <time>2018-03-05T18:53:10Z</time>
      </trkpt>
      <trkpt lat="62.633899210933" lon="17.964734156852">
        <ele>67.8</ele>
        <time>2018-03-05T18:53:11Z</time>
      </trkpt>
      <trkpt lat="62.633923266986" lon="17.964714375568">
        <ele>67.8</ele>
        <time>2018-03-05T18:53:12Z</time>
      </trkpt>
      <trkpt lat="62.633943299727" lon="17.964701551261">
        <ele>67.8</ele>
        <time>2018-03-05T18:53:13Z</time>
      </trkpt>
      <trkpt lat="62.633967858694" lon="17.964689397506">
        <ele>67.8</ele>
        <time>2018-03-05T18:53:14Z</time>
      </trkpt>
      <trkpt lat="62.633990992738" lon="17.964687553488">
        <ele>67.6</ele>
        <time>2018-03-05T18:53:15Z</time>
      </trkpt>
      <trkpt lat="62.634012701859" lon="17.964690403334">
        <ele>67.6</ele>
        <time>2018-03-05T18:53:16Z</time>
      </trkpt>
      <trkpt lat="62.634038182835" lon="17.96468738585">
        <ele>67.6</ele>
        <time>2018-03-05T18:53:17Z</time>
      </trkpt>
      <trkpt lat="62.634064837277" lon="17.964685290375">
        <ele>67.6</ele>
        <time>2018-03-05T18:53:18Z</time>
      </trkpt>
      <trkpt lat="62.634090318253" lon="17.964685960927">
        <ele>67.6</ele>
        <time>2018-03-05T18:53:19Z</time>
      </trkpt>
      <trkpt lat="62.634117559428" lon="17.964687302031">
        <ele>67.4</ele>
        <time>2018-03-05T18:53:20Z</time>
      </trkpt>
      <trkpt lat="62.634143124223" lon="17.964689816601">
        <ele>67.4</ele>
        <time>2018-03-05T18:53:21Z</time>
      </trkpt>
      <trkpt lat="62.63416516862" lon="17.964690906248">
        <ele>67.2</ele>
        <time>2018-03-05T18:53:22Z</time>
      </trkpt>
      <trkpt lat="62.634190230501" lon="17.964691157705">
        <ele>67.2</ele>
        <time>2018-03-05T18:53:23Z</time>
      </trkpt>
      <trkpt lat="62.634216633486" lon="17.964689229868">
        <ele>67</ele>
        <time>2018-03-05T18:53:24Z</time>
      </trkpt>
      <trkpt lat="62.634241276272" lon="17.964684116909">
        <ele>67.2</ele>
        <time>2018-03-05T18:53:25Z</time>
      </trkpt>
      <trkpt lat="62.634269187999" lon="17.964686296203">
        <ele>67</ele>
        <time>2018-03-05T18:53:26Z</time>
      </trkpt>
      <trkpt lat="62.634293579328" lon="17.964685122737">
        <ele>67</ele>
        <time>2018-03-05T18:53:27Z</time>
      </trkpt>
      <trkpt lat="62.634318222114" lon="17.964685038918">
        <ele>67</ele>
        <time>2018-03-05T18:53:28Z</time>
      </trkpt>
      <trkpt lat="62.634344122185" lon="17.964687637307">
        <ele>66.8</ele>
        <time>2018-03-05T18:53:29Z</time>
      </trkpt>
      <trkpt lat="62.634371195722" lon="17.96468738585">
        <ele>66.8</ele>
        <time>2018-03-05T18:53:30Z</time>
      </trkpt>
      <trkpt lat="62.634396341422" lon="17.964687050574">
        <ele>66.8</ele>
        <time>2018-03-05T18:53:31Z</time>
      </trkpt>
      <trkpt lat="62.634421822398" lon="17.964688140221">
        <ele>66.6</ele>
        <time>2018-03-05T18:53:32Z</time>
      </trkpt>
      <trkpt lat="62.634445459356" lon="17.96468990042">
        <ele>66.6</ele>
        <time>2018-03-05T18:53:33Z</time>
      </trkpt>
      <trkpt lat="62.634472868169" lon="17.964690319515">
        <ele>66.6</ele>
        <time>2018-03-05T18:53:34Z</time>
      </trkpt>
      <trkpt lat="62.634496588946" lon="17.964695683931">
        <ele>66.6</ele>
        <time>2018-03-05T18:53:35Z</time>
      </trkpt>
      <trkpt lat="62.63452056118" lon="17.964695516293">
        <ele>66.4</ele>
        <time>2018-03-05T18:53:36Z</time>
      </trkpt>
      <trkpt lat="62.634544701052" lon="17.964697779406">
        <ele>66.4</ele>
        <time>2018-03-05T18:53:37Z</time>
      </trkpt>
      <trkpt lat="62.634568840924" lon="17.964692079714">
        <ele>66.4</ele>
        <time>2018-03-05T18:53:38Z</time>
      </trkpt>
      <trkpt lat="62.634588622208" lon="17.96469409137">
        <ele>66.2</ele>
        <time>2018-03-05T18:53:39Z</time>
      </trkpt>
      <trkpt lat="62.634610498967" lon="17.964698030863">
        <ele>66.2</ele>
        <time>2018-03-05T18:53:40Z</time>
      </trkpt>
      <trkpt lat="62.634630447889" lon="17.964706496582">
        <ele>66.2</ele>
        <time>2018-03-05T18:53:41Z</time>
      </trkpt>
      <trkpt lat="62.634651486458" lon="17.964705406935">
        <ele>66.2</ele>
        <time>2018-03-05T18:53:42Z</time>
      </trkpt>
      <trkpt lat="62.634678224719" lon="17.964709430247">
        <ele>66.2</ele>
        <time>2018-03-05T18:53:43Z</time>
      </trkpt>
      <trkpt lat="62.634701526401" lon="17.96470750241">
        <ele>66</ele>
        <time>2018-03-05T18:53:44Z</time>
      </trkpt>
      <trkpt lat="62.634723235522" lon="17.964705323116">
        <ele>66</ele>
        <time>2018-03-05T18:53:45Z</time>
      </trkpt>
      <trkpt lat="62.634745028462" lon="17.964707418591">
        <ele>66</ele>
        <time>2018-03-05T18:53:46Z</time>
      </trkpt>
      <trkpt lat="62.634765983212" lon="17.964705909849">
        <ele>66</ele>
        <time>2018-03-05T18:53:47Z</time>
      </trkpt>
      <trkpt lat="62.634791380369" lon="17.964699707243">
        <ele>66</ele>
        <time>2018-03-05T18:53:48Z</time>
      </trkpt>
      <trkpt lat="62.634817112802" lon="17.964700126338">
        <ele>65.8</ele>
        <time>2018-03-05T18:53:49Z</time>
      </trkpt>
      <trkpt lat="62.634840330665" lon="17.964699371967">
        <ele>65.8</ele>
        <time>2018-03-05T18:53:50Z</time>
      </trkpt>
      <trkpt lat="62.634869080582" lon="17.964704484926">
        <ele>65.8</ele>
        <time>2018-03-05T18:53:51Z</time>
      </trkpt>
      <trkpt lat="62.634893304273" lon="17.96471085517">
        <ele>65.8</ele>
        <time>2018-03-05T18:53:52Z</time>
      </trkpt>
      <trkpt lat="62.634915097213" lon="17.964716806319">
        <ele>65.6</ele>
        <time>2018-03-05T18:53:53Z</time>
      </trkpt>
      <trkpt lat="62.634941416379" lon="17.964712950645">
        <ele>65.6</ele>
        <time>2018-03-05T18:53:54Z</time>
      </trkpt>
      <trkpt lat="62.63496647826" lon="17.964707418591">
        <ele>65.6</ele>
        <time>2018-03-05T18:53:55Z</time>
      </trkpt>
      <trkpt lat="62.634991121046" lon="17.964697779406">
        <ele>65.6</ele>
        <time>2018-03-05T18:53:56Z</time>
      </trkpt>
      <trkpt lat="62.635014171271" lon="17.964688726954">
        <ele>65.4</ele>
        <time>2018-03-05T18:53:57Z</time>
      </trkpt>
      <trkpt lat="62.6350385626" lon="17.964679087769">
        <ele>65.4</ele>
        <time>2018-03-05T18:53:58Z</time>
      </trkpt>
      <trkpt lat="62.635062618653" lon="17.964676154104">
        <ele>65.4</ele>
        <time>2018-03-05T18:53:59Z</time>
      </trkpt>
      <trkpt lat="62.635088937819" lon="17.964660647589">
        <ele>65.4</ele>
        <time>2018-03-05T18:54:00Z</time>
      </trkpt>
      <trkpt lat="62.635111988044" lon="17.964646817454">
        <ele>65.4</ele>
        <time>2018-03-05T18:54:01Z</time>
      </trkpt>
      <trkpt lat="62.635138055753" lon="17.964632819681">
        <ele>65.2</ele>
        <time>2018-03-05T18:54:02Z</time>
      </trkpt>
      <trkpt lat="62.635164794014" lon="17.96462200703">
        <ele>65.2</ele>
        <time>2018-03-05T18:54:03Z</time>
      </trkpt>
      <trkpt lat="62.635193041017" lon="17.964607422524">
        <ele>65.2</ele>
        <time>2018-03-05T18:54:04Z</time>
      </trkpt>
      <trkpt lat="62.635217767622" lon="17.964599794995">
        <ele>65.2</ele>
        <time>2018-03-05T18:54:05Z</time>
      </trkpt>
      <trkpt lat="62.635243164779" lon="17.964588227973">
        <ele>65</ele>
        <time>2018-03-05T18:54:06Z</time>
      </trkpt>
      <trkpt lat="62.635263951891" lon="17.964578169693">
        <ele>65.2</ele>
        <time>2018-03-05T18:54:07Z</time>
      </trkpt>
      <trkpt lat="62.635291109247" lon="17.964568195232">
        <ele>65</ele>
        <time>2018-03-05T18:54:08Z</time>
      </trkpt>
      <trkpt lat="62.635313069825" lon="17.964559058961">
        <ele>65</ele>
        <time>2018-03-05T18:54:09Z</time>
      </trkpt>
      <trkpt lat="62.635337712611" lon="17.964549252138">
        <ele>65</ele>
        <time>2018-03-05T18:54:10Z</time>
      </trkpt>
      <trkpt lat="62.635362606854" lon="17.964534499994">
        <ele>65</ele>
        <time>2018-03-05T18:54:11Z</time>
      </trkpt>
      <trkpt lat="62.635386746726" lon="17.964520921316">
        <ele>64.8</ele>
        <time>2018-03-05T18:54:12Z</time>
      </trkpt>
      <trkpt lat="62.635411640969" lon="17.964507510276">
        <ele>64.8</ele>
        <time>2018-03-05T18:54:13Z</time>
      </trkpt>
      <trkpt lat="62.635438882144" lon="17.964493680141">
        <ele>64.8</ele>
        <time>2018-03-05T18:54:14Z</time>
      </trkpt>
      <trkpt lat="62.63546184855" lon="17.964482951309">
        <ele>64.8</ele>
        <time>2018-03-05T18:54:15Z</time>
      </trkpt>
      <trkpt lat="62.635489425001" lon="17.96447113283">
        <ele>64.8</ele>
        <time>2018-03-05T18:54:16Z</time>
      </trkpt>
      <trkpt lat="62.635510798846" lon="17.964458476161">
        <ele>64.8</ele>
        <time>2018-03-05T18:54:17Z</time>
      </trkpt>
      <trkpt lat="62.635534435804" lon="17.964447160596">
        <ele>64.6</ele>
        <time>2018-03-05T18:54:18Z</time>
      </trkpt>
      <trkpt lat="62.635560000599" lon="17.964430396796">
        <ele>64.6</ele>
        <time>2018-03-05T18:54:19Z</time>
      </trkpt>
      <trkpt lat="62.635584308109" lon="17.964413968272">
        <ele>64.6</ele>
        <time>2018-03-05T18:54:20Z</time>
      </trkpt>
      <trkpt lat="62.635605430497" lon="17.964401479241">
        <ele>64.4</ele>
        <time>2018-03-05T18:54:21Z</time>
      </trkpt>
      <trkpt lat="62.635628815998" lon="17.964386978554">
        <ele>64.4</ele>
        <time>2018-03-05T18:54:22Z</time>
      </trkpt>
      <trkpt lat="62.635654716069" lon="17.964372394048">
        <ele>64.4</ele>
        <time>2018-03-05T18:54:23Z</time>
      </trkpt>
      <trkpt lat="62.635677431018" lon="17.964347499805">
        <ele>64.2</ele>
        <time>2018-03-05T18:54:24Z</time>
      </trkpt>
      <trkpt lat="62.63569821813" lon="17.964330149272">
        <ele>64.2</ele>
        <time>2018-03-05T18:54:25Z</time>
      </trkpt>
      <trkpt lat="62.635724872572" lon="17.964316822051">
        <ele>64.2</ele>
        <time>2018-03-05T18:54:26Z</time>
      </trkpt>
      <trkpt lat="62.635743899485" lon="17.964301986088">
        <ele>64.2</ele>
        <time>2018-03-05T18:54:27Z</time>
      </trkpt>
      <trkpt lat="62.6357677879" lon="17.964285222288">
        <ele>64.2</ele>
        <time>2018-03-05T18:54:28Z</time>
      </trkpt>
      <trkpt lat="62.635789077926" lon="17.964267955574">
        <ele>64</ele>
        <time>2018-03-05T18:54:29Z</time>
      </trkpt>
      <trkpt lat="62.635814642721" lon="17.964249096299">
        <ele>64</ele>
        <time>2018-03-05T18:54:30Z</time>
      </trkpt>
      <trkpt lat="62.635839536964" lon="17.9642305723">
        <ele>64</ele>
        <time>2018-03-05T18:54:31Z</time>
      </trkpt>
      <trkpt lat="62.635859485886" lon="17.964216239251">
        <ele>63.8</ele>
        <time>2018-03-05T18:54:32Z</time>
      </trkpt>
      <trkpt lat="62.635884380129" lon="17.96419955927">
        <ele>63.8</ele>
        <time>2018-03-05T18:54:33Z</time>
      </trkpt>
      <trkpt lat="62.635909022915" lon="17.964178017787">
        <ele>64</ele>
        <time>2018-03-05T18:54:34Z</time>
      </trkpt>
      <trkpt lat="62.635930312941" lon="17.964170557896">
        <ele>63.8</ele>
        <time>2018-03-05T18:54:35Z</time>
      </trkpt>
      <trkpt lat="62.635952022062" lon="17.964160331978">
        <ele>63.8</ele>
        <time>2018-03-05T18:54:36Z</time>
      </trkpt>
      <trkpt lat="62.635976413391" lon="17.964161086349">
        <ele>63.6</ele>
        <time>2018-03-05T18:54:37Z</time>
      </trkpt>
      <trkpt lat="62.635999798892" lon="17.964158823236">
        <ele>63.4</ele>
        <time>2018-03-05T18:54:38Z</time>
      </trkpt>
      <trkpt lat="62.636025363687" lon="17.964151363345">
        <ele>63.2</ele>
        <time>2018-03-05T18:54:39Z</time>
      </trkpt>
      <trkpt lat="62.636049335921" lon="17.964138874314">
        <ele>63</ele>
        <time>2018-03-05T18:54:40Z</time>
      </trkpt>
      <trkpt lat="62.636071883232" lon="17.964135353916">
        <ele>63</ele>
        <time>2018-03-05T18:54:41Z</time>
      </trkpt>
      <trkpt lat="62.636098118579" lon="17.964133928993">
        <ele>63</ele>
        <time>2018-03-05T18:54:42Z</time>
      </trkpt>
      <trkpt lat="62.63612569503" lon="17.964138706676">
        <ele>63</ele>
        <time>2018-03-05T18:54:43Z</time>
      </trkpt>
      <trkpt lat="62.636145979228" lon="17.96415262063">
        <ele>63</ele>
        <time>2018-03-05T18:54:44Z</time>
      </trkpt>
      <trkpt lat="62.636168358901" lon="17.964179694167">
        <ele>63</ele>
        <time>2018-03-05T18:54:45Z</time>
      </trkpt>
      <trkpt lat="62.636193253144" lon="17.964204504591">
        <ele>62.8</ele>
        <time>2018-03-05T18:54:46Z</time>
      </trkpt>
      <trkpt lat="62.6362120286" lon="17.964223363866">
        <ele>62.8</ele>
        <time>2018-03-05T18:54:47Z</time>
      </trkpt>
      <trkpt lat="62.636240694698" lon="17.964245324444">
        <ele>63</ele>
        <time>2018-03-05T18:54:48Z</time>
      </trkpt>
      <trkpt lat="62.636268271149" lon="17.964258735484">
        <ele>62.8</ele>
        <time>2018-03-05T18:54:49Z</time>
      </trkpt>
      <trkpt lat="62.636290399365" lon="17.964260579502">
        <ele>63</ele>
        <time>2018-03-05T18:54:50Z</time>
      </trkpt>
      <trkpt lat="62.636319987472" lon="17.964259238398">
        <ele>63</ele>
        <time>2018-03-05T18:54:51Z</time>
      </trkpt>
      <trkpt lat="62.636346055181" lon="17.964253706344">
        <ele>63.2</ele>
        <time>2018-03-05T18:54:52Z</time>
      </trkpt>
      <trkpt lat="62.636366674655" lon="17.964245156806">
        <ele>63.2</ele>
        <time>2018-03-05T18:54:53Z</time>
      </trkpt>
      <trkpt lat="62.636412858924" lon="17.96422470497">
        <ele>63.2</ele>
        <time>2018-03-05T18:54:55Z</time>
      </trkpt>
      <trkpt lat="62.636440686832" lon="17.964211377749">
        <ele>63.2</ele>
        <time>2018-03-05T18:54:56Z</time>
      </trkpt>
      <trkpt lat="62.636475136441" lon="17.964209114636">
        <ele>63.2</ele>
        <time>2018-03-05T18:54:57Z</time>
      </trkpt>
      <trkpt lat="62.636502629073" lon="17.964208192627">
        <ele>63.2</ele>
        <time>2018-03-05T18:54:58Z</time>
      </trkpt>
      <trkpt lat="62.636525344022" lon="17.964216490708">
        <ele>63.2</ele>
        <time>2018-03-05T18:54:59Z</time>
      </trkpt>
      <trkpt lat="62.63655233374" lon="17.964232667775">
        <ele>63</ele>
        <time>2018-03-05T18:55:00Z</time>
      </trkpt>
      <trkpt lat="62.636571276834" lon="17.964254460715">
        <ele>63</ele>
        <time>2018-03-05T18:55:01Z</time>
      </trkpt>
      <trkpt lat="62.636588292091" lon="17.964277427121">
        <ele>63</ele>
        <time>2018-03-05T18:55:02Z</time>
      </trkpt>
      <trkpt lat="62.636610671764" lon="17.964296705491">
        <ele>63</ele>
        <time>2018-03-05T18:55:03Z</time>
      </trkpt>
      <trkpt lat="62.636636068921" lon="17.964301231717">
        <ele>62.8</ele>
        <time>2018-03-05T18:55:04Z</time>
      </trkpt>
      <trkpt lat="62.63665794568" lon="17.964305674124">
        <ele>63</ele>
        <time>2018-03-05T18:55:05Z</time>
      </trkpt>
      <trkpt lat="62.636683007561" lon="17.964308104875">
        <ele>63</ele>
        <time>2018-03-05T18:55:06Z</time>
      </trkpt>
      <trkpt lat="62.636707147433" lon="17.964301986088">
        <ele>63</ele>
        <time>2018-03-05T18:55:07Z</time>
      </trkpt>
      <trkpt lat="62.636735562074" lon="17.964296537853">
        <ele>62.8</ele>
        <time>2018-03-05T18:55:08Z</time>
      </trkpt>
      <trkpt lat="62.636762132697" lon="17.96430014207">
        <ele>62.8</ele>
        <time>2018-03-05T18:55:09Z</time>
      </trkpt>
      <trkpt lat="62.636787613673" lon="17.964307937237">
        <ele>62.8</ele>
        <time>2018-03-05T18:55:10Z</time>
      </trkpt>
      <trkpt lat="62.63680881988" lon="17.964318749888">
        <ele>62.6</ele>
        <time>2018-03-05T18:55:11Z</time>
      </trkpt>
      <trkpt lat="62.636834552313" lon="17.964342973579">
        <ele>62.6</ele>
        <time>2018-03-05T18:55:12Z</time>
      </trkpt>
      <trkpt lat="62.636857937814" lon="17.964369292745">
        <ele>62.6</ele>
        <time>2018-03-05T18:55:13Z</time>
      </trkpt>
      <trkpt lat="62.636879311659" lon="17.964401814517">
        <ele>62.6</ele>
        <time>2018-03-05T18:55:14Z</time>
      </trkpt>
      <trkpt lat="62.63690269716" lon="17.964435509755">
        <ele>62.4</ele>
        <time>2018-03-05T18:55:15Z</time>
      </trkpt>
      <trkpt lat="62.636925495928" lon="17.964470043183">
        <ele>62.2</ele>
        <time>2018-03-05T18:55:16Z</time>
      </trkpt>
      <trkpt lat="62.636942678823" lon="17.964499547471">
        <ele>62.2</ele>
        <time>2018-03-05T18:55:17Z</time>
      </trkpt>
      <trkpt lat="62.636968411256" lon="17.964538942401">
        <ele>62.2</ele>
        <time>2018-03-05T18:55:18Z</time>
      </trkpt>
      <trkpt lat="62.636991629119" lon="17.964575487485">
        <ele>62</ele>
        <time>2018-03-05T18:55:19Z</time>
      </trkpt>
      <trkpt lat="62.637015601353" lon="17.964607673981">
        <ele>62.2</ele>
        <time>2018-03-05T18:55:20Z</time>
      </trkpt>
      <trkpt lat="62.637035801732" lon="17.964647404187">
        <ele>62.2</ele>
        <time>2018-03-05T18:55:21Z</time>
      </trkpt>
      <trkpt lat="62.637051727342" lon="17.964679255407">
        <ele>62.2</ele>
        <time>2018-03-05T18:55:22Z</time>
      </trkpt>
      <trkpt lat="62.637071508626" lon="17.964709514066">
        <ele>62.2</ele>
        <time>2018-03-05T18:55:23Z</time>
      </trkpt>
      <trkpt lat="62.637096067593" lon="17.964723847115">
        <ele>62.2</ele>
        <time>2018-03-05T18:55:24Z</time>
      </trkpt>
      <trkpt lat="62.6371172738" lon="17.964709346428">
        <ele>62.2</ele>
        <time>2018-03-05T18:55:25Z</time>
      </trkpt>
      <trkpt lat="62.637132277401" lon="17.964674226267">
        <ele>62.2</ele>
        <time>2018-03-05T18:55:26Z</time>
      </trkpt>
      <trkpt lat="62.637151136676" lon="17.964647823282">
        <ele>62.2</ele>
        <time>2018-03-05T18:55:27Z</time>
      </trkpt>
      <trkpt lat="62.637173767806" lon="17.964621755573">
        <ele>62</ele>
        <time>2018-03-05T18:55:28Z</time>
      </trkpt>
      <trkpt lat="62.637185670104" lon="17.964590658724">
        <ele>62</ele>
        <time>2018-03-05T18:55:29Z</time>
      </trkpt>
      <trkpt lat="62.637209390881" lon="17.964560064789">
        <ele>62.2</ele>
        <time>2018-03-05T18:55:30Z</time>
      </trkpt>
      <trkpt lat="62.637230848545" lon="17.964530979596">
        <ele>62</ele>
        <time>2018-03-05T18:55:31Z</time>
      </trkpt>
      <trkpt lat="62.637244846318" lon="17.964507761733">
        <ele>61.8</ele>
        <time>2018-03-05T18:55:32Z</time>
      </trkpt>
      <trkpt lat="62.637268483276" lon="17.964475826694">
        <ele>61.6</ele>
        <time>2018-03-05T18:55:33Z</time>
      </trkpt>
      <trkpt lat="62.637289605664" lon="17.964446657682">
        <ele>61.4</ele>
        <time>2018-03-05T18:55:34Z</time>
      </trkpt>
      <trkpt lat="62.637307291473" lon="17.964415560833">
        <ele>61.2</ele>
        <time>2018-03-05T18:55:35Z</time>
      </trkpt>
      <trkpt lat="62.63732933587" lon="17.964387732925">
        <ele>61.2</ele>
        <time>2018-03-05T18:55:36Z</time>
      </trkpt>
      <trkpt lat="62.637341657263" lon="17.964363257777">
        <ele>61.2</ele>
        <time>2018-03-05T18:55:37Z</time>
      </trkpt>
      <trkpt lat="62.637353811018" lon="17.964348170357">
        <ele>61.2</ele>
        <time>2018-03-05T18:55:38Z</time>
      </trkpt>
      <trkpt lat="62.637368563162" lon="17.964330903643">
        <ele>61</ele>
        <time>2018-03-05T18:55:39Z</time>
      </trkpt>
    </trkseg>
  </trk>
</gpx>